[[{"header":{"parameterUnit":"m.s-1","parameterCategory":1,"la1":30.6,"la2":28.766,"lo1":-90.7593,"lo2":-88.6598,"dy":0.0162,"dx":0.0183,"nx":116,"ny":114,"refTime":"2023-09-26T12:00:00:Z","depth":0,"parameterNumber":2,"parameterNumberName":"U-component_of_WINDS"},"data":[0.0,0.0,0.0,0.0,0.0,0.0,0.0,0.0,0.0,0.0,0.0,0.0,0.0,0.0,0.0,0.0,0.0,0.0,0.0,0.0,0.0,0.0,0.0,0.0,0.0,0.0,0.0,0.0,0.0,0.0,0.0,0.0,0.0,0.0,0.0,0.0,0.0,0.0,0.0,0.0,0.0,0.0,0.0,0.0,0.0,0.0,0.0,0.0,0.0,0.0,0.0,0.0,0.0,0.0,0.0,0.0,0.0,0.0,0.0,0.0,0.0,0.0,0.0,0.0,0.0,0.0,0.0,0.0,0.0,0.0,0.0,0.0,0.0,0.0,0.0,0.0,0.0,0.0,0.0,0.0,0.0,0.0,0.0,0.0,0.0,0.0,0.0,0.0,0.0,0.0,0.0,0.0,0.0,0.0,0.0,0.0,0.0,0.0,0.0,0.0,0.0,0.0,0.0,0.0,0.0,0.0,0.0,0.0,0.0,0.0,0.0,0.0,0.0,0.0,0.0,0.0,0.0,0.0,0.0,0.0,0.0,0.0,0.0,0.0,0.0,0.0,0.0,0.0,0.0,0.0,0.0,0.0,0.0,0.0,0.0,0.0,0.0,0.0,0.0,0.0,0.0,0.0,0.0,0.0,0.0,0.0,0.0,0.0,0.0,0.0,0.0,0.0,0.0,0.0,0.0,0.0,0.0,0.0,0.0,0.0,0.0,0.0,0.0,0.0,0.0,0.0,0.0,0.0,0.0,0.0,0.0,0.0,0.0,0.0,0.0,0.0,0.0,0.0,0.0,0.0,0.0,0.0,0.0,0.0,0.0,0.0,0.0,0.0,0.0,0.0,0.0,0.0,0.0,0.0,0.0,0.0,0.0,0.0,0.0,0.0,0.0,0.0,0.0,0.0,0.0,0.0,0.0,0.0,0.0,0.0,0.0,0.0,0.0,0.0,0.0,0.0,0.0,0.0,0.0,0.0,0.0,0.0,0.0,0.0,0.0,0.0,0.0,0.0,0.0,0.0,0.0,0.0,0.0,0.0,0.0,0.0,0.0,0.0,0.0,0.0,0.0,0.0,0.0,0.0,0.0,0.0,0.0,0.0,0.0,0.0,0.0,0.0,0.0,0.0,0.0,0.0,0.0,0.0,0.0,0.0,0.0,0.0,0.0,0.0,0.0,0.0,0.0,0.0,0.0,0.0,0.0,0.0,0.0,0.0,0.0,0.0,0.0,0.0,0.0,0.0,0.0,0.0,0.0,0.0,0.0,0.0,0.0,0.0,0.0,0.0,0.0,0.0,0.0,0.0,0.0,0.0,0.0,0.0,0.0,0.0,0.0,0.0,0.0,0.0,0.0,0.0,0.0,0.0,0.0,0.0,0.0,0.0,0.0,0.0,0.0,0.0,0.0,0.0,0.0,0.0,0.0,0.0,0.0,0.0,0.0,0.0,0.0,0.0,0.0,0.0,0.0,0.0,0.0,0.0,0.0,0.0,0.0,0.0,0.0,0.0,0.0,0.0,0.0,0.0,0.0,0.0,0.0,0.0,0.0,0.0,0.0,0.0,0.0,0.0,0.0,0.0,0.0,0.0,0.0,0.0,0.0,0.0,0.0,0.0,0.0,0.0,0.0,0.0,0.0,0.0,0.0,0.0,0.0,0.0,0.0,0.0,0.0,0.0,0.0,0.0,0.0,0.0,0.0,0.0,0.0,0.0,0.0,0.0,0.0,0.0,0.0,0.0,0.0,0.0,0.0,0.0,0.0,0.0,0.0,0.0,0.0,0.0,0.0,0.0,0.0,0.0,0.0,0.0,0.0,0.0,0.0,0.0,0.0,0.0,0.0,0.0,0.0,0.0,0.0,0.0,0.0,0.0,0.0,0.0,0.0,0.0,0.0,0.0,0.0,0.0,0.0,0.0,0.0,0.0,0.0,0.0,0.0,0.0,0.0,0.0,0.0,0.0,0.0,0.0,0.0,0.0,0.0,0.0,0.0,0.0,0.0,0.0,0.0,0.0,0.0,0.0,0.0,0.0,0.0,0.0,0.0,0.0,0.0,0.0,0.0,0.0,0.0,0.0,0.0,0.0,0.0,0.0,0.0,0.0,0.0,0.0,0.0,0.0,0.0,0.0,0.0,0.0,0.0,0.0,0.0,0.0,0.0,0.0,0.0,0.0,0.0,0.0,0.0,0.0,0.0,0.0,0.0,0.0,0.0,0.0,0.0,0.0,0.0,0.0,0.0,0.0,0.0,0.0,0.0,0.0,0.0,0.0,0.0,0.0,0.0,0.0,0.0,0.0,0.0,0.0,0.0,0.0,0.0,0.0,0.0,0.0,0.0,0.0,0.0,0.0,0.0,0.0,0.0,0.0,0.0,0.0,0.0,0.0,0.0,0.0,0.0,0.0,0.0,0.0,0.0,0.0,0.0,0.0,0.0,0.0,0.0,0.0,0.0,0.0,0.0,0.0,0.0,0.0,0.0,0.0,0.0,0.0,0.0,0.0,0.0,0.0,0.0,0.0,0.0,0.0,0.0,0.0,0.0,0.0,0.0,0.0,0.0,0.0,0.0,0.0,0.0,0.0,0.0,0.0,0.0,0.0,0.0,0.0,0.0,0.0,0.0,0.0,0.0,0.0,0.0,0.0,0.0,0.0,0.0,0.0,0.0,0.0,0.0,0.0,0.0,0.0,0.0,0.0,0.0,0.0,0.0,0.0,0.0,0.0,0.0,0.0,0.0,0.0,0.0,0.0,0.0,0.0,0.0,0.0,0.0,0.0,0.0,0.0,0.0,0.0,0.0,0.0,0.0,0.0,0.0,0.0,0.0,0.0,0.0,0.0,0.0,0.0,0.0,0.0,0.0,0.0,0.0,0.0,0.0,0.0,0.0,0.0,0.0,0.0,0.0,0.0,0.0,0.0,0.0,0.0,0.0,0.0,0.0,0.0,0.0,0.0,0.0,0.0,0.0,0.0,0.0,0.0,0.0,0.0,0.0,0.0,0.0,0.0,0.0,0.0,0.0,0.0,0.0,0.0,0.0,0.0,0.0,0.0,0.0,0.0,0.0,0.0,0.0,0.0,0.0,0.0,0.0,0.0,0.0,0.0,0.0,0.0,0.0,0.0,0.0,0.0,0.0,0.0,0.0,0.0,0.0,0.0,0.0,0.0,0.0,0.0,0.0,0.0,0.0,0.0,0.0,0.0,0.0,0.0,0.0,0.0,0.0,0.0,0.0,0.0,0.0,0.0,0.0,0.0,0.0,0.0,0.0,0.0,0.0,0.0,0.0,0.0,0.0,0.0,0.0,0.0,0.0,0.0,0.0,0.0,0.0,0.0,0.0,0.0,0.0,0.0,0.0,0.0,0.0,0.0,0.0,0.0,0.0,0.0,0.0,0.0,0.0,0.0,0.0,0.0,0.0,0.0,0.0,0.0,0.0,0.0,0.0,0.0,0.0,0.0,0.0,0.0,0.0,0.0,0.0,0.0,0.0,0.0,0.0,0.0,0.0,0.0,0.0,0.0,0.0,0.0,0.0,0.0,0.0,0.0,0.0,0.0,0.0,0.0,0.0,0.0,0.0,0.0,0.0,0.0,0.0,0.0,0.0,0.0,0.0,0.0,0.0,0.0,0.0,0.0,0.0,0.0,0.0,0.0,0.0,0.0,0.0,0.0,0.0,0.0,0.0,0.0,0.0,0.0,0.0,0.0,0.0,0.0,0.0,0.0,0.0,0.0,0.0,0.0,0.0,0.0,0.0,0.0,0.0,0.0,0.0,0.0,0.0,0.0,0.0,0.0,0.0,0.0,0.0,0.0,0.0,0.0,0.0,0.0,0.0,0.0,0.0,0.0,0.0,0.0,0.0,0.0,0.0,0.0,0.0,0.0,0.0,0.0,0.0,0.0,0.0,0.0,0.0,0.0,0.0,0.0,0.0,0.0,0.0,0.0,0.0,0.0,0.0,0.0,0.0,0.0,0.0,0.0,0.0,0.0,0.0,0.0,0.0,0.0,0.0,0.0,0.0,0.0,0.0,0.0,0.0,0.0,0.0,0.0,0.0,0.0,0.0,0.0,0.0,0.0,0.0,0.0,0.0,0.0,0.0,0.0,0.0,0.0,0.0,0.0,0.0,0.0,0.0,0.0,0.0,0.0,0.0,0.0,0.0,0.0,0.0,0.0,0.0,0.0,0.0,0.0,0.0,0.0,0.0,0.0,0.0,0.0,0.0,0.0,0.0,0.0,0.0,0.0,0.0,0.0,0.0,0.0,0.0,0.0,0.0,0.0,0.0,0.0,0.0,0.0,0.0,0.0,0.0,0.0,0.0,0.0,0.0,0.0,0.0,0.0,0.0,0.0,0.0,0.0,0.0,0.0,0.0,0.0,0.0,0.0,0.0,0.0,0.0,0.0,0.0,0.0,0.0,0.0,0.0,0.0,0.0,0.0,0.0,0.0,0.0,0.0,0.0,0.0,0.0,0.0,0.0,0.0,0.0,0.0,0.0,0.0,0.0,0.0,0.0,0.0,0.0,0.0,0.0,0.0,0.0,0.0,0.0,0.0,0.0,0.0,0.0,0.0,0.0,0.0,0.0,0.0,0.0,0.0,0.0,0.0,0.0,0.0,0.0,0.0,0.0,0.0,0.0,0.0,0.0,0.0,0.0,0.0,0.0,0.0,0.0,0.0,0.0,0.0,0.0,0.0,0.0,0.0,0.0,0.0,0.0,0.0,0.0,0.0,0.0,0.0,0.0,0.0,0.0,0.0,0.0,0.0,0.0,0.0,0.0,0.0,0.0,0.0,0.0,0.0,0.0,0.0,0.0,0.0,0.0,0.0,0.0,0.0,0.0,0.0,0.0,0.0,0.0,0.0,0.0,0.0,0.0,0.0,0.0,0.0,0.0,0.0,0.0,0.0,0.0,0.0,0.0,0.0,0.0,0.0,0.0,0.0,0.0,0.0,0.0,0.0,0.0,0.0,0.0,0.0,0.0,0.0,0.0,0.0,0.0,0.0,0.0,0.0,0.0,0.0,0.0,0.0,0.0,0.0,0.0,0.0,0.0,0.0,0.0,0.0,0.0,0.0,0.0,0.0,0.0,0.0,0.0,0.0,0.0,0.0,0.0,0.0,0.0,0.0,0.0,0.0,0.0,0.0,0.0,0.0,0.0,0.0,0.0,0.0,0.0,0.0,0.0,0.0,0.0,0.0,0.0,0.0,0.0,0.0,0.0,0.0,0.0,0.0,0.0,0.0,0.0,0.0,0.0,0.0,0.0,0.0,0.0,0.0,0.0,0.0,0.0,0.0,0.0,0.0,0.0,0.0,0.0,0.0,0.0,0.0,0.0,0.0,0.0,0.0,0.0,0.0,0.0,0.0,0.0,0.0,0.0,0.0,0.0,0.0,0.0,0.0,0.0,0.0,0.0,0.0,0.0,0.0,0.0,0.0,0.0,0.0,0.0,0.0,0.0,0.0,0.0,0.0,0.0,0.0,0.0,0.0,0.0,0.0,0.0,0.0,0.0,0.0,0.0,0.0,0.0,0.0,0.0,0.0,0.0,0.0,0.0,0.0,0.0,0.0,0.0,0.0,0.0,0.0,0.0,0.0,0.0,0.0,0.0,0.0,0.0,0.0,0.0,0.0,0.0,0.0,0.0,0.0,0.0,0.0,0.0,0.0,0.0,0.0,0.0,0.0,0.0,0.0,0.0,0.0,0.0,0.0,0.0,0.0,0.0,0.0,0.0,0.0,0.0,0.0,0.0,0.0,0.0,0.0,0.0,0.0,0.0,0.0,0.0,0.0,0.0,0.0,0.0,0.0,0.0,0.0,0.0,0.0,0.0,0.0,0.0,0.0,0.0,0.0,0.0,0.0,0.0,0.0,0.0,0.0,0.0,0.0,0.0,0.0,0.0,0.0,0.0,0.0,0.0,0.0,0.0,0.0,0.0,0.0,0.0,0.0,0.0,0.0,0.0,0.0,0.0,0.0,0.0,0.0,0.0,0.0,0.0,0.0,0.0,0.0,0.0,0.0,0.0,0.0,0.0,0.0,0.0,0.0,0.0,0.0,0.0,0.0,0.0,0.0,0.0,0.0,0.0,0.0,0.0,0.0,0.0,0.0,0.5389,0.4812,0.0,0.0,0.0,0.0,0.0,0.0,0.0,0.0,0.0,0.0,0.0,0.0,0.0,0.0,0.0,0.0,0.0,0.0,0.0,0.0,0.0,0.0,0.0,0.0,0.0,0.0,0.0,0.0,0.0,0.0,0.0,0.0,0.0,0.0,0.0,0.0,0.0,-0.1104,-0.0722,-0.0343,0.0,0.0,0.0,0.0,0.0,0.0,0.0,0.0,0.0,0.0,0.0,0.0,0.0,0.0,0.0,0.0,0.0,0.0,0.0,0.0,0.0,0.0,0.0,0.0,0.0,0.0,0.0,0.0,0.0,0.0,0.0,0.0,0.0,0.0,0.0,0.0,0.0,0.0,0.0,0.0,0.0,0.0,0.0,0.0,0.0,0.0,0.0,0.0,0.0,0.0,0.0,0.0,0.0,0.0,0.0,0.0,0.0,0.0,0.0,0.0,0.0,0.0,0.0,0.0,0.0,0.0,0.0,0.0,0.0,0.0,0.0,0.0,0.0,0.0,0.5528,0.5223,0.0,0.0,0.0,0.0,0.0,0.0,0.0,0.0,0.0,0.0,0.0,0.0,0.0,0.0,0.0,0.0,0.0,0.0,0.0,0.0,0.0,0.0,0.0,-0.4505,-0.4505,-0.4505,-0.389,-0.3511,-0.3511,0.0,0.0,0.0,0.0,0.0,-0.2383,-0.202,-0.1581,-0.1094,-0.0976,-0.06,0.0,0.0,0.0,0.0,0.0,0.0,0.0,0.0,0.0,0.0,0.0,0.0,0.0,0.0,0.0,0.0,0.0,0.0,0.0,0.0,0.0,0.0,0.0,0.0,0.0,0.0,0.0,0.0,0.0,0.0,0.0,0.0,0.0,0.0,0.0,0.0,0.0,0.0,0.0,0.0,0.0,0.0,0.0,0.0,0.0,0.0,0.0,0.0,0.0,0.0,0.0,0.0,0.0,0.0,0.0,0.0,0.0,0.0,0.0,0.0,0.0,0.0,0.0,0.0,0.0,0.0,0.0,0.0,0.574,0.5838,0.5942,0.6064,0.6112,0.6105,0.6003,0.6012,0.6093,0.5602,0.0,0.0,0.0,0.0,0.0,0.0,0.0,0.0,0.0,0.0,0.0,0.0,0.0,0.0,0.0,0.0,0.0,0.0,0.0,-0.4505,-0.4505,-0.4505,-0.4505,-0.4505,-0.4408,-0.4346,-0.4346,0.0,0.0,0.0,0.0,-0.2494,-0.3132,-0.1279,-0.0563,-0.1095,-0.0465,-0.0088,0.0,0.0,0.0,0.0,0.0,0.0,0.0,0.0,0.0,0.0,0.0,0.0,0.0,0.0,0.0,0.0,0.0,0.0,0.0,0.0,0.0,0.0,0.0,0.0,0.0,0.0,0.0,0.0,0.0,0.0,0.0,0.0,0.0,0.0,0.0,0.0,0.0,0.0,0.0,0.0,0.0,0.0,0.0,0.0,0.0,0.0,0.0,0.0,0.4879,0.5289,0.0,0.0,0.0,0.0,0.0,0.0,0.0,0.0,0.0,0.0,0.0,0.0,0.0,0.5491,0.5491,0.6173,0.6525,0.6532,0.7054,0.7319,0.7333,0.7353,0.7366,0.7333,0.681,0.0,0.6614,0.6647,0.0,0.0,0.0,0.0,0.0,0.0,0.0,0.0,0.0,0.0,0.0,0.0,0.0,0.0,0.0,0.0,0.0,0.0,0.0,0.0,0.0,-0.4627,-0.4721,-0.4721,-0.49,-0.4928,-0.4742,-0.4796,0.0,0.0,-0.4045,-0.3861,-0.4188,-0.2762,-0.1724,-0.1102,-0.0363,0.0,0.0,0.0,0.0,0.0,0.0,0.0,0.0,0.0,0.0,0.0,0.0,0.0,0.0,0.0,0.0,0.0,0.0,0.0,0.0,0.0,0.0,0.0,0.0,0.0,0.0,0.0,0.0,0.0,0.0,0.0,0.0,0.0,0.0,0.0,0.0,0.0,0.0,0.0,0.0,0.0,0.0,0.0,0.0,0.0,0.0,0.0,0.0,0.407,0.4672,0.4873,0.4886,0.4877,0.0,0.0,0.0,0.0,0.0,0.0,0.0,0.0,0.0,0.5732,0.6132,0.6363,0.6438,0.7034,0.7344,0.7432,0.7695,0.7889,0.8002,0.8002,0.8042,0.8079,0.7814,0.7706,0.7651,0.7048,0.683,0.687,0.0,0.0,0.0,0.0,0.6044,0.6316,0.0,0.0,0.0,0.0,0.0,0.0,0.0,0.0,0.0,0.0,0.0,0.0,-0.4607,-0.485,-0.5033,-0.5033,-0.5253,-0.5266,-0.4977,-0.5009,-0.4943,-0.4715,-0.457,-0.4518,-0.4571,-0.3548,-0.2293,-0.0813,-0.0277,0.0,0.0,0.0,0.0,0.0,0.0,0.0,0.0,0.0,0.0,0.0,0.0,0.0,0.0,0.0,0.0,0.0,0.0,0.0,0.0,0.0,0.0,0.0,0.0,0.0,0.0,0.0,0.0,0.0,0.0,0.0,0.0,0.0,0.0,0.0,0.0,0.0,0.0,0.0,0.0,0.0,0.0,0.0,0.0,0.0,0.0,0.0,0.0,0.3702,0.4349,0.4169,0.4406,0.4513,0.0,0.0,0.0,0.0,0.0,0.0,0.3567,0.4605,0.5272,0.5388,0.586,0.615,0.6265,0.6623,0.688,0.6979,0.6979,0.7261,0.7775,0.7382,0.7463,0.7947,0.7947,0.7947,0.7884,0.7383,0.7224,0.729,0.7175,0.7014,0.6831,0.677,0.6904,0.7127,0.0,0.0,0.0,0.0,0.0,0.0,0.0,0.0,0.0,0.0,0.0,-0.4882,-0.4882,-0.5178,-0.5371,-0.5371,-0.5385,-0.5307,-0.5096,-0.4984,-0.4842,-0.4715,-0.386,-0.3468,-0.3655,-0.2195,-0.0967,-0.0063,-0.0021,0.0,0.0,0.0,0.0,0.0,0.0,0.0,0.0,0.0,0.0,0.0,0.0,0.0,0.0,0.0,0.0,0.0,0.0,0.0,0.0,0.0,0.0,0.0,0.0,0.0,0.0,0.0,0.0,0.0,0.0,0.0,0.0,0.0,0.0,0.0,0.0,0.0,0.0,0.0,0.0,0.0,0.0,0.0,0.0,0.0,0.0,0.0,0.0,0.0,0.0,0.3247,0.4185,0.0,0.0,0.0,0.0,0.2075,0.2182,0.2481,0.2925,0.3023,0.3257,0.3713,0.3867,0.3949,0.3952,0.4106,0.4199,0.4202,0.4202,0.497,0.6348,0.4895,0.5031,0.6411,0.6411,0.6411,0.6511,0.7864,0.8423,0.8389,0.7929,0.7753,0.7678,0.71,0.7256,0.7746,0.0,0.0,0.0,0.0,0.0,0.0,0.0,0.0,-0.4505,-0.4505,-0.4728,-0.4903,-0.4903,-0.5352,-0.5661,-0.5661,-0.5926,-0.5988,-0.5707,-0.5552,-0.542,-0.5294,-0.4755,-0.4368,-0.4177,-0.3042,-0.2029,-0.1154,-0.0371,0.0,0.0,0.0,0.0,0.0,0.0,0.0,0.0,0.0,0.0,0.0,0.0,0.0,0.0,0.0,0.0,0.0,0.0,0.0,0.0,0.0,0.0,0.0,0.0,0.0,0.0,0.0,0.0,0.0,0.0,0.0,0.0,0.0,0.0,0.0,0.0,0.0,0.0,0.0,0.0,0.0,0.0,0.0,0.0,0.0,0.0,0.0,0.0,0.0,0.0,0.3416,0.3109,0.0,0.2762,0.1666,0.1098,0.1397,0.1815,0.2145,0.2312,0.3147,0.3688,0.3863,0.3914,0.3965,0.4063,0.4115,0.4198,0.4318,0.4318,0.462,0.512,0.4584,0.4613,0.5149,0.5149,0.5745,0.6735,0.7241,0.7889,0.8492,0.8303,0.8241,0.8228,0.8119,0.8182,0.8397,0.0,0.0,0.0,0.0,0.0,0.0,0.0,-0.4505,-0.4525,-0.462,-0.4884,-0.5108,-0.5193,-0.5657,-0.5994,-0.6023,-0.6321,-0.6369,-0.6032,-0.5822,-0.5616,-0.5372,-0.5264,-0.5004,-0.4587,-0.4,-0.329,-0.2399,-0.1646,-0.1291,-0.1268,-0.0868,-0.0665,-0.0665,-0.0206,0.0,0.0,0.0,0.0,0.0,0.0,0.0,0.0,0.0,0.0,0.0,0.0,0.0,0.0,0.0,0.0,0.0,0.0,0.0,0.0,0.0,0.0,0.0,0.0,0.0,0.0,0.0,0.0,0.0,0.0,0.0,0.0,0.0,0.0,0.0,0.0,0.0,0.0,0.0,0.0,0.0,0.0,0.2495,0.2491,0.2406,0.2045,0.1842,0.1913,0.0749,0.0213,0.0691,0.1086,0.1333,0.1333,0.2178,0.2652,0.2652,0.2655,0.2686,0.2773,0.2787,0.2854,0.2974,0.2974,0.325,0.3694,0.3196,0.3255,0.3725,0.3728,0.4328,0.5382,0.6459,0.7312,0.801,0.8594,0.8811,0.8825,0.8899,0.8933,0.8947,0.0,0.0,0.0,0.0,0.0,0.0,-0.4505,-0.4505,-0.46,-0.4848,-0.5185,-0.5501,-0.5752,-0.6096,-0.6361,-0.6477,-0.6498,-0.6375,-0.6039,-0.5759,-0.5399,-0.4936,-0.5239,-0.5211,-0.4773,-0.4878,-0.4505,-0.3664,-0.3763,-0.3802,-0.3783,-0.2614,-0.2046,-0.1951,-0.0643,-0.0048,0.0,0.0,0.0,0.0,0.0,0.0,0.0,0.0,0.0,0.0,0.0,0.0,0.0,0.0,0.0,0.0,0.0,0.0,0.0,0.0,0.0,0.0,0.0,0.0,0.0,0.0,0.0,0.0,0.0,0.0,0.0,0.0,0.0,0.0,0.0,0.0,0.0,0.0,0.0,0.0,0.159,0.1726,0.1347,0.0185,0.1056,0.1297,0.0104,0.0,0.0,0.0,0.0,0.0,0.0,0.0,0.0,0.0,0.0,0.0,0.0,0.0,0.0,0.0,0.0,0.0737,0.209,0.0649,0.0777,0.2119,0.2136,0.218,0.2533,0.559,0.69,0.7168,0.8771,0.941,0.941,0.9417,0.9424,0.9424,0.0,0.0,0.0,0.0,0.0,0.0,-0.4505,-0.4505,-0.4518,-0.4607,-0.5071,-0.5426,-0.5508,-0.6074,-0.647,-0.6491,-0.6675,-0.6634,-0.6239,-0.5915,-0.5596,-0.5273,-0.563,-0.5974,-0.6279,-0.5709,-0.5348,-0.5199,-0.4363,-0.3953,-0.3933,-0.36,-0.2922,-0.1975,-0.1618,-0.0905,0.0,0.0,0.0,0.0,0.0,0.0,0.0,0.0,0.0,0.0,0.0,0.0,0.0,0.0,0.0,0.0,0.0,0.0,0.0,0.0,0.0,0.0,0.0,0.0,0.0,0.0,0.0,0.0,0.0,0.0,0.0,0.0,0.0,0.0,0.0,0.0,0.0,0.0,0.0805,0.0823,0.2335,0.1815,0.1304,0.1296,0.0821,0.0367,0.0026,0.0,0.0,0.0,0.0,0.0,0.0,0.0,0.0,0.0,0.0,0.0,0.0,0.0,0.0,0.0,0.0,0.0212,0.0588,0.0186,0.0217,0.0619,0.0595,0.1997,0.4373,0.5236,0.7079,0.936,0.9403,0.941,0.9424,0.9503,0.9612,0.9639,0.0,0.0,0.0,0.0,0.0,0.0,-0.4505,-0.4505,-0.4539,-0.4647,-0.5098,-0.544,-0.5552,-0.6117,-0.6518,-0.658,-0.679,-0.6688,-0.62,-0.5838,-0.5695,-0.5856,-0.6139,-0.6539,-0.7102,-0.6657,-0.6473,-0.6549,-0.5908,-0.5594,-0.557,-0.5085,-0.4134,-0.2823,-0.2241,-0.1244,0.0,0.0,0.0,0.0,0.0,0.0,0.0,0.0,0.0,0.0,0.0,0.0,0.008,0.058,0.0,0.0,0.0,0.0,0.0,0.0,0.0,0.0,0.0,0.0,0.0,0.0,0.0,0.0,0.0,0.0,0.0,0.0,0.0,0.0,0.0,0.0,0.0,0.0,0.0405,0.0386,0.1537,0.1079,0.0752,0.1001,0.0428,0.0,0.0,0.0,0.0,0.0,0.0,0.0,0.0,0.0,0.0,0.0,0.0,0.0,0.0,0.0,0.0,0.0,0.0,0.0,0.0,0.0,0.0,0.0,0.0,0.1116,0.3005,0.3729,0.5198,0.7228,0.0,0.0,0.0,0.0,0.9944,0.9964,0.0,0.0,0.0,0.0,0.0,0.0,-0.4505,-0.4505,-0.46,-0.4862,-0.5192,-0.5515,-0.5793,-0.6246,-0.658,-0.6715,-0.6796,-0.6607,-0.6025,-0.56,-0.5719,-0.6484,-0.6627,-0.6926,-0.743,-0.7556,-0.7631,-0.7651,-0.7773,-0.781,-0.7793,-0.6729,-0.5422,-0.3942,-0.2764,-0.1385,0.0,0.0,0.0,0.0,0.0,0.0,0.0,0.0,0.0,0.0,0.0,0.0,0.017,0.1242,0.0,0.0,0.0,0.0,0.0,0.0,0.0,0.0,0.0,0.0,0.0,0.0,0.0,0.0,0.0,0.0,0.0,0.0,0.0,0.0,0.0,0.0,0.0,0.0,0.0,0.0,0.0,0.0,0.0,0.0,0.0,0.0,0.0,0.0,0.0,0.0,0.0,0.0,0.0,0.0,0.0,0.0,0.0,0.0,0.0,0.0,0.0,0.0,0.0,0.0,0.0,0.0,0.0,0.0,0.0,0.0127,0.0429,0.1909,0.2651,0.3299,0.7911,0.9838,1.0003,0.9937,1.0097,1.0356,0.0,0.0,0.0,0.0,0.0,0.0,-0.4505,-0.4505,-0.46,-0.4862,-0.5192,-0.5539,-0.5924,-0.639,-0.6715,-0.685,-0.6688,-0.6375,-0.5874,-0.541,-0.5599,-0.6614,-0.6681,-0.7021,-0.7712,-0.7753,-0.7804,-0.7932,-0.7959,-0.7973,-0.7948,-0.7726,-0.6326,-0.3989,-0.3742,-0.2264,0.0,0.0,0.0,0.0,0.0,0.0,0.0,0.0,0.0,0.0,0.0,0.0,0.0046,0.0268,0.1081,0.2032,0.2266,0.2934,0.0,0.0,0.0,0.0,0.0,0.0,0.0,0.0,0.0,0.0,0.0,0.0,0.0,0.0,0.0,0.0,0.0,0.0,0.0,0.0,0.0,0.0,0.0,0.0,0.0,0.0,0.0,0.0,0.0,0.0,0.0,0.0,0.0,0.0,0.0,0.0,0.0,0.0,0.0,0.0,0.0,0.0,0.0,0.0,0.0,0.0,0.0,0.0,0.0,0.0,0.0,0.083,0.2206,0.2522,0.3517,0.4922,0.5663,0.6914,0.8221,0.7742,0.8848,1.0568,0.0,0.0,0.0,0.0,0.0,0.0,-0.4505,-0.4505,-0.4545,-0.4681,-0.4967,-0.5311,-0.5759,-0.601,-0.6268,-0.6566,-0.6335,-0.6158,-0.6158,-0.5996,-0.6247,-0.7029,-0.7177,-0.7428,-0.7801,-0.7864,-0.7939,-0.7988,-0.7988,-0.7988,-0.7988,-0.7988,-0.693,-0.4972,-0.4293,-0.2889,-0.0958,-0.0278,0.0,0.0,0.0,0.0,0.0,0.0,0.0,0.0,0.0,0.0,0.0098,0.0688,0.1393,0.2111,0.2701,0.3414,0.3726,0.0,0.0,0.0,0.0,0.0,0.0,0.0,0.0,0.0,0.0,0.0,0.0,0.0,0.0,0.1161,0.0729,0.0,0.0,0.0,0.0,0.0,0.0,0.0,0.0,0.0,0.0,0.0,0.0,0.0,0.0,0.0,0.0,0.0,0.0,0.0,0.0,0.0,0.0,0.0,0.0,0.0,0.0,0.0,0.0,0.0,0.0,0.0,0.0,0.0,0.0,0.0515,0.1338,0.1338,0.1894,0.2764,0.3584,0.5587,0.813,0.8817,0.9853,1.09,0.0,0.0,0.0,0.0,0.0,0.0,-0.4505,-0.4505,-0.4525,-0.4573,-0.4769,-0.5085,-0.5583,-0.562,-0.5729,-0.6035,-0.5913,-0.5956,-0.6335,-0.6566,-0.6912,-0.7416,-0.7672,-0.7804,-0.7831,-0.7952,-0.7988,-0.7988,-0.7988,-0.7988,-0.7988,-0.7988,-0.716,-0.5577,-0.4493,-0.3115,-0.1536,-0.0454,0.0,0.0,0.0,0.0,0.0,0.0,0.0,0.0,0.0,0.0,0.0151,0.1115,0.1692,0.2158,0.3136,0.3712,0.3729,0.2404,0.1999,0.0,0.0,0.0,0.0,0.0,0.0,0.0,0.0,0.3263,0.249,0.2229,0.1566,0.1047,0.1054,0.0483,0.0,0.0,0.0,0.0,0.0,0.0,0.0,0.0,0.0,0.0,0.0,0.0,0.0,0.0,0.0,0.0,0.0,0.0,0.0,0.0,0.0,0.0,0.0,0.0,0.0,0.0,0.0,0.0,0.0,0.0,0.0,0.0,0.0,0.0,0.0,0.0,0.0,0.0246,0.2564,0.5274,0.8073,0.9966,1.0917,1.12,0.0,0.0,0.0,0.0,0.0,0.0,0.0,0.0,-0.4586,-0.4815,-0.4882,-0.5119,-0.5711,-0.5664,-0.5501,-0.5261,-0.5572,-0.582,-0.5874,-0.6396,-0.6959,-0.755,-0.7726,-0.7851,-0.7986,-0.7982,-0.7988,-0.7988,-0.7988,-0.7988,-0.7988,-0.7988,-0.665,-0.4218,-0.4067,-0.2588,-0.0202,-0.0076,0.0,0.0,0.0,0.0,0.0,0.0,0.0,0.0,0.0,0.0,0.0025,0.0151,0.1006,0.2012,0.2158,0.3032,0.3737,0.2404,0.1997,0.1711,0.0364,0.0756,0.1603,0.1833,0.2566,0.295,0.0,0.1889,0.1747,0.054,0.0231,0.0134,0.0134,0.0055,0.0,0.0,0.0,0.0,0.0,0.0,0.0,0.0,0.0,0.0,0.0,0.0,0.0,0.0,0.0,0.0,0.0,0.0,0.0,0.0,0.0,0.0,0.0,0.0,0.0,0.0,0.0,0.0,0.0,0.0,0.0,0.0,0.0,0.0,0.0,0.0,0.0,0.0357,0.4053,0.58,0.6476,0.8163,0.9838,1.12,0.0,0.0,0.0,0.0,0.0,0.0,0.0,0.0,-0.4539,-0.4647,-0.4668,-0.4899,-0.5498,-0.5511,-0.5314,-0.4911,-0.53,-0.5634,-0.5793,-0.6505,-0.7127,-0.7584,-0.7797,-0.7952,-0.7988,-0.7988,-0.7988,-0.7988,-0.7988,-0.7988,-0.7988,-0.721,-0.6226,-0.5097,-0.3541,-0.2213,-0.1109,-0.0328,0.0,0.0,0.0,0.0,0.0,0.0,0.0,0.0,0.0,0.0,0.0,0.0,0.0384,0.0844,0.0848,0.176,0.2569,0.1231,0.1387,0.187,0.131,0.0854,0.0915,0.2477,0.2122,0.1433,0.1665,0.1256,0.0674,0.0107,0.0,0.0,0.0,0.0,0.0,0.0,0.0,0.0,0.0,0.0,0.0,0.0,0.0,0.0,0.0,0.0,0.0,0.0,0.0,0.0,0.0,0.0,0.0,0.0,0.0,0.0,0.0,0.0,0.0,0.0,0.0,0.0,0.0,0.0,0.0,0.0,0.0,0.0,0.0,0.0,0.0,0.0407,0.4383,0.5964,0.6374,0.9318,1.0953,1.1723,0.0,0.0,0.0,0.0,0.0,0.0,0.0,0.0,0.0,0.0,-0.4505,-0.469,-0.516,-0.5283,-0.5151,-0.4742,-0.5132,-0.5521,-0.5779,-0.6586,-0.7215,-0.7584,-0.7858,-0.7988,-0.7988,-0.7988,-0.7988,-0.7988,-0.764,-0.7434,-0.7409,-0.6077,-0.5247,-0.4822,-0.2867,-0.1788,-0.1385,-0.0404,0.0,0.0,0.0,0.0,0.0,0.0,0.0,0.0,0.0,0.0,0.0,0.0,0.0,0.0,0.0,0.0676,0.1259,0.0282,0.0683,0.1441,0.1443,0.0729,0.0459,0.2408,0.1429,0.0241,0.1231,0.0688,0.0,0.0,0.0,0.0,0.0,0.0,0.0,0.0,0.0,0.0,0.0,0.0,0.0,0.0,0.0,0.0,0.0,0.0,0.0,0.0,0.0,0.0,0.0,0.0,0.0,0.0,0.0,0.0,0.0,0.0,0.0,0.0,0.0,0.0,0.0,0.0,0.0,0.0,0.0,0.0,0.0,0.0,0.0341,0.121,0.4638,0.6378,0.7335,1.0717,1.1999,1.2098,0.0,0.0,0.0,0.0,0.0,0.0,0.0,0.0,0.0,0.0,0.0,-0.4552,-0.4708,-0.495,-0.4997,-0.4714,-0.5132,-0.5521,-0.5779,-0.6492,-0.7114,-0.7584,-0.7858,-0.7988,-0.7988,-0.7988,-0.7988,-0.7988,-0.6706,-0.6052,-0.6032,-0.4693,-0.3366,-0.2113,-0.2037,-0.1284,-0.005,-0.0025,0.0,0.0,0.0,0.0,0.0,0.0,0.0,0.0,0.0,0.0,0.0,0.0,0.0,0.0,0.0,0.0023,0.0047,0.0023,0.0022,0.0064,0.0068,0.0023,0.0023,0.0101,0.0053,0.0,0.0056,0.0028,0.0,0.0,0.0,0.0,0.0,0.0,0.0,0.0,0.0,0.0,0.0,0.0,0.0,0.0,0.0,0.0,0.0,0.0,0.0,0.0,0.0,0.0,0.0,0.0,0.0,0.0,0.0,0.0,0.0,0.0,0.0,0.0,0.0,0.0,0.0,0.0,0.0,0.0,0.0,0.0,0.0,0.0,0.1173,0.321,0.5202,0.736,0.9546,1.1542,1.222,1.2098,0.0,0.0,0.0,0.0,0.0,0.0,0.0,0.0,0.0,0.0,0.0,0.0,0.0,0.0,0.0,0.0,-0.5033,-0.5237,-0.5637,-0.544,-0.5501,-0.5935,-0.5557,-0.5772,-0.6656,-0.5797,-0.5772,-0.6681,-0.5322,-0.4668,-0.4643,-0.3291,-0.244,-0.1962,-0.1058,-0.0432,0.0,0.0,0.0,0.0,0.0,0.0,0.0,0.0,0.0,0.0,0.0,0.0,0.0,0.0,0.0,0.0,0.0,0.0,0.0,0.0,0.0,0.0,0.0,0.0,0.0,0.0,0.0,0.0,0.0,0.0,0.0,0.0,0.0,0.0,0.0,0.0,0.0,0.0,0.0,0.0,0.0,0.0,0.0,0.0,0.0,0.0,0.0,0.0,0.0,0.0,0.0,0.0,0.0,0.0,0.0,0.0,0.0,0.0,0.0,0.0,0.0,0.0,0.0,0.0,0.0,0.0,0.0,0.0,0.0,0.0,0.0,0.0,0.124,0.3324,0.537,0.7508,0.9629,1.1689,1.24,1.2352,0.0,0.0,0.0,0.0,0.0,0.0,0.0,0.0,0.0,0.0,0.0,0.0,0.0,0.0,0.0,0.0,0.0,-0.5087,-0.5498,-0.5139,-0.5083,-0.5505,-0.5171,-0.5359,-0.6239,-0.5566,-0.5625,-0.6507,-0.4823,-0.3989,-0.3964,-0.2138,-0.1284,-0.126,-0.0381,0.0,0.0,0.0,0.0,0.0,0.0,0.0,0.0,0.0,0.0,0.0,0.0,0.0,0.0,0.0,0.0,0.0,0.0,0.0,0.0,0.0,0.0,0.0,0.0,0.0,0.0,0.0,0.0,0.0,0.0,0.0,0.0,0.0,0.0,0.0,0.0,0.0,0.0,0.0,0.0,0.0,0.0,0.0,0.0,0.0,0.0,0.0,0.0,0.0,0.0,0.0,0.0,0.0,0.0,0.0,0.0,0.0,0.0,0.0,0.0,0.0,0.0,0.0,0.0,0.0,0.0,0.0,0.0,0.0,0.0,0.0,0.0,0.0,0.1686,0.4381,0.5747,0.8011,1.0663,1.1992,1.2501,1.2501,0.0,0.0,0.0,0.0,0.0,0.0,0.0,0.0,0.0,0.0,0.0,0.0,0.0,0.0,0.0,0.0,0.0,0.0,-0.5239,-0.5337,-0.5578,-0.6015,-0.6249,-0.6384,-0.6446,-0.6873,-0.7106,-0.7128,-0.4945,-0.3831,-0.3732,-0.1199,0.0,0.0,0.0,0.0,0.0,0.0,0.0,0.0,0.0,0.0,0.0,0.0,0.0,0.0,0.0,0.0,0.0,0.0,0.0,0.0,0.0,0.0,0.0,0.0,0.0,0.0,0.0,0.0,0.0,0.0,0.0,0.0,0.0,0.0,0.0,0.0,0.0,0.0,0.0,0.0,0.0,0.0,0.0,0.0,0.0,0.0,0.0,0.0,0.0,0.0,0.0,0.0,0.0,0.0,0.0,0.0,0.0,0.0,0.0,0.0,0.0,0.0,0.0,0.0,0.0,0.0,0.0,0.0,0.0,0.0,0.0,0.0,0.0,0.0,0.0,0.0,0.2429,0.6137,0.6137,0.8633,1.2185,1.2185,1.2263,1.2347,0.0,0.0,0.0,0.0,0.0,0.0,0.0,0.0,0.0,0.0,0.0,0.0,0.0,0.0,0.0,0.0,0.0,0.0,-0.3421,-0.268,-0.2341,-0.2566,-0.2007,-0.2181,-0.3183,-0.2983,-0.3031,-0.3371,-0.2447,-0.1653,-0.1015,-0.031,0.0,0.0,0.0,0.0,0.0,0.0,0.0,0.0,0.0,0.0,0.0,0.0,0.0,0.0,0.0,0.0,0.0,0.0,0.0,0.0,0.0,0.0,0.0,0.0,0.0,0.0,0.0,0.0,0.0,0.0,0.0,0.0,0.0,0.0,0.0,0.0,0.0,0.0,0.0,0.0,0.0,0.0,0.0,0.0,0.0,0.0,0.0,0.0,0.0,0.0,0.0,0.0,0.0,0.0,0.0,0.0,0.0,0.0,0.0,0.0,0.0,0.0,0.0,0.0,0.0,0.0,0.0,0.0,0.0,0.0,0.0,0.0,0.0,0.0,0.0,0.0,0.1529,0.3912,0.3912,0.5552,0.7894,0.7894,0.8866,1.0192,0.0,0.0,0.0,0.0,0.0,0.0,0.0,0.0,0.0,0.0,0.0,0.0,0.0,0.0,0.0,0.0,0.0,0.0,0.0,-0.2051,-0.1746,-0.1829,-0.1423,-0.1539,-0.2291,-0.2244,-0.2329,-0.2561,-0.192,-0.1356,-0.0861,-0.0273,0.0,0.0,0.0,0.0,0.0,0.0,0.0,0.0,0.0,0.0,0.0,0.0,0.0,0.0,0.0,0.0,0.0,0.0,0.0,0.0,0.0,0.0,0.0,0.0,0.0,0.0,0.0,0.0,0.0,0.0,0.0,0.0,0.0,0.0,0.0,0.0,0.0,0.0,0.0,0.0,0.0,0.0,0.0,0.0,0.0,0.0,0.0,0.0,0.0,0.0,0.0,0.0,0.0,0.0,0.0,0.0,0.0,0.0,0.0,0.0,0.0,0.0,0.0,0.0,0.0,0.0,0.0,0.0,0.0,0.0,0.0,0.0,0.0,0.0,0.0,0.0,0.1215,0.3091,0.3091,0.442,0.641,0.7306,0.84,0.9532,0.0,0.0,0.0,0.0,0.0,0.0,0.0,0.0,0.0,0.0,0.0,0.0,0.0,0.0,0.0,0.0,0.0,0.0,0.0,0.0,-0.2164,-0.2175,-0.2276,-0.2336,-0.2347,-0.2847,-0.3045,-0.2865,-0.2223,-0.1848,-0.1709,-0.0537,0.0,0.0,0.0,0.0,0.0,0.0,0.0,0.0,0.0,0.0,0.0,0.0,0.0,0.0,0.0,0.0,0.0,0.0,0.0,0.0,0.0,0.0,0.0,0.0,0.0,0.0,0.0,0.0,0.0,0.0,0.0,0.0,0.0,0.0,0.0,0.0,0.0,0.0,0.0,0.0,0.0,0.0,0.0,0.0,0.0,0.0,0.0,0.0,0.0,0.0,0.0,0.0,0.0,0.0,0.0,0.0,0.0,0.0,0.0,0.0,0.0,0.0,0.0,0.0,0.0,0.0,0.0,0.0,0.0,0.0,0.0,0.0,0.0,0.0,0.0,0.0,0.1059,0.2701,0.2701,0.399,0.6098,0.789,0.8905,0.9648,0.0,0.0,0.0,0.0,0.0,0.0,0.0,0.0,0.0,0.0,-0.251,-0.2213,0.0,0.0,0.0,0.0,0.0,0.0,0.0,0.0,0.0,-0.0435,-0.0453,-0.0476,-0.047,-0.1262,-0.1305,-0.0568,-0.1136,-0.105,-0.0336,-0.0112,0.0,0.0,0.0,0.0,0.0,0.0,0.0,0.0,0.0,0.0,0.0,0.0,0.0,0.0,0.0,0.0,0.0,0.0,0.0,0.0,0.0,0.0,0.0,0.0,0.0,0.0,0.0,0.0,0.0,0.0,0.0,0.0,0.0,0.0,0.0,0.0,0.0,0.0,0.0,0.0,0.0,0.0,0.0,0.0,0.0,0.0,0.0,0.0,0.0,0.0,0.0,0.0,0.0,0.0,0.0,0.0,0.0,0.0,0.0,0.0,0.0,0.0,0.0,0.0,0.0,0.0,0.0,0.0,0.0,0.0,0.0,0.0,0.0,0.0,0.0,0.0,0.0196,0.0549,0.0549,0.1802,0.3716,0.4068,0.6407,0.9454,0.0,0.0,0.0,0.0,0.0,0.0,0.0,-0.2202,-0.2065,-0.1671,-0.1627,-0.1491,-0.114,-0.0812,-0.0454,0.0,0.0,0.0,0.0,0.0,0.0,0.0,0.0,0.0,0.0,-0.0409,-0.0424,0.0,0.0,-0.0406,0.0,0.0,0.0,0.0,0.0,0.0,0.0,0.0,0.0,0.0,0.0,0.0,0.0,0.0,0.0,0.0,0.0,0.0,0.0,0.0,0.0,0.0,0.0,0.0,0.0,0.0,0.0,0.0,0.0,0.0,0.0,0.0,0.0,0.0,0.0,0.0,0.0,0.0,0.0,0.0,0.0,0.0,0.0,0.0,0.0,0.0,0.0,0.0,0.0,0.0,0.0,0.0,0.0,0.0,0.0,0.0,0.0,0.0,0.0,0.0,0.0,0.0,0.0,0.0,0.0,0.0,0.0,0.0,0.0,0.0,0.0,0.0,0.0,0.0,0.0,0.0,0.0,0.0,0.0,0.0113,0.1201,0.2232,0.3365,0.5549,0.7686,0.9659,0.0,0.0,0.0,0.0,0.0,0.0,0.0,-0.1726,-0.1524,-0.0937,-0.0866,-0.0871,-0.0871,-0.0343,0.0,0.0,0.0,0.0,0.0,0.0,0.0,0.0,0.0,0.0,0.0,0.0,0.0,0.0,0.0,0.0,0.0,0.0,0.0,0.0,0.0,0.0,0.0,0.0,0.0,0.0,0.0,0.0,0.0,0.0,0.0,0.0,0.0,0.0,0.0,0.0,0.0,0.0,0.0,0.0,0.0,0.0,0.0,0.0,0.0,0.0,0.0,0.0,0.0,0.0,0.0,0.0,0.0,0.0,0.0,0.0,0.0,0.0,0.0,0.0,0.0,0.0,0.0,0.0,0.0,0.0,0.0,0.0,0.0,0.0,0.0,0.0,0.0,0.0,0.0,0.0,0.0,0.0,0.0,0.0,0.0,0.0,0.0,0.0,0.0,0.0,0.0,0.0,0.0,0.0,0.0,0.0,0.0,0.0,0.0,0.018,0.1798,0.3018,0.4238,0.7568,0.9444,1.0577,0.0,0.0,0.0,0.0,0.0,0.0,0.0,-0.0201,-0.0176,-0.0103,-0.0109,-0.0096,-0.0096,-0.0033,0.0,0.0,0.0,0.0,0.0,0.0,0.0,0.0,0.0,0.0,0.0,0.0,0.0,0.0,0.0,0.0,0.0,0.0,0.0,0.0,0.0,0.0,0.0,0.0,0.0,0.0,0.0,0.0,0.0,0.0,0.0,0.0,0.0,0.0,0.0,0.0,0.0,0.0,0.0,0.0,0.0,0.0,0.0,0.0,0.0,0.0,0.0,0.0,0.0,0.0,0.0,0.0,0.0,0.0,0.0,0.0,0.0,0.0,0.0,0.0,0.0,0.0,0.0,0.0,0.0,0.0,0.0,0.0,0.0,0.0,0.0,0.0,0.0,0.0,0.0,0.0,0.0,0.0,0.0,0.0,0.0,0.0,0.0,0.0,0.0,0.0,0.0,0.0,0.0,0.0,0.0,0.0,0.0,0.0,0.0,0.0036,0.0192,0.2719,0.6231,0.663,0.9278,1.2695,0.0,0.0,0.0,0.0,0.0,0.0,0.0,0.0,0.0,0.0,0.0,0.0,0.0,0.0,0.0,0.0,0.0,0.0,0.0,0.0,0.0,0.0,0.0,0.0,0.0,0.0,0.0,0.0,0.0,0.0,0.0,0.0,0.0,0.0,0.0,0.0,0.0,0.0,0.0,0.0,0.0,0.0,0.0,0.0,0.0,0.0,0.0,0.0,0.0,0.0,0.0,0.0,0.0,0.0,0.0,0.0,0.0,0.0,0.0,0.0,0.0,0.0,0.0,0.0,0.0,0.0,0.0,0.0,0.0,0.0,0.0,0.0,0.0,0.0,0.0,0.0,0.0,0.0,0.0,0.0,0.0,0.0,0.0,0.0,0.0,0.0,0.0,0.0,0.0,0.0,0.0,0.0,0.0,0.0,0.0,0.0,0.0,0.0,0.0,0.0,0.0,0.0,0.0,0.0,0.0,0.0,0.0,0.0,0.0,0.0273,0.2888,0.4952,0.6803,0.9457,1.1579,1.3125,0.0,0.0,0.0,0.0,0.0,0.0,0.0,0.0,0.0,0.0,0.0,0.0,0.0,0.0,0.0,0.0,0.0,0.0,0.0,0.0,0.0,0.0,0.0,0.0,0.0,0.0,0.0,0.0,0.0,0.0,0.0,0.0,0.0,0.0,0.0,0.0,0.0,0.0,0.0,0.0,0.0,0.0,0.0,0.0,0.0,0.0,0.0,0.0,0.0,0.0,0.0,0.0,0.0,0.0,0.0,0.0,0.0,0.0,0.0,0.0,0.0,0.0,0.0,0.0,0.0,0.0,0.0,0.0,0.0,0.0,0.0,0.0,0.0,0.0,0.0,0.0,0.0,0.0,0.0,0.0,0.0,0.0,0.0,0.0,0.0,0.0,0.0,0.0,0.0,0.0,0.0,0.0,0.0,0.0,0.0,0.0,0.0,0.0,0.0,0.0,0.0,0.0,0.0,0.0,0.0,0.0,0.0,0.0,0.037,0.1288,0.4345,0.635,0.7922,1.0988,1.2625,1.3282,0.0,0.0,0.0,0.0,0.0,0.0,0.0,0.0,0.0,0.0,0.0,0.0,0.0,0.0,0.0,0.0,0.0,0.0,0.0,0.0,0.0,0.0,0.0,0.0,0.0,0.0,0.0,0.0,0.0,0.0,0.0,0.0,0.0,0.0,0.0,0.0,0.0,0.0,0.0,0.0,0.0,0.0,0.0,0.0,0.0,0.0,0.0,0.0,0.0,0.0,0.0,0.0,0.0,0.0,0.0,0.0,0.0,0.0,0.0,0.0,0.0,0.0,0.0,0.0,0.0,0.0,0.0,0.0,0.0,0.0,0.0,0.0,0.0,0.0,0.0,0.0,0.0,0.0,0.0,0.0,0.0,0.0,0.0,0.0,0.0,0.0,0.0,0.0,0.0,0.0,0.0,0.0,0.0,0.0,0.0,0.0,0.0,0.0,0.0,0.0,0.0,0.0,0.0,0.0,0.0,0.0,0.0,0.0,0.1295,0.3253,0.3307,0.6052,0.9994,1.0081,1.1523,1.3397,0.0,0.0,0.0,0.0,0.0,0.0,0.0,0.0,0.0,0.0,0.0,0.0,0.0,0.0,0.0,0.0,0.0,0.0,0.0,0.0,0.0,0.0,0.0,0.0,0.0,0.0,0.0,0.0,0.0,0.0,0.0,0.0,0.0,0.0039,0.0771,0.1134,0.0,0.0,0.0,0.0,0.0,0.0,0.2769,0.0,0.0,0.0,0.0,0.0,0.0,0.0,0.0,0.0,0.0,0.0,0.0,0.0,0.0,0.0,0.0,0.0,0.0,0.0,0.0,0.0,0.0,0.0,0.0,0.0,0.0,0.0,0.0,0.0,0.0,0.0,0.0,0.0,0.0,0.0,0.0,0.0,0.0,0.0,0.0,0.0,0.0,0.0,0.0,0.0,0.0,0.0,0.0,0.0,0.0,0.0,0.0,0.0,0.0,0.0,0.0,0.0,0.0,0.0,0.0,0.0,0.0,0.0,0.0108,0.1698,0.2724,0.3628,0.6727,0.8834,1.0255,1.1788,1.2812,1.3403,0.0,0.0,0.0,0.0,0.0,0.0,0.0,0.0,0.0,0.0,0.0,0.0,0.0,0.0,0.0,0.0,0.0,0.0,0.0,0.0,0.0,0.0,0.0,0.0,0.0,0.0,0.0,0.0,0.0,0.0216,0.0608,0.0608,0.0804,0.1194,0.1859,0.2249,0.0,0.0,0.0,0.0,0.0,0.0,0.3893,0.0,0.0,0.0,0.0,0.0,0.0,0.0,0.0,0.0,0.0,0.0,0.0,0.0,0.0596,0.0509,0.0113,0.0,0.0,0.0,0.0,0.0,0.0,0.0,0.0,0.0,0.0,0.0,0.0,0.0,0.0,0.0,0.0,0.0,0.0,0.0,0.0,0.0,0.0,0.0,0.0,0.0,0.0,0.0,0.0,0.0,0.0,0.0,0.0,0.0,0.0,0.0,0.0,0.0,0.0,0.0,0.0,0.0,0.0,0.0,0.0,0.0,0.0,0.0503,0.0,0.2793,0.4326,0.6097,0.9,1.0604,1.1523,1.2908,1.3403,1.3403,0.0,0.0,0.0,0.0,0.0,0.0,0.0,0.0,0.0,0.0,0.0,0.0,0.0,0.0,0.0,0.0,0.0,0.0,0.0,0.0,0.0,0.0,0.0,0.0,0.0,0.0077,0.0118,0.0118,0.0177,0.0725,0.1701,0.1701,0.2184,0.3096,0.3173,0.3323,0.0,0.0,0.0,0.0,0.0,0.0,0.0,0.0,0.0,0.0,0.0,0.0,0.0,0.0,0.0,0.0,0.0,0.0,0.0,0.0,0.0,0.0,0.0,0.0,0.0,0.0,0.0,0.0,0.0,0.0,0.0,0.0,0.0,0.0,0.0,0.0,0.0,0.0,0.0,0.0,0.0,0.0,0.0,0.0,0.0,0.0,0.0,0.0,0.0,0.0,0.0,0.0,0.0,0.0,0.0,0.0,0.0,0.0,0.0,0.0,0.0,0.0,0.0,0.0,0.0,0.0,0.0,0.0,0.0155,0.1438,0.3434,0.3676,0.6242,1.004,1.0255,1.157,1.3403,1.3403,1.3403,1.3403,0.0,0.0,0.0,0.0,0.0,0.0,0.0,0.0,0.0,0.0,0.0,0.0,0.0,0.0,0.0,0.0,0.0,0.0,0.0,0.0,0.0,0.0,0.0,0.0,0.0,0.0803,0.1215,0.1215,0.1994,0.2441,0.2588,0.2588,0.2721,0.2987,0.3798,0.481,0.0,0.0,0.0,0.0,0.0,0.0,0.0,0.0,0.0,0.0,0.4705,0.4001,0.0,0.0,0.0,0.0,0.0,0.0,0.0,0.0,0.16,0.1364,0.0288,0.0,0.0,0.0,0.0,0.0,0.0,0.0,0.0,0.0,0.0,0.0,0.0,0.0,0.0,0.0,0.0,0.0,0.0,0.0,0.0,0.0,0.0,0.0,0.0,0.0,0.0,0.0,0.0,0.0,0.0,0.0,0.0,0.0,0.0,0.0,0.0,0.0,0.0,0.0,0.0,0.0,0.0,0.0,0.0,0.0109,0.1825,0.2925,0.3678,0.7018,0.907,1.0255,1.1965,1.2949,1.3403,1.3403,1.3403,1.3417,0.0,0.0,0.0,0.0,0.0,0.0,0.0,0.0,0.0,0.0,0.0,0.0,0.0,0.0,0.0,0.0,0.0,0.0,0.0,0.0,0.0,0.0,0.0,0.0238,0.0722,0.1308,0.182,0.2289,0.2833,0.328,0.3636,0.3696,0.3943,0.4359,0.5151,0.5964,0.0,0.0,0.0,0.0,0.683,0.0,0.0,0.0,0.0,0.0,0.5434,0.506,0.0,0.4569,0.4573,0.4571,0.0,0.0,0.0,0.0,0.2287,0.196,0.041,0.0,0.0,0.0,0.0,0.0,0.0,0.0,0.0,0.0,0.0,0.0,0.0,0.0,0.0,0.0,0.0,0.0,0.0,0.0,0.0,0.0,0.0,0.0,0.0,0.0,0.0,0.0,0.0,0.0,0.0,0.0,0.0,0.0,0.0,0.0,0.0,0.0,0.0,0.0,0.0,0.0,0.0,0.0,0.0587,0.1611,0.248,0.42,0.6601,0.8628,1.0327,1.1747,1.2949,1.3403,1.3403,1.3403,1.3444,1.3519,0.0,0.0,0.0,0.0,0.0,0.0,0.0,0.0,0.0,0.0,0.0,0.0,0.0,0.0,0.0,0.0,0.0,0.0,0.0,0.0,0.0,0.0,0.0,0.0906,0.1811,0.1992,0.2485,0.3336,0.348,0.3931,0.4697,0.4817,0.5296,0.6066,0.6512,0.6715,0.0,0.0,0.0,0.0,0.6756,0.0,0.0,0.0,0.0,0.0,0.0,0.0,0.0,0.6306,0.6313,0.6327,0.6306,0.0,0.0,0.0,0.0,0.0,0.0797,0.0148,0.0,0.0,0.0,0.0,0.0,0.0,0.0,0.0,0.0,0.0,0.0,0.0,0.0,0.0,0.0,0.0,0.0,0.0,0.0,0.0,0.0,0.0,0.0,0.0,0.0,0.0,0.0,0.0,0.0,0.0,0.0,0.0,0.0,0.0,0.0,0.0,0.0,0.0,0.0,0.0,0.0,0.0353,0.1571,0.3408,0.3393,0.5909,0.9994,0.969,1.11,1.3403,1.3403,1.3403,1.3403,1.3424,1.3519,1.3592,0.0,0.0,0.0,0.0,0.0,0.0,0.0,0.0,0.0,0.0,0.0,0.0,0.0,0.0,0.0,0.0,0.0,0.0,0.0,0.0,0.0,0.2629,0.2622,0.2706,0.2866,0.3765,0.4297,0.4453,0.5183,0.5575,0.5599,0.5618,0.5848,0.626,0.6559,0.677,0.6884,0.0,0.0,0.0,0.6709,0.0,0.0,0.0,0.0,0.0,0.0,0.0,0.0,0.634,0.6381,0.6437,0.6334,0.0,0.0,0.0,0.0,0.0,0.1812,0.0778,0.0,0.0,0.0,0.0,0.0,0.0,0.0,0.0,0.0,0.0,0.0,0.0,0.0,0.0,0.0,0.0,0.0,0.0,0.0,0.0,0.0,0.0,0.0,0.0,0.0,0.0,0.0,0.0,0.0,0.0,0.0,0.0,0.0,0.0,0.0,0.0,0.0,0.0,0.0,0.0,0.0076,0.1981,0.3054,0.3619,0.7295,0.9361,1.0221,1.1975,1.2966,1.3403,1.3403,1.3403,1.3417,1.3546,1.3565,1.3619,0.0,0.0,0.0,0.0,0.0,0.0,0.0,0.0,0.0,0.0,0.0,0.0,0.0,0.0,0.0,0.0,0.0,0.0,0.0,0.0,0.4213,0.48,0.483,0.4557,0.3978,0.4448,0.493,0.5404,0.5795,0.593,0.5806,0.5988,0.6185,0.6429,0.6688,0.6796,0.6796,0.6938,0.0,0.0,0.0,0.0,0.0,0.0,0.0,0.0,0.0,0.0,0.0,0.0,0.6409,0.6388,0.632,0.0,0.0,0.0,0.0,0.0,0.2047,0.092,0.0,0.0,0.0,0.0,0.0,0.0,0.0,0.0,0.0,0.0,0.0,0.0,0.0,0.0,0.0,0.0,0.0,0.0,0.0,0.0,0.0,0.0,0.0,0.0,0.0,0.0,0.0,0.0,0.0,0.0,0.0,0.0,0.0,0.0,0.0,0.0,0.0,0.0,0.0,0.0,0.0077,0.2326,0.4034,0.5355,0.8202,1.0367,1.1943,1.2561,1.3037,1.341,1.3492,1.3526,1.3553,1.3783,1.3871,1.3899,0.0,0.0,0.0,0.0,0.0,0.0,0.0,0.0,0.0,0.0,0.0,0.0,0.0,0.0,0.0,0.0,0.0,0.0,0.0,0.0,0.5442,0.6254,0.63,0.5925,0.5099,0.5079,0.5388,0.5993,0.5993,0.5971,0.5915,0.619,0.6395,0.6552,0.677,0.6789,0.6709,0.6803,0.6722,0.0,0.0,0.0,0.0,0.0,0.0,0.0,0.0,0.0,0.0,0.0,0.0,0.0,0.0,0.0,0.0,0.5598,0.4592,0.3574,0.2831,0.1548,0.0419,0.0427,0.02,0.0,0.0,0.0,0.0,0.0,0.0,0.0,0.0,0.0,0.0,0.0,0.0,0.0,0.0,0.0,0.0,0.0,0.0,0.0,0.0,0.0,0.0,0.0,0.0,0.0,0.0,0.0,0.0,0.0,0.0,0.0,0.0,0.0,0.0,0.0,0.0,0.0283,0.0867,0.3098,0.5322,0.7561,0.9233,1.1261,1.3356,1.2786,1.2908,1.3464,1.3545,1.3632,1.3763,1.3987,1.4139,1.4143,0.0,0.0,0.0,0.0,0.0,0.0,0.0,0.0,0.0,0.0,0.0,0.0,0.0,0.0,0.0,0.0,0.0,0.0,0.0,0.0,0.6209,0.63,0.63,0.6261,0.6183,0.6183,0.6129,0.5993,0.5993,0.6098,0.6265,0.6286,0.643,0.6681,0.6709,0.6709,0.6702,0.6715,0.662,0.6491,0.0,0.0,0.0,0.0,0.0,0.0,0.0,0.0,0.0,0.0,0.0,0.0,0.0,0.0,0.6525,0.6705,0.5909,0.4995,0.512,0.3438,0.1676,0.1677,0.0824,0.0,0.0,0.0,0.0,0.0,0.0,0.0,0.0,0.0,0.0,0.0,0.0,0.0,0.0,0.0,0.0,0.0,0.0,0.0,0.0,0.0,0.0,0.0,0.0,0.0,0.0,0.0,0.0,0.0,0.0,0.0,0.0,0.0,0.0,0.0,0.0,0.109,0.3213,0.5435,0.7656,0.9873,1.2132,1.3184,1.3397,1.3342,1.3437,1.3572,1.3585,1.3797,1.4084,1.4105,1.4163,1.4285,0.0,0.0,0.0,0.0,0.0,0.0,0.0,0.0,0.0,0.0,0.0,0.0,0.0,0.0,0.0,0.0,0.0,0.0,0.0,0.63,0.63,0.63,0.63,0.634,0.6429,0.6347,0.6205,0.5993,0.6125,0.6267,0.6436,0.6512,0.6593,0.6702,0.6702,0.6647,0.658,0.658,0.6491,0.6381,0.6381,0.0,0.0,0.0,0.0,0.0,0.0,0.0,0.0,0.0,0.647,0.6491,0.6491,0.662,0.6776,0.6877,0.6136,0.5303,0.5371,0.3643,0.1797,0.1802,0.0881,0.0,0.0,0.0,0.0,0.0,0.0,0.0,0.0,0.0,0.0,0.0,0.0,0.0,0.0,0.0,0.0,0.0,0.0,0.0,0.0,0.0,0.0,0.0,0.0,0.0,0.0,0.0,0.0,0.0,0.0,0.0,0.0,0.0,0.0,0.0,0.1384,0.2519,0.3524,0.7118,0.9207,1.0128,1.2395,1.3458,1.3504,1.3504,1.3585,1.3727,1.3865,1.4027,1.4211,1.4211,1.4251,1.4299,0.0,0.0,0.0,0.0,0.0,0.0,0.0,0.0,0.0,0.0,0.0,0.0,0.0,0.0,0.0,0.0,0.0,0.0,0.6306,0.63,0.632,0.6368,0.6368,0.6436,0.6559,0.6471,0.6341,0.6154,0.6294,0.6443,0.6566,0.6654,0.6675,0.6627,0.6627,0.6566,0.6443,0.6443,0.6388,0.6306,0.6347,0.634,0.0,0.0,0.0,0.0,0.0,0.0,0.0,0.0,0.6491,0.6512,0.6607,0.6763,0.6918,0.6958,0.6224,0.5391,0.5405,0.3936,0.2333,0.1894,0.1203,0.0531,0.0095,0.0,0.0,0.0,0.0,0.0,0.0,0.0,0.0,0.0,0.0,0.0,0.0,0.0,0.0,0.0,0.0,0.0,0.0,0.0,0.0,0.0,0.0,0.0,0.0,0.0,0.0,0.0,0.0,0.0,0.0,0.0,0.0337,0.1051,0.3315,0.4405,0.457,0.829,1.0382,1.1178,1.2778,1.3532,1.3592,1.3632,1.3741,1.3933,1.4082,1.4204,1.4299,1.4299,1.4299,1.4306,0.0,0.0,0.0,0.0,0.0,0.0,0.0,0.0,0.0,0.0,0.0,0.0,0.0,0.0,0.0,0.0,0.0,0.0,0.63,0.63,0.6368,0.6491,0.6491,0.6566,0.6702,0.6702,0.6627,0.6491,0.6491,0.6573,0.6702,0.6702,0.662,0.6491,0.6498,0.6436,0.63,0.6306,0.6306,0.6313,0.6457,0.6422,0.0,0.0,0.0,0.0,0.0,0.0,0.0,0.0,0.6498,0.6552,0.6809,0.6911,0.6938,0.7065,0.6302,0.5429,0.5433,0.4633,0.3488,0.2153,0.1889,0.1627,0.0291,0.0,0.0,0.0,0.0,0.0,0.0,0.0,0.0,0.0,0.0,0.0,0.0,0.0,0.0,0.0,0.0,0.0,0.0,0.0,0.0,0.0,0.0,0.0,0.0,0.0,0.0,0.0,0.0,0.0,0.0,0.0,0.1135,0.3315,0.5616,0.6745,0.6825,0.904,1.1261,1.341,1.3524,1.3592,1.3605,1.3741,1.3933,1.4132,1.4238,1.4299,1.4299,1.4299,1.4299,1.4326,0.0,0.0,0.0,0.0,0.0,0.0,0.0,0.0,0.0,0.0,0.0,0.0,0.0,0.0,0.0,0.0,0.0,0.0,0.6443,0.645,0.6498,0.6627,0.6634,0.6702,0.6837,0.6837,0.6762,0.6634,0.6634,0.6654,0.6702,0.6607,0.6539,0.6498,0.6695,0.6593,0.632,0.6593,0.6546,0.6306,0.6347,0.6334,0.6313,0.0,0.0,0.0,0.0,0.0,0.0,0.0,0.0,0.0,0.6877,0.6979,0.7125,0.7591,0.7293,0.6896,0.7332,0.5669,0.3704,0.3317,0.19,0.0488,0.0092,0.0,0.0,0.0,0.0,0.0,0.0,0.0,0.0,0.0,0.0,0.0,0.0,0.0,0.0,0.0,0.0,0.0,0.0,0.0,0.0,0.0,0.0,0.0,0.0,0.0,0.0,0.0,0.0,0.0,0.0,0.1555,0.2687,0.34,0.7243,0.9082,0.917,1.1478,1.2881,1.3566,1.3673,1.3838,1.3953,1.4102,1.419,1.4238,1.4285,1.4299,1.4299,1.4299,1.4367,1.4455,0.0,0.0,0.0,0.0,0.0,0.0,0.0,0.0,0.0,0.0,0.6904,0.683,0.0,0.0,0.0,0.0,0.0,0.0,0.0,0.6586,0.6634,0.6762,0.6769,0.6837,0.6964,0.6938,0.683,0.6702,0.6702,0.6668,0.6627,0.6539,0.6464,0.6436,0.658,0.6566,0.6402,0.6573,0.6559,0.6381,0.6381,0.6354,0.6313,0.0,0.0,0.0,0.0,0.0,0.0,0.0,0.0,0.0,0.695,0.7193,0.7389,0.7067,0.6636,0.6166,0.5817,0.4426,0.2959,0.2417,0.155,0.0654,0.0124,0.0,0.0,0.0,0.0,0.0,0.0,0.0,0.0,0.0,0.0,0.0,0.0,0.0,0.0,0.0,0.0,0.0,0.0,0.0,0.0,0.0,0.0,0.0,0.0,0.0,0.0,0.0,0.0,0.0421,0.1346,0.2645,0.4237,0.6076,0.8872,1.066,1.155,1.2949,1.3619,1.368,1.3871,1.4021,1.417,1.4265,1.4299,1.4299,1.4299,1.4299,1.4306,1.4367,1.4434,1.4529,0.0,0.0,0.0,0.0,0.0,0.0,0.0,0.0,0.0,0.0,0.6884,0.6762,0.0,0.0,0.0,0.0,0.0,0.0,0.0,0.0,0.679,0.6918,0.6924,0.6957,0.7071,0.6958,0.6809,0.6681,0.6681,0.662,0.6471,0.6471,0.6429,0.632,0.6347,0.6416,0.6484,0.6402,0.6409,0.6471,0.6471,0.6422,0.6334,0.6463,0.0,0.0,0.0,0.0,0.0,0.0,0.0,0.0,0.7058,0.7483,0.7633,0.6116,0.5181,0.4266,0.2669,0.2116,0.1701,0.0484,0.1004,0.1509,0.0263,0.0,0.0,0.0,0.0,0.0,0.0,0.0,0.0,0.0,0.0,0.0,0.0,0.0,0.0,0.0,0.0,0.0,0.0,0.0,0.0,0.0,0.0,0.0,0.0,0.0,0.0,0.0,0.021,0.1304,0.34,0.3734,0.5996,1.0106,1.0462,1.1678,1.3668,1.3668,1.3707,1.3849,1.4027,1.417,1.4299,1.4299,1.4299,1.4299,1.4312,1.4319,1.434,1.4482,1.4543,1.459,0.0,0.0,0.0,0.0,0.0,0.0,0.0,0.0,0.0,0.0,0.0,0.0,0.0,0.0,0.0,0.0,0.0,0.0,0.0,0.0,0.6924,0.7045,0.7051,0.7011,0.6951,0.6803,0.6675,0.6539,0.6539,0.6464,0.6347,0.6347,0.6388,0.6457,0.6675,0.6668,0.6505,0.6695,0.66,0.6347,0.6347,0.6395,0.647,0.6477,0.6566,0.0,0.0,0.0,0.0,0.0,0.0,0.0,0.7085,0.729,0.7543,0.7643,0.666,0.5533,0.5615,0.3871,0.1922,0.1648,0.1003,0.0349,0.0073,0.0,0.0,0.0,0.0,0.0,0.0,0.0,0.0,0.0,0.0,0.0,0.0,0.0,0.0,0.0,0.0,0.0,0.0,0.0,0.0,0.0,0.0,0.0,0.0,0.0,0.0,0.0,0.1681,0.2855,0.34,0.6825,0.9123,1.0266,1.2035,1.3275,1.3973,1.3973,1.4061,1.4204,1.4238,1.4272,1.4299,1.4299,1.4299,1.4312,1.4421,1.4468,1.4482,1.4586,1.4767,1.4882,0.0,0.0,0.0,0.0,0.0,0.0,0.0,0.0,0.0,0.0,0.0,0.0,0.0,0.0,0.0,0.0,0.0,0.0,0.0,0.0,0.7018,0.7092,0.7031,0.6985,0.6911,0.6709,0.6607,0.66,0.6525,0.6457,0.6402,0.6402,0.6457,0.6607,0.6675,0.6661,0.66,0.66,0.6559,0.6484,0.6429,0.6471,0.66,0.66,0.6675,0.6796,0.6877,0.0,0.0,0.0,0.0,0.0,0.0,0.0,0.7738,0.7248,0.6687,0.5959,0.4761,0.3257,0.1835,0.1204,0.0533,0.0,0.0,0.0,0.0,0.0,0.0,0.0,0.0,0.0,0.0,0.0,0.0,0.0,0.0,0.0,0.0,0.0,0.0,0.0,0.0,0.0,0.0,0.0,0.0,0.0,0.0,0.0,0.0505,0.1555,0.2729,0.4363,0.6533,0.8923,1.0751,1.1878,1.3209,1.396,1.4183,1.4183,1.4224,1.4299,1.4299,1.4299,1.4299,1.4299,1.434,1.4407,1.4482,1.4557,1.4638,1.4794,1.4903,1.503,0.0,0.0,0.0,0.0,0.0,0.0,0.0,0.0,0.0,0.0,0.0,0.0,0.0,0.0,0.0,0.0,0.0,0.0,0.0,0.0,0.0,0.7058,0.695,0.6897,0.687,0.6641,0.6593,0.6702,0.6593,0.6586,0.6688,0.6661,0.6729,0.6851,0.6688,0.6647,0.6722,0.6443,0.6471,0.6688,0.658,0.6627,0.6742,0.6742,0.6809,0.6945,0.6945,0.6997,0.7098,0.7098,0.0,0.0,0.0,0.0,0.7938,0.6557,0.6344,0.6009,0.3438,0.2396,0.1717,0.0346,0.0,0.0,0.0,0.0,0.0,0.0,0.0,0.0,0.0,0.0,0.0,0.0,0.0,0.0,0.0,0.0,0.0,0.0,0.0,0.0,0.0,0.0,0.0,0.0,0.0365,0.0574,0.058,0.0962,0.2016,0.3818,0.4319,0.6331,1.0033,1.0593,1.1817,1.3709,1.398,1.4177,1.4299,1.4299,1.4299,1.4299,1.4299,1.4299,1.4299,1.4326,1.4407,1.4516,1.457,1.4665,1.4755,1.495,1.5011,1.5071,0.0,0.0,0.0,0.0,0.0,0.0,0.0,0.0,0.0,0.0,0.6762,0.6749,0.0,0.0,0.0,0.0,0.0,0.0,0.7092,0.0,0.0,0.6938,0.6918,0.6843,0.6736,0.6695,0.6681,0.6702,0.6681,0.6939,0.7448,0.7335,0.7355,0.7468,0.7154,0.6972,0.6857,0.6593,0.6559,0.6702,0.6675,0.6763,0.6877,0.6877,0.6965,0.7065,0.7065,0.7078,0.7098,0.7098,0.7208,0.0,0.0,0.0,0.7813,0.7603,0.6841,0.6028,0.579,0.3996,0.1827,0.0357,0.0,0.0,0.0,0.0,0.0,0.0,0.0,0.0,0.0,0.0,0.0,0.0,0.0,0.0,0.0,0.0,0.0,0.0,0.0,0.0,0.0,0.0,0.0,0.0,0.1761,0.2856,0.2846,0.4735,0.5951,0.6241,0.8165,0.9547,1.0234,1.221,1.3458,1.4057,1.419,1.4278,1.4299,1.4299,1.4299,1.4299,1.4299,1.4299,1.4306,1.4434,1.4496,1.4536,1.4808,1.4923,1.5003,1.5099,1.5153,1.516,0.0,0.0,0.0,0.0,0.0,0.0,0.0,0.0,0.0,0.0,0.0,0.6864,0.0,0.0,0.0,0.7092,0.7098,0.7098,0.7098,0.7024,0.6984,0.7004,0.687,0.6789,0.6809,0.6742,0.6742,0.6809,0.6809,0.7283,0.8221,0.8153,0.8024,0.7824,0.7875,0.7553,0.7004,0.7088,0.6993,0.6809,0.6809,0.6897,0.7004,0.7004,0.7045,0.7098,0.7098,0.7175,0.7272,0.7272,0.7373,0.7516,0.759,0.0,0.0,0.0,0.7616,0.723,0.6986,0.5251,0.3486,0.3538,0.2369,0.1337,0.1653,0.0839,0.0,0.0,0.0,0.0,0.0,0.0,0.0,0.0,0.0,0.0,0.0,0.0,0.0,0.0,0.0,0.0,0.0,0.0,0.0,0.0,0.206,0.3317,0.3355,0.5491,0.7285,0.8498,0.9645,1.0846,1.2131,1.3321,1.3987,1.4197,1.4272,1.4299,1.4299,1.4299,1.4299,1.4299,1.4299,1.4346,1.4421,1.4482,1.4611,1.478,1.4916,1.5064,1.5099,1.516,1.5181,1.5181,0.0,0.0,0.0,0.0,0.0,0.0,0.0,0.0,0.0,0.0,0.0,0.0,0.0,0.0,0.0,0.0,0.7098,0.7098,0.7098,0.706,0.7033,0.7045,0.6857,0.6789,0.6904,0.6796,0.6851,0.7019,0.7019,0.7577,0.8601,0.8716,0.8581,0.8304,0.8472,0.8187,0.7557,0.7655,0.7492,0.7188,0.7188,0.7139,0.7098,0.7161,0.7175,0.7181,0.7222,0.7333,0.745,0.745,0.7525,0.7624,0.7767,0.7814,0.0,0.0,0.0,0.8228,0.7398,0.6144,0.5195,0.5721,0.4322,0.2963,0.339,0.2419,0.1257,0.073,0.0702,0.0628,0.0079,0.0,0.0,0.0,0.0,0.0,0.0,0.0,0.0,0.0,0.0,0.0,0.0,0.0521,0.085,0.0826,0.3433,0.5067,0.5112,0.7205,0.9165,1.0798,1.1045,1.1938,1.3639,1.398,1.419,1.4299,1.4299,1.4299,1.4299,1.4299,1.4319,1.4353,1.4353,1.4414,1.4516,1.4597,1.4767,1.5023,1.5057,1.5086,1.5181,1.5181,1.5181,1.5181,0.0,0.0,0.0,0.0,0.0,0.0,0.0,0.0,0.0,0.0,0.0,0.0,0.7098,0.7098,0.7098,0.7098,0.7098,0.7098,0.7098,0.7272,0.7224,0.6931,0.6904,0.0,0.6904,0.6897,0.7061,0.7369,0.7369,0.7695,0.8328,0.8703,0.8988,0.9111,0.8818,0.8723,0.8784,0.823,0.7955,0.7934,0.7934,0.7597,0.7112,0.7305,0.7382,0.7403,0.7522,0.7584,0.759,0.759,0.759,0.7624,0.7767,0.7814,0.7868,0.0,0.0,0.0,0.694,0.6556,0.6261,0.4917,0.4586,0.4568,0.4606,0.4967,0.4746,0.2765,0.2675,0.2349,0.0353,0.0,0.0,0.0,0.0,0.0,0.0,0.0,0.0,0.0,0.0,0.0,0.0,0.1894,0.3136,0.3134,0.7237,0.9748,0.9753,1.1849,1.3106,1.3231,1.3378,1.3526,1.3788,1.4136,1.4292,1.4299,1.4299,1.4299,1.4299,1.4299,1.4373,1.4502,1.4502,1.4502,1.4536,1.4828,1.5003,1.503,1.512,1.5174,1.5181,1.5181,1.5181,1.5181,0.0,0.0,0.0,0.0,0.0,0.0,0.0,0.0,0.0,0.0,0.0,0.0,0.0,0.7208,0.7285,0.7285,0.7285,0.7285,0.7285,0.7163,0.706,0.7018,0.7018,0.7087,0.721,0.7305,0.7414,0.7516,0.7516,0.7797,0.8301,0.8431,0.8689,0.9042,0.9605,0.9354,0.8547,0.9068,0.8635,0.7685,0.8554,0.8309,0.7459,0.7916,0.811,0.8063,0.7719,0.7909,0.8255,0.7868,0.7776,0.7851,0.7804,0.795,0.8192,0.8465,0.8628,0.8694,0.8627,0.8372,0.8184,0.8405,0.7299,0.6227,0.6615,0.5081,0.3404,0.2635,0.1766,0.0896,0.0152,0.0,0.0,0.0,0.0,0.0,0.0,0.0,0.0,0.0,0.1263,0.211,0.2136,0.4151,0.5473,0.5493,0.8009,0.9698,1.0071,1.1848,1.3044,1.349,1.3646,1.3842,1.4129,1.4245,1.4299,1.4299,1.4299,1.4299,1.4306,1.4394,1.4462,1.4523,1.4719,1.4808,1.4814,1.4969,1.5071,1.5113,1.516,1.5181,1.5181,1.5181,1.5181,1.5181,0.0,0.0,0.0,0.0,0.0,0.0,0.0,0.0,0.0,0.7188,0.0,0.0,0.0,0.0,0.7376,0.7299,0.7362,0.7396,0.7396,0.7238,0.7175,0.7269,0.7269,0.7317,0.7471,0.7448,0.7522,0.7672,0.7522,0.7678,0.8145,0.8294,0.8499,0.8798,0.972,0.9652,0.8927,0.9792,0.9483,0.8437,0.9131,0.8906,0.8221,0.8465,0.856,0.854,0.8397,0.8533,0.8737,0.8588,0.8405,0.825,0.8323,0.8377,0.8459,0.8655,0.8723,0.8865,0.9359,0.921,0.9102,0.9893,0.8883,0.779,0.817,0.6735,0.5131,0.4439,0.367,0.2954,0.2241,0.2121,0.1646,0.0236,0.0,0.0,0.0,0.0589,0.1059,0.1059,0.3006,0.4359,0.4372,0.6462,0.7818,0.7823,0.9562,1.0781,1.1203,1.2204,1.3078,1.3639,1.3802,1.4041,1.4299,1.4299,1.4299,1.4299,1.4299,1.4326,1.4373,1.4468,1.457,1.4679,1.4882,1.5017,1.5023,1.5071,1.5099,1.5181,1.5181,1.5181,1.5181,1.5181,1.5181,1.5181,0.0,0.0,0.0,0.0,0.0,0.0,0.0,0.0,0.7168,0.7369,0.0,0.0,0.0,0.0,0.0,0.7125,0.7299,0.741,0.741,0.7516,0.7597,0.7597,0.7604,0.7604,0.7604,0.729,0.735,0.7821,0.735,0.7364,0.7821,0.8255,0.8485,0.8505,0.9117,0.9605,0.997,1.0351,1.0385,1.0193,0.9682,0.943,0.9328,0.892,0.8757,0.8818,0.9535,0.944,0.9061,0.9785,0.944,0.8804,0.9225,0.9055,0.8703,0.8716,0.8798,0.8912,0.0,0.0,0.0,0.8912,0.9049,0.9207,0.9207,1.0011,1.0204,0.8217,0.8586,0.8653,0.6672,0.629,0.4969,0.0863,0.0196,0.0196,0.0196,0.192,0.3208,0.3208,0.5215,0.6593,0.659,0.8788,1.0174,1.0122,1.2127,1.3383,1.3397,1.341,1.3546,1.3788,1.3994,1.415,1.4299,1.4299,1.4299,1.4299,1.4299,1.4373,1.4509,1.4516,1.4685,1.5017,1.5023,1.5023,1.5037,1.5173,1.5181,1.5181,1.5181,1.5181,1.5181,1.5181,1.5181,1.5181,0.0,0.0,0.0,0.0,0.0,0.0,0.7098,0.7098,0.7112,0.0,0.0,0.0,0.7181,0.7407,0.7563,0.7594,0.7665,0.7692,0.7692,0.7631,0.7597,0.7597,0.7699,0.7753,0.7753,0.7648,0.7716,0.7952,0.7716,0.7668,0.7814,0.7936,0.7943,0.7875,0.8581,0.8967,0.9115,1.0086,0.972,0.8642,1.0324,0.9958,0.8527,0.9812,0.9788,0.9158,0.9883,1.0046,0.9944,1.0148,0.9761,0.9157,0.896,0.8737,0.8587,0.8784,0.8879,0.8912,0.8912,0.0,0.0,0.0,0.0,0.0,0.9207,0.8588,0.7969,0.7821,0.7104,0.6467,0.6339,0.6298,0.5903,0.4732,0.4539,0.4539,0.4539,0.5045,0.5396,0.5396,0.7477,0.8906,0.8894,1.1079,1.2475,1.2471,1.2628,1.2942,1.3376,1.3558,1.3714,1.3795,1.4102,1.4258,1.4299,1.4299,1.4299,1.4299,1.4299,1.4373,1.4516,1.4579,1.4787,1.5023,1.5079,1.5126,1.5126,1.5167,1.5181,1.5181,1.5181,1.5181,1.5181,1.5181,1.5181,1.5181,0.0,0.0,0.0,0.0,0.0,0.7098,0.7098,0.7098,0.7141,0.0,0.0,0.0,0.7391,0.7529,0.7631,0.7719,0.7726,0.7746,0.7807,0.7733,0.7719,0.7756,0.7776,0.7817,0.7878,0.7726,0.7767,0.7988,0.7767,0.7692,0.7814,0.7814,0.7776,0.7783,0.8303,0.856,0.8676,0.9625,0.968,0.9203,1.0534,1.0521,0.9815,1.0704,1.0602,1.0111,1.0805,1.0893,1.073,1.1043,1.0595,0.9883,0.9557,0.9096,0.8757,0.9156,0.9102,0.8912,0.8912,0.8912,0.8912,0.8912,0.0,0.0,0.9062,0.8775,0.8574,0.8939,0.8658,0.8387,0.8492,0.8518,0.853,0.853,0.853,0.798,0.6509,0.7033,0.7579,0.7579,0.9694,1.1125,1.1125,1.2518,1.3403,1.3403,1.3078,1.3057,1.3471,1.3673,1.3829,1.3933,1.417,1.4299,1.4299,1.4299,1.4299,1.4299,1.436,1.4468,1.4611,1.4767,1.4916,1.5112,1.5147,1.5181,1.5181,1.5181,1.5181,1.5181,1.5181,1.5181,1.5181,1.5181,1.5181,1.5181,0.0,0.0,0.7092,0.7071,0.7098,0.7141,0.7141,0.7139,0.7222,0.0,0.7516,0.7645,0.7773,0.7692,0.7624,0.7624,0.7638,0.7699,0.7804,0.781,0.7871,0.7982,0.7885,0.7878,0.7988,0.7631,0.7624,0.7988,0.7624,0.7593,0.7862,0.7862,0.7918,0.8067,0.8235,0.8389,0.8546,0.9104,0.9883,1.0745,1.0493,1.1009,1.186,1.1472,1.124,1.1213,1.19,1.1757,1.1349,1.1986,1.1592,1.0772,1.05,0.9781,0.9102,0.9555,0.9318,0.8912,0.8912,0.8912,0.8912,0.8912,0.8912,0.0,0.8912,0.9731,1.0508,1.0576,1.1463,1.2067,1.1606,1.1482,1.1482,1.1482,1.1482,1.0444,0.733,0.8532,0.971,0.9673,1.1609,1.2982,1.3003,1.3214,1.3383,1.3397,1.3403,1.3464,1.3578,1.372,1.3869,1.4112,1.4224,1.4299,1.4299,1.4299,1.4299,1.4299,1.4441,1.459,1.4701,1.4903,1.5052,1.5181,1.5181,1.5181,1.5181,1.5181,1.5181,1.5181,1.5181,1.5181,1.5181,1.5181,1.5181,1.5181,0.0,0.7018,0.7058,0.6972,0.717,0.7348,0.7348,0.7428,0.7522,0.755,0.7584,0.7611,0.7638,0.7719,0.7773,0.7773,0.7858,0.7939,0.7966,0.7973,0.7986,0.7988,0.7986,0.7986,0.7988,0.781,0.7804,0.7988,0.7804,0.7882,0.8206,0.8206,0.8281,0.8397,0.8451,0.8485,0.8526,0.8737,0.9239,0.9937,1.0723,1.088,1.0764,1.1737,1.147,1.0778,1.1986,1.2033,1.1552,1.1701,1.1613,1.1232,1.0238,0.9785,0.9548,0.919,0.9,0.8912,0.8912,0.8912,0.8912,0.8912,0.8912,0.0,0.8912,0.9088,0.9393,0.9866,1.015,1.0427,1.0792,1.0894,1.0894,1.0894,1.0894,1.0834,1.0749,1.139,1.1747,1.1368,1.2171,1.2827,1.2989,1.3159,1.3268,1.339,1.3403,1.3464,1.3578,1.372,1.3869,1.4112,1.4224,1.4299,1.4299,1.4299,1.4299,1.4299,1.4441,1.459,1.4701,1.4903,1.5052,1.5181,1.5181,1.5181,1.5181,1.5181,1.5181,1.5181,1.5181,1.5181,1.5181,1.5181,1.5181,1.5181,0.7149,0.7265,0.7323,0.7256,0.7387,0.7512,0.7512,0.755,0.7597,0.7597,0.7702,0.7848,0.7929,0.7997,0.8038,0.8038,0.8013,0.0,0.0,0.7988,0.7988,0.7988,0.7939,0.7973,0.8153,0.7979,0.8006,0.8262,0.818,0.8221,0.8403,0.8403,0.8437,0.8512,0.856,0.8594,0.8608,0.873,0.9142,0.9788,1.0609,1.0948,1.1056,1.2026,1.202,1.1586,1.2257,1.2311,1.2013,1.1685,1.1584,1.1475,1.0874,1.0272,0.9731,0.944,0.9142,0.8912,0.8912,0.8912,0.8912,0.8912,0.8912,0.0,0.0,0.9136,0.9433,0.9731,1.0028,1.0238,1.0238,1.0238,1.0238,1.0238,1.0238,1.0393,1.0846,1.1586,1.2088,1.2155,1.2501,1.2793,1.2989,1.3132,1.3275,1.339,1.3403,1.3498,1.368,1.3761,1.3903,1.4177,1.4258,1.4299,1.4299,1.4299,1.4333,1.4407,1.4557,1.4706,1.4862,1.5011,1.516,1.5181,1.5181,1.5181,1.5181,1.5181,1.5181,1.5181,1.5181,1.5181,1.5181,1.5181,1.5181,1.5181,0.7416,0.7516,0.7597,0.7597,0.7624,0.7638,0.7638,0.7665,0.7692,0.7726,0.7912,0.8174,0.8444,0.8362,0.8328,0.8417,0.8257,0.0,0.8067,0.8162,0.8189,0.8101,0.7979,0.8058,0.8328,0.8187,0.8241,0.8505,0.8505,0.8526,0.8526,0.8526,0.854,0.8574,0.8669,0.8791,0.8933,0.9,0.9399,1.0015,1.0617,1.1118,1.1525,1.223,1.2433,1.2345,1.2461,1.2501,1.2413,1.178,1.1584,1.1563,1.1448,1.0664,0.9792,0.9792,0.9372,0.8912,0.8912,0.8912,0.8912,0.8912,0.8912,0.8912,0.0,0.0,0.0,0.9623,1.0008,1.0197,0.971,0.9623,0.9602,0.9571,0.9582,0.9683,0.9866,1.0664,1.1428,1.1965,1.2179,1.2406,1.2594,1.2873,1.3112,1.3383,1.3403,1.3532,1.3781,1.3795,1.3937,1.4292,1.4299,1.4299,1.4299,1.4299,1.4373,1.4516,1.462,1.4821,1.5023,1.512,1.5181,1.5181,1.5181,1.5181,1.5181,1.5181,1.5181,1.5181,1.5181,1.5181,1.5181,1.5181,1.5181,1.5181,0.757,0.759,0.7597,0.7597,0.7706,0.7787,0.7787,0.7878,0.8013,0.8199,0.8247,0.8478,0.905,0.8614,0.8457,0.8798,0.8818,0.8642,0.8294,0.8764,0.8879,0.8445,0.8444,0.8451,0.8485,0.8464,0.8471,0.8505,0.8505,0.8554,0.8682,0.8682,0.873,0.8852,0.8737,0.9076,0.9656,0.9548,0.992,1.0637,1.1239,1.1205,1.0948,1.2074,1.2176,1.1753,1.2311,1.2501,1.2413,1.178,1.1584,1.1525,1.0955,1.0333,0.9792,0.9792,0.9372,0.8912,0.8912,0.8912,0.8912,0.8912,0.8912,0.8912,0.8912,0.0,0.9014,0.9014,0.0,0.9095,0.9021,0.0,0.0,0.8676,0.8831,0.9109,0.9415,0.9781,1.0069,1.0272,1.0664,1.0975,1.113,1.1911,1.2671,1.3349,1.3403,1.3532,1.3781,1.3795,1.3937,1.4292,1.4299,1.4299,1.4299,1.4299,1.4373,1.4516,1.462,1.4821,1.5023,1.512,1.5181,1.5181,1.5181,1.5181,1.5181,1.5181,1.5181,1.5181,1.5181,1.5181,1.5181,1.5181,1.5181,1.5181,0.7516,0.7604,0.7726,0.7726,0.7773,0.7817,0.7905,0.8072,0.8167,0.814,0.8364,0.8723,0.926,0.9172,0.9259,0.9795,0.9768,0.9639,0.9478,0.9369,0.9233,0.9043,0.8696,0.8526,0.8615,0.8615,0.8655,0.8723,0.8723,0.875,0.8818,0.8818,0.8804,0.8777,0.8737,0.9076,0.9693,0.9632,1.0039,1.0711,1.0995,1.0948,1.0819,1.2047,1.2345,1.2121,1.2026,1.221,1.2359,1.1416,1.1558,1.1965,1.0982,1.0548,1.0312,1.0312,0.9643,0.8987,0.9325,0.942,0.942,0.942,0.942,0.942,0.942,0.9156,0.8912,0.8912,0.0,0.0,0.0,0.0,0.0,0.0,0.8825,0.8953,0.9082,0.9203,0.9562,1.0319,1.0569,1.0948,1.1538,1.1701,1.2074,1.282,1.2881,1.301,1.3315,1.3612,1.3937,1.4292,1.4299,1.4299,1.4299,1.438,1.4496,1.4599,1.4801,1.495,1.5146,1.5153,1.5181,1.5181,1.5181,1.5181,1.5181,1.5181,1.5181,1.5181,1.5181,1.5181,1.5181,1.5181,1.5181,1.5181,0.7525,0.7672,0.7851,0.7851,0.7851,0.7898,0.8054,0.8336,0.8526,0.8446,0.873,0.9157,0.9693,0.9517,0.9666,1.0426,1.0397,1.0329,1.0337,0.9961,0.9707,0.9747,0.9015,0.8737,0.9008,0.8831,0.8798,0.8912,0.8912,0.8912,0.8912,0.8912,0.8852,0.8743,0.8703,0.9042,0.9618,0.9781,1.0256,1.0921,1.1124,1.1171,1.1287,1.1993,1.2359,1.2447,1.2013,1.2135,1.2345,1.1314,1.1545,1.2108,1.1205,1.0819,1.0718,1.0887,1.0204,0.9494,0.992,1.0035,0.9994,0.9832,0.9792,0.9751,0.9589,0.9217,0.8912,0.8912,0.8912,0.0,0.0,0.0,0.8885,0.8798,0.0,0.8879,0.8798,0.8858,0.923,1.0096,1.0339,1.0765,1.154,1.1458,1.1586,1.221,1.2413,1.2637,1.2982,1.3519,1.3937,1.4292,1.4299,1.4299,1.4299,1.4441,1.459,1.4694,1.4896,1.5091,1.5181,1.5181,1.5181,1.5181,1.5181,1.5181,1.5181,1.5181,1.5181,1.5181,1.5181,1.5181,1.5181,1.5181,1.5181,1.5181,0.7624,0.7804,0.7982,0.7982,0.7982,0.806,0.8267,0.8784,0.926,0.9523,0.9571,0.9863,1.0562,0.9517,0.9211,1.0392,1.0397,1.0369,1.0473,1.0466,1.0521,1.0637,0.9521,0.9163,0.9744,0.9197,0.8906,0.8912,0.8912,0.8912,0.8912,0.8912,0.8912,0.8899,0.875,0.9042,0.9646,1.0222,1.0812,1.1436,1.2155,1.2447,1.2386,1.185,1.1999,1.2501,1.2481,1.2488,1.2406,1.1796,1.1613,1.1604,1.1563,1.1158,1.0799,1.1387,1.1117,1.0637,1.065,1.0657,1.0515,0.9934,0.9792,0.9643,0.9068,0.8926,0.8912,0.8912,0.8912,0.8912,0.8912,0.0,0.0,0.0,0.0,0.0,0.0,0.8723,0.8926,0.8967,0.9474,0.9978,1.0304,1.088,1.1301,1.1626,1.2176,1.2637,1.2982,1.3519,1.3937,1.4292,1.4299,1.4299,1.4299,1.4441,1.459,1.4694,1.4896,1.5091,1.5181,1.5181,1.5181,1.5181,1.5181,1.5181,1.5181,1.5181,1.5181,1.5181,1.5181,1.5181,1.5181,1.5181,1.5181,1.5181,0.8269,0.8262,0.8269,0.8047,0.8101,0.8241,0.8417,0.8696,0.9001,0.9408,0.9632,1.0114,1.1063,1.0846,1.0765,1.1206,1.1552,1.1606,1.126,1.124,1.126,1.1279,1.0515,0.9994,0.9792,0.9595,0.9305,0.8912,0.8912,0.8912,0.8912,0.8912,0.8912,0.8906,0.875,0.9096,0.9751,1.0283,1.09,1.1565,1.1816,1.1972,1.203,1.2169,1.2325,1.2501,1.2501,1.2501,1.2413,1.178,1.1877,1.2135,1.1742,1.1442,1.1394,1.2026,1.1497,1.0806,1.1206,1.1314,1.1267,1.1029,1.0677,1.0333,1.013,0.9474,0.8912,0.8912,0.8912,0.8912,0.8912,0.0,0.0,0.0,0.0,0.0,0.0,0.8845,0.8912,0.8912,0.9088,0.9469,1.0104,1.007,1.0261,1.0826,1.1151,1.1457,1.1791,1.2758,1.3397,1.3695,1.4095,1.4299,1.4299,1.4543,1.4647,1.4694,1.4991,1.514,1.5181,1.5181,1.5181,1.5181,1.5181,1.5181,1.5181,1.5181,1.5181,1.5181,1.5181,1.5181,1.5181,1.5181,1.5181,1.5181,0.8628,0.8526,0.8486,0.8216,0.8275,0.8492,0.8825,0.8967,0.9306,1.008,1.0154,1.0468,1.1443,1.1402,1.1409,1.1638,1.1803,1.1884,1.1932,1.1335,1.1267,1.1904,1.0914,1.0387,1.0427,1.0008,0.971,0.9541,0.9115,0.9021,0.9217,0.9007,0.8912,0.8906,0.8804,0.9,0.9447,1.0249,1.0826,1.1246,1.1565,1.1874,1.2244,1.2318,1.2481,1.2664,1.2664,1.2664,1.2603,1.2223,1.2352,1.2596,1.2216,1.2094,1.2169,1.2556,1.2121,1.1599,1.1993,1.2094,1.2033,1.1726,1.1367,1.1029,1.0813,1.013,0.9555,0.9609,0.9582,0.946,0.9197,0.0,0.0,0.0,0.0,0.0,0.0,0.8912,0.8933,0.9008,0.9129,0.9401,0.9805,0.9777,0.9856,1.0222,1.0541,1.0846,1.1179,1.2343,1.3139,1.339,1.3987,1.4299,1.4299,1.459,1.4694,1.4694,1.5038,1.5181,1.5181,1.5181,1.5181,1.5181,1.5181,1.5181,1.5181,1.5181,1.5181,1.5181,1.5181,1.5181,1.5181,1.5181,1.5181,1.5181,0.8641,0.8608,0.8662,0.8546,0.8553,0.8791,0.951,0.9646,1.0127,1.1374,1.107,1.1002,1.1705,1.1178,1.1036,1.1685,1.1124,1.1233,1.2338,1.0839,1.0683,1.2427,1.0867,1.0447,1.1592,1.0461,1.0175,1.0684,0.9521,0.9244,0.9778,0.919,0.8912,0.8919,0.8919,0.8845,0.8832,1.0175,1.0677,1.0643,1.1463,1.225,1.2907,1.2329,1.2492,1.3023,1.3009,1.3003,1.3003,1.3003,1.3003,1.3003,1.3003,1.3003,1.3003,1.3003,1.3003,1.3003,1.3003,1.3003,1.2826,1.2067,1.1827,1.1658,1.1097,1.0833,1.0752,1.0894,1.0813,1.0527,0.9815,0.9774,0.0,0.0,0.0,0.0,0.0,0.8933,0.8987,0.9179,0.9537,0.9686,0.9437,0.9934,1.0127,0.9805,1.0319,1.0819,1.1179,1.2288,1.3077,1.339,1.3926,1.4245,1.4312,1.4518,1.4667,1.4708,1.5045,1.5181,1.5181,1.5181,1.5181,1.5181,1.5181,1.5181,1.5181,1.5181,1.5181,1.5181,1.5181,1.5181,1.5181,1.5181,1.5181,1.5181,0.8791,0.8682,0.8696,0.8662,0.911,0.9544,0.9704,1.0116,1.0529,1.0907,1.1206,1.1428,1.1617,1.1898,1.1762,1.1029,1.1205,1.1293,1.1151,1.1165,1.1558,1.2461,1.206,1.1755,1.1584,1.1314,1.0982,1.0684,0.9934,0.9643,0.9778,0.919,0.8967,0.9124,0.9124,0.9165,0.9286,1.0527,1.1322,1.1676,1.1458,1.1826,1.2447,1.2329,1.2671,1.3261,1.3077,1.3003,1.3003,1.3003,1.3003,1.3003,1.3003,1.3003,1.3003,1.3003,1.3003,1.3003,1.3003,1.3003,1.2955,1.2758,1.2332,1.1965,1.1846,1.1431,1.1091,1.1132,1.1111,1.1023,1.0832,1.0465,1.01,0.0,0.0,0.0,0.0,0.9266,0.9279,0.9349,0.9451,0.9462,0.9417,0.9625,0.9747,0.9673,0.9873,1.0378,1.1159,1.1492,1.2207,1.3363,1.3119,1.3444,1.4448,1.4153,1.4309,1.4916,1.5092,1.5181,1.5181,1.5181,1.5181,1.5181,1.5181,1.5181,1.5181,1.5181,1.5181,1.5181,1.5181,1.5181,1.5181,1.5181,1.5181,1.5181,0.8743,0.8662,0.871,0.871,0.9514,1.0184,1.0184,1.0468,1.0874,1.143,1.1584,1.1773,1.2037,1.2461,1.2433,1.1755,1.1531,1.1497,1.1687,1.128,1.1504,1.2556,1.2314,1.2026,1.159,1.1584,1.1448,1.1171,1.0344,1.0086,1.0392,0.953,0.9178,0.9281,0.9281,0.9328,0.9485,1.0689,1.1587,1.2173,1.1826,1.2149,0.0,1.2583,1.2942,1.3573,1.3403,1.3261,1.3152,1.3152,1.3152,1.3152,1.3152,1.3152,1.3152,1.3152,1.3152,1.3152,1.3152,1.3152,1.318,1.3111,1.2839,1.2588,1.2588,1.2275,1.2002,1.2064,1.203,1.1887,1.1518,1.1057,1.0526,0.0,0.0,0.0,0.0,0.9641,0.973,0.9503,0.9707,0.9788,0.9591,0.9598,0.9639,0.97,0.9744,1.01,1.0778,1.1308,1.1921,1.2603,1.2868,1.3234,1.3729,1.3614,1.3892,1.4622,1.4726,1.493,1.5181,1.5181,1.5181,1.5181,1.5181,1.5181,1.5181,1.5181,1.5181,1.5181,1.5181,1.5181,1.5181,1.5181,1.5181,1.5181,0.8607,0.8574,0.8703,0.8784,0.9795,1.063,1.0806,1.0901,1.1328,1.2291,1.2125,1.2149,1.2557,1.2834,1.2969,1.2887,1.1921,1.1764,1.2812,1.1417,1.1185,1.2659,1.2257,1.1881,1.1796,1.1796,1.1857,1.1942,1.0819,1.056,1.1172,0.9968,0.9424,0.9437,0.9437,0.951,0.9741,1.073,1.1621,1.2345,1.2345,1.2827,1.345,1.3004,1.3233,1.3795,1.3795,1.3632,1.3458,1.3458,1.3458,1.3458,1.3458,1.3458,1.3458,1.3458,1.3458,1.3458,1.3458,1.3458,1.3424,1.3295,1.3288,1.3234,1.3234,1.3159,1.3098,1.322,1.3146,1.286,1.2155,1.1572,1.0859,0.9737,0.9492,0.943,0.9417,0.9961,1.0154,0.9666,1.0148,0.0,0.9839,0.9707,0.9686,0.9785,0.9792,0.9992,1.041,1.1342,1.1839,1.1735,1.2753,1.3166,1.2841,1.3051,1.3547,1.4261,1.4272,1.4611,1.5181,1.5181,1.5181,1.5181,1.5181,1.5181,1.5181,1.5181,1.5181,1.5181,1.5181,1.5181,1.5181,1.5181,1.5181,1.5181,0.8498,0.8451,0.8682,0.9206,0.9659,1.0319,1.1428,1.2023,1.2239,1.1949,1.2427,1.2656,1.2261,1.269,1.2799,1.2302,1.2064,1.203,1.2241,1.1962,1.2139,1.2928,1.286,1.2792,1.2764,1.2764,1.2778,1.2805,1.1594,1.107,1.1172,0.9968,0.9449,0.9571,0.9571,1.0188,1.1206,1.0921,1.1518,1.2611,1.2611,1.2827,1.3159,1.3498,1.3687,1.3795,1.3795,1.3761,1.372,1.372,1.372,1.372,1.372,1.372,1.372,1.372,1.372,1.372,1.372,1.372,1.3714,1.3687,1.3592,1.3546,1.3546,1.3431,1.3329,1.3356,1.3342,1.3281,1.3152,1.2155,1.1118,1.0412,0.989,0.9523,0.943,1.0107,1.0385,0.9693,1.0243,1.0453,0.9846,0.9765,0.9765,0.9792,0.9792,1.0168,1.1002,1.0778,1.1166,1.2311,1.2101,1.2469,1.3592,1.3214,1.371,1.4984,1.4523,1.4611,1.5181,1.5181,1.5181,1.5181,1.5181,1.5181,1.5181,1.5181,1.5181,1.5181,1.5181,1.5181,1.5181,1.5181,1.5181,1.5181,0.9022,0.8771,0.8743,0.9213,0.9988,1.0738,1.1389,1.2393,1.2922,1.2474,1.2868,1.3118,1.2826,1.3152,1.3302,1.301,1.2744,1.2669,1.2861,1.2583,1.2603,1.3091,1.3111,1.2928,1.254,1.2839,1.2887,1.2656,1.1757,1.1321,1.1375,1.0168,0.9646,0.9704,1.0015,1.0556,1.1259,1.1584,1.2182,1.2874,1.3146,1.3397,1.3608,1.3851,1.4007,1.4082,1.4082,1.4082,1.4011,1.3849,1.3795,1.3795,1.3795,1.3795,1.3795,1.3795,1.3795,1.3795,1.3795,1.3795,1.3795,1.3795,1.3747,1.3693,1.3693,1.3639,1.3627,1.3627,1.3627,1.347,1.3125,1.2461,1.1769,1.1172,1.0507,1.0039,0.9971,1.0263,1.0385,1.01,1.0656,1.086,1.0305,1.0258,1.0123,0.9812,0.9866,1.0161,1.071,1.0832,1.1219,1.202,1.2223,1.2657,1.3376,1.3254,1.3709,1.4719,1.4434,1.4611,1.5181,1.5181,1.5181,1.5181,1.5181,1.5181,1.5181,1.5181,1.5181,1.5181,1.5181,1.5181,1.5181,1.5181,1.5181,1.5181,0.9808,0.946,0.9313,0.973,1.0601,1.1356,1.1676,1.261,1.3247,1.3118,1.3308,1.3492,1.3492,1.366,1.3747,1.3619,1.3342,1.3186,1.3288,1.3051,1.3017,1.3166,1.3288,1.3037,1.2454,1.2914,1.2969,1.2576,1.1938,1.1606,1.1545,1.0468,1.0001,1.0055,1.0657,1.1076,1.1401,1.2341,1.2942,1.3282,1.3702,1.398,1.4122,1.4122,1.4217,1.4346,1.4346,1.4367,1.4353,1.4072,1.395,1.3896,1.3896,1.3896,1.3896,1.3896,1.3896,1.3896,1.3896,1.3896,1.3896,1.3896,1.3869,1.3849,1.3849,1.3822,1.3795,1.3795,1.3795,1.3619,1.3031,1.2739,1.2352,1.1726,1.1029,1.0487,1.0324,1.0371,1.0439,1.0487,1.0995,1.1179,1.0725,1.0663,1.0387,0.9879,0.9947,1.0157,1.05,1.0982,1.1362,1.1577,1.2404,1.2873,1.3003,1.322,1.3736,1.4489,1.436,1.4611,1.5181,1.5181,1.5181,1.5181,1.5181,1.5181,1.5181,1.5181,1.5181,1.5181,1.5181,1.5181,1.5181,1.5181,1.5181,1.5181,1.0603,1.065,1.0928,1.1703,1.1594,1.183,1.3193,1.3173,1.3125,1.3329,1.362,1.3754,1.3754,1.3781,1.3585,1.3132,1.3485,1.3315,1.2315,1.3166,1.3512,1.3043,1.3492,1.37,1.3632,1.3558,1.3504,1.3463,1.2759,1.206,1.1402,1.088,1.0677,1.0833,1.1428,1.2115,1.2819,1.2935,1.3377,1.4016,1.4071,1.4143,1.4278,1.4278,1.4367,1.4489,1.4489,1.4584,1.4647,1.462,1.443,1.4258,1.4258,1.4258,1.4258,1.4258,1.4258,1.4258,1.4258,1.4258,1.4258,1.4258,1.415,1.4048,1.4048,1.3939,1.3795,1.3795,1.3795,1.3774,1.3707,1.3132,1.2469,1.1874,1.1151,1.046,0.9788,1.0346,1.0752,1.0521,0.0,0.0,1.0718,1.048,1.0243,1.0008,0.9977,1.038,1.124,1.0968,1.1002,1.1563,1.1965,1.2445,1.2996,1.3159,1.388,1.5092,1.4557,1.4611,1.5181,1.5181,1.5181,1.5181,1.5181,1.5181,1.5181,1.5181,1.5181,1.5181,1.5181,1.5181,1.5181,1.5181,1.5181,1.5181,1.1769,1.1516,1.1504,1.2016,1.2247,1.2574,1.3139,1.3532,1.3804,1.3926,1.3966,1.398,1.398,1.4061,1.4021,1.3783,1.398,1.3878,1.3343,1.3715,1.3831,1.3505,1.3673,1.3795,1.3795,1.3741,1.3714,1.3714,1.2739,1.2125,1.1819,1.1274,1.1212,1.164,1.2244,1.2725,1.3152,1.3513,1.3894,1.4217,1.4299,1.4373,1.4434,1.4529,1.4552,1.4606,1.4606,1.464,1.4694,1.4694,1.4613,1.4518,1.4518,1.4502,1.4428,1.4428,1.4367,1.4299,1.4299,1.4299,1.4299,1.4299,1.4251,1.4211,1.4211,1.4163,1.4116,1.4116,1.4041,1.398,1.398,1.3661,1.3132,1.2442,1.2084,1.1631,1.0887,1.109,0.0,1.1796,0.0,1.1606,1.2026,1.1226,1.0698,1.0846,1.0488,1.0514,1.0962,1.1158,1.1619,1.24,1.2581,1.3146,1.42,1.3953,1.4299,1.5181,1.4943,1.495,1.5181,1.5181,1.5181,1.5181,1.5181,1.5181,1.5181,1.5181,1.5181,1.5181,1.5181,1.5181,1.5181,1.5181,1.5181,1.5181,1.2854,1.2562,1.2366,1.271,1.3111,1.3363,1.3234,1.3905,1.4367,1.419,1.4224,1.4272,1.4272,1.4367,1.436,1.4177,1.4326,1.4217,1.3709,1.4007,1.4055,1.3687,1.3835,1.393,1.393,1.3933,1.3905,1.3905,1.3017,1.2474,1.2288,1.1823,1.1934,1.2451,1.3057,1.3431,1.3593,1.4021,1.4292,1.4434,1.4536,1.4577,1.459,1.4654,1.4721,1.4808,1.4808,1.4789,1.4869,1.4869,1.4869,1.4809,1.4721,1.462,1.4577,1.4577,1.4509,1.4428,1.4428,1.4428,1.4428,1.4428,1.4428,1.4421,1.4373,1.436,1.4353,1.4306,1.4211,1.4136,1.4136,1.4048,1.37,1.3004,1.2888,1.2617,1.1918,1.1816,0.0,1.2535,1.2054,1.1965,1.273,1.1823,1.1205,1.1321,1.1016,1.0873,1.0948,1.1301,1.1837,1.2603,1.2628,1.3173,1.4472,1.417,1.4421,1.5181,1.5181,1.5181,1.5181,1.5181,1.5181,1.5181,1.5181,1.5181,1.5181,1.5181,1.5181,1.5181,1.5181,1.5181,1.5181,1.5181,1.5181,1.5181,1.3781,1.3774,1.3869,1.4217,1.4278,1.4183,1.3835,1.4302,1.4478,1.3883,1.4315,1.4687,1.4687,1.4687,1.4451,1.3856,1.4349,1.4126,1.2794,1.3851,1.4177,1.3437,1.398,1.4292,1.4292,1.4143,1.4112,1.4112,1.3899,1.3403,1.2679,1.2672,1.2874,1.3227,1.3833,1.4224,1.4496,1.4502,1.4545,1.4687,1.4687,1.4687,1.4694,1.4694,1.4835,1.5017,1.5017,1.5059,1.5174,1.5174,1.5174,1.5126,1.4789,1.4694,1.4687,1.4687,1.4687,1.4687,1.4687,1.4687,1.4687,1.4687,1.4687,1.4647,1.4543,1.4509,1.4468,1.4326,1.4299,1.4299,1.4299,1.4299,1.4095,1.3492,1.3268,1.2963,1.2366,1.2284,0.0,1.2291,1.202,1.1915,1.2271,1.2006,1.164,1.1234,1.1436,1.1606,1.157,1.1328,1.1375,1.1793,1.1671,1.2135,1.3227,1.3342,1.4007,1.5181,1.5181,1.5181,1.5181,1.5181,1.5181,1.5181,1.5181,1.5181,1.5181,1.5181,1.5181,1.5181,1.5181,1.5181,1.5181,1.5181,1.5181,1.5181,1.3105,1.3781,1.4309,1.3998,1.4282,1.4525,1.4424,1.4706,1.4828,1.4638,1.4862,1.5038,1.5038,1.4862,1.462,1.4424,1.4207,1.4072,1.4058,1.4031,1.4086,1.4261,1.4058,1.3944,1.3944,1.3939,1.3865,1.377,1.3722,1.3477,1.3186,1.3254,1.3607,1.4095,1.4394,1.4577,1.462,1.462,1.4654,1.4701,1.4855,1.4896,1.4909,1.5004,1.5072,1.516,1.516,1.5147,1.5181,1.5181,1.5181,1.5167,1.5072,1.4977,1.4896,1.4896,1.4821,1.4694,1.4694,1.4694,1.4694,1.4694,1.4694,1.4681,1.4633,1.462,1.4606,1.4566,1.4552,1.4525,1.4462,1.4441,1.4183,1.3376,1.3641,1.3695,1.299,1.2895,1.2929,1.3037,1.242,1.2271,1.2976,1.2501,1.221,1.2411,1.2139,1.1877,1.1732,1.206,1.2623,1.3485,1.337,1.3695,1.4581,1.419,1.4407,1.5181,1.5181,1.5181,1.5181,1.5181,1.5181,1.5181,1.5181,1.5181,1.5181,1.5181,1.5181,1.5181,1.5181,1.5181,1.5181,1.5181,1.5181,1.5181,1.3497,1.4119,1.4593,1.4319,1.4577,1.4774,1.4604,1.4848,1.497,1.4746,1.4991,1.5181,1.5181,1.5018,1.4909,1.4909,1.4563,1.4482,1.4808,1.4475,1.4407,1.4681,1.4336,1.4133,1.4133,1.4133,1.4092,1.4004,1.4004,1.3957,1.3905,1.3957,1.42,1.4604,1.4654,1.4728,1.4828,1.4828,1.4855,1.4916,1.5011,1.5098,1.5059,1.5147,1.5181,1.5181,1.5181,1.5181,1.5181,1.5181,1.5181,1.5181,1.5181,1.512,1.5098,1.5098,1.4984,1.4909,1.4909,1.4909,1.4909,1.4909,1.4909,1.4889,1.4841,1.4735,1.4694,1.4694,1.4694,1.4667,1.4572,1.4597,1.4414,1.3851,1.4156,1.4299,1.3831,1.3566,1.3478,1.3634,1.2996,1.2826,1.3573,1.3234,1.3071,1.32,1.2744,1.2454,1.2537,1.2584,1.3024,1.3851,1.3838,1.415,1.4841,1.4489,1.4597,1.5181,1.5181,1.5181,1.5181,1.5181,1.5181,1.5181,1.5181,1.5181,1.5181,1.5181,1.5181,1.5181,1.5181,1.5181,1.5181,1.5181,1.5181,1.5181,1.4606,1.4667,1.4755,1.4909,1.5003,1.4887,1.4428,1.4828,1.4984,1.4434,1.4841,1.5181,1.5181,1.5181,1.5181,1.5181,1.5147,1.5079,1.5037,1.495,1.4882,1.4728,1.4687,1.4667,1.4667,1.4667,1.4681,1.4708,1.4701,1.4694,1.4694,1.4708,1.4708,1.4708,1.4721,1.4848,1.503,1.503,1.5112,1.5181,1.5181,1.5181,1.5181,1.5181,1.5181,1.5181,1.5181,1.5181,1.5181,1.5181,1.5181,1.5181,1.5181,1.5181,1.5181,1.5181,1.5181,1.5181,1.5181,1.5181,1.5181,1.5181,1.5181,1.5147,1.5064,1.4875,1.4721,1.4721,1.4721,1.4721,1.4714,1.4708,1.4708,1.4694,1.4694,1.4681,1.464,1.414,1.3865,1.398,1.3567,1.3472,1.4,1.4139,1.3994,1.3653,1.3288,1.3295,1.3815,1.3098,1.2847,1.3336,1.3451,1.3797,1.436,1.436,1.4638,1.5181,1.5181,1.5181,1.5181,1.5181,1.5181,1.5181,1.5181,1.5181,1.5181,1.5181,1.5181,1.5181,1.5181,1.5181,1.5181,1.5181,1.5181,1.5181,1.3783,1.4455,1.495,1.4529,1.4835,1.5146,1.4991,1.5092,1.5133,1.4991,1.5092,1.5181,1.5181,1.5181,1.5181,1.5181,1.4767,1.4685,1.5106,1.4713,1.4645,1.5059,1.4645,1.4401,1.4401,1.4401,1.457,1.4916,1.4801,1.4694,1.4694,1.4862,1.4916,1.4923,1.5031,1.5099,1.5133,1.5133,1.5153,1.5181,1.5181,1.5181,1.5181,1.5181,1.5181,1.5181,1.5181,1.5181,1.5181,1.5181,1.5181,1.5181,1.5181,1.5181,1.5181,1.5181,1.5181,1.5181,1.5181,1.5181,1.5181,1.5181,1.5181,1.5174,1.514,1.5106,1.5079,1.5079,1.5079,1.5045,1.4936,1.4916,1.4875,1.4714,1.4694,1.4532,1.4072,1.3795,1.3566,1.3302,1.3397,1.362,1.3871,1.4312,1.4462,1.4163,1.4041,1.4095,1.434,1.415,1.4245,1.4692,1.474,1.4828,1.497,1.4977,1.5045,1.5181,1.5181,1.5181,1.5181,1.5181,1.5181,1.5181,1.5181,1.5181,1.5181,1.5181,1.5181,1.5181,1.5181,1.5181,1.5181,1.5181,1.5181,1.5181,1.4265,1.474,1.5079,1.476,1.497,1.5181,1.5181,1.5181,1.5181,1.5181,1.5181,1.5181,1.5181,1.5181,1.5181,1.5181,1.4889,1.4841,1.516,1.4882,1.4848,1.5167,1.4875,1.4706,1.4706,1.4706,1.4821,1.5065,1.4984,1.4943,1.4943,1.5031,1.5065,1.5072,1.5147,1.5181,1.5181,1.5181,1.5181,1.5181,1.5181,1.5181,1.5181,1.5181,1.5181,1.5181,1.5181,1.5181,1.5181,1.5181,1.5181,1.5181,1.5181,1.5181,1.5181,1.5181,1.5181,1.5181,1.5181,1.5181,1.5181,1.5181,1.5181,1.5181,1.5181,1.5181,1.5181,1.5181,1.5181,1.516,1.5079,1.5065,1.5038,1.4957,1.4658,1.4319,1.3994,1.3641,1.3431,1.3506,1.3743,1.4075,1.4421,1.4746,1.4875,1.4713,1.4455,1.4455,1.4801,1.4563,1.4652,1.5167,1.5181,1.5181,1.5181,1.5181,1.5181,1.5181,1.5181,1.5181,1.5181,1.5181,1.5181,1.5181,1.5181,1.5181,1.5181,1.5181,1.5181,1.5181,1.5181,1.5181,1.5181,1.5181,1.5181,1.5181,1.5181,1.5181,1.5181,1.5181,1.5181,1.5181,1.5181,1.5181,1.5181,1.5181,1.5181,1.5181,1.5181,1.5181,1.5181,1.5181,1.5181,1.5181,1.5181,1.5181,1.5181,1.5181,1.5181,1.5181,1.5181,1.5181,1.5181,1.5181,1.5181,1.5181,1.5181,1.5181,1.5181,1.5181,1.5181,1.5181,1.5181,1.5181,1.5181,1.5181,1.5181,1.5181,1.5181,1.5181,1.5181,1.5181,1.5181,1.5181,1.5181,1.5181,1.5181,1.5181,1.5181,1.5181,1.5181,1.5181,1.5181,1.5181,1.5181,1.5181,1.5181,1.5181,1.5181,1.5181,1.5181,1.5181,1.5181,1.5181,1.5181,1.5181,1.5181,1.5181,1.5153,1.5065,1.4502,1.4091,1.398,1.3629,1.3547,1.4084,1.4299,1.4631,1.5133,1.5181,1.5181,1.5181,1.4719,1.4652,1.5153,1.4706,1.4665,1.5167,1.5181,1.5181,1.5181,1.5181,1.5181,1.5181,1.5181,1.5181,1.5181,1.5181,1.5181,1.5181,1.5181,1.5181,1.5181,1.5181,1.5181,1.5181,1.5181,1.5181,1.5181,1.5181,1.5181,1.5181,1.5181,1.5181,1.5181,1.5181,1.5181,1.5181,1.5181,1.5181,1.5181,1.5181,1.5181,1.5181,1.5181,1.5181,1.5181,1.5181,1.5181,1.5181,1.5181,1.5181,1.5181,1.5181,1.5181,1.5181,1.5181,1.5181,1.5181,1.5181,1.5181,1.5181,1.5181,1.5181,1.5181,1.5181,1.5181,1.5181,1.5181,1.5181,1.5181,1.5181,1.5181,1.5181,1.5181,1.5181,1.5181,1.5181,1.5181,1.5181,1.5181,1.5181,1.5181,1.5181,1.5181,1.5181,1.5181,1.5181,1.5181,1.5181,1.5181,1.5181,1.5181,1.5181,1.5181,1.5181,1.5181,1.5181,1.5181,1.5181,1.5181,1.5181,1.5181,1.5181,1.5018,1.4516,1.4231,1.3939,1.3559,1.3749,1.4057,1.4238,1.4726,1.5079,1.5174,1.5181,1.5181,1.5181,1.5099,1.5086,1.5174,1.5092,1.5086,1.5181,1.5181,1.5181,1.5181,1.5181,1.5181,1.5181,1.5181,1.5181,1.5181,1.5181,1.5181,1.5181,1.5181,1.5181,1.5181,1.5181,1.5181,1.5181,1.5181,1.5181,1.5181,1.5181,1.5181,1.5181,1.5181,1.5181,1.5181,1.5181,1.5181,1.5181,1.5181,1.5181,1.5181,1.5181,1.5181,1.5181,1.5181,1.5181,1.5181,1.5181,1.5181,1.5181,1.5181,1.5181,1.5181,1.5181,1.5181,1.5181,1.5181,1.5181,1.5181,1.5181,1.5181,1.5181,1.5181,1.5181,1.5181,1.5181,1.5181,1.5181,1.5181,1.5181,1.5181,1.5181,1.5181,1.5181,1.5181,1.5181,1.5181,1.5181,1.5181,1.5181,1.5181,1.5181,1.5181,1.5181,1.5181,1.5181,1.5181,1.5181,1.5181,1.5181,1.5181,1.5181,1.5181,1.5181,1.5181,1.5181,1.5181,1.5181,1.5181,1.5181,1.5181,1.5181,1.5181,1.5181,1.5092,1.4821,1.438,1.4,1.379,1.3939,1.4139,1.417,1.4774,1.5181,1.5181,1.5181,1.5181,1.5181,1.5181,1.5181,1.5181,1.5181,1.5181,1.5181,1.5181,1.5181,1.5181,1.5181,1.5181,1.5181,1.5181,1.5181,1.5181,1.5181,1.5181,1.5181,1.5181,1.5181,1.5181,1.5181,1.5181,1.5181,1.5181,1.5181,1.5181,1.5181,1.5181,1.5181,1.5181,1.5181,1.5181,1.5181,1.5181,1.5181,1.5181,1.5181,1.5181,1.5181,1.5181,1.5181,1.5181,1.5181,1.5181,1.5181,1.5181,1.5181,1.5181,1.5181,1.5181,1.5181,1.5181,1.5181,1.5181,1.5181,1.5181,1.5181,1.5181,1.5181,1.5181,1.5181,1.5181,1.5181,1.5181,1.5181,1.5181,1.5181,1.5181,1.5181,1.5181,1.5181,1.5181,1.5181,1.5181,1.5181,1.5181,1.5181,1.5181,1.5181,1.5181,1.5181,1.5181,1.5181,1.5181,1.5181,1.5181,1.5181,1.5181,1.5181,1.5181,1.5181,1.5181,1.5181,1.5181,1.5181,1.5181,1.5181,1.5181,1.5181,1.5181,1.5181,1.5133,1.4997,1.4468,1.4125,1.4122,1.4139,1.418,1.4357,1.4881,1.5181,1.5181,1.5181,1.5181,1.5181,1.5181,1.5181,1.5181,1.5181,1.5181,1.5181,1.5181,1.5181,1.5181,1.5181,1.5181,1.5181,1.5181,1.5181,1.5181,1.5181,1.5181,1.5181,1.5181,1.5181,1.5181,1.5181,1.5181,1.5181,1.5181,1.5181,1.5181,1.5181,1.5181,1.5181,1.5181,1.5181,1.5181,1.5181,1.5181,1.5181,1.5181,1.5181,1.5181,1.5181,1.5181,1.5181,1.5181,1.5181,1.5181,1.5181,1.5181,1.5181,1.5181,1.5181,1.5181,1.5181,1.5181,1.5181,1.5181,1.5181,1.5181,1.5181,1.5181,1.5181,1.5181,1.5181,1.5181,1.5181,1.5181,1.5181,1.5181,1.5181,1.5181,1.5181,1.5181,1.5181,1.5181,1.5181,1.5181,1.5181,1.5181,1.5181,1.5181,1.5181,1.5181,1.5181,1.5181,1.5181,1.5181,1.5181,1.5181,1.5181,1.5181,1.5181,1.5181,1.5181,1.5181,1.5181,1.5181,1.5181,1.5181,1.5181,1.5181,1.5181,1.5181,1.5181,1.5004,1.4455,1.4197,1.4122,1.4265,1.4163,1.437,1.5018,1.5147,1.5181,1.5181,1.5181,1.5181,1.5181,1.5181,1.5181,1.5181,1.5181,1.5181,1.5181,1.5181,1.5181,1.5181,1.5181,1.5181,1.5181,1.5181,1.5181,1.5181,1.5181,1.5181,1.5181,1.5181,1.5181,1.5181,1.5181,1.5181,1.5181,1.5181,1.5181,1.5181,1.5181,1.5181,1.5181,1.5181,1.5181,1.5181,1.5181,1.5181,1.5181,1.5181,1.5181,1.5181,1.5181,1.5181,1.5181,1.5181,1.5181,1.5181,1.5181,1.5181,1.5181,1.5181,1.5181,1.5181,1.5181,1.5181,1.5181,1.5181,1.5181,1.5181,1.5181,1.5181,1.5181,1.5181,1.5181,1.5181,1.5181,1.5181,1.5181,1.5181,1.5181,1.5181,1.5181,1.5181,1.5181,1.5181,1.5181,1.5181,1.5181,1.5181,1.5181,1.5181,1.5181,1.5181,1.5181,1.5181,1.5181,1.5181,1.5181,1.5181,1.5181,1.5181,1.5181,1.5181,1.5181,1.5181,1.5181,1.5181,1.5181,1.5181,1.5181,1.5181,1.5181,1.5181,1.5181,1.5106,1.4882,1.4801,1.478,1.4841,1.4801,1.4908,1.5147,1.5181,1.5181,1.5181,1.5181,1.5181,1.5181,1.5181,1.5181,1.5181,1.5181,1.5181,1.5181,1.5181,1.5181,1.5181,1.5181,1.5181,1.5181,1.5181,1.5181,1.5181,1.5181,1.5181,1.5181,1.5181,1.5181,1.5181,1.5181,1.5181,1.5181,1.5181,1.5181,1.5181,1.5181,1.5181,1.5181,1.5181,1.5181,1.5181,1.5181,1.5181,1.5181,1.5181,1.5181,1.5181,1.5181,1.5181,1.5181,1.5181,1.5181,1.5181,1.5181,1.5181,1.5181,1.5181,1.5181,1.5181,1.5181,1.5181,1.5181,1.5181,1.5181,1.5181,1.5181,1.5181,1.5181,1.5181,1.5181,1.5181,1.5181,1.5181,1.5181,1.5181,1.5181,1.5181,1.5181,1.5181,1.5181,1.5181,1.5181,1.5181,1.5181,1.5181,1.5181,1.5181,1.5181,1.5181,1.5181,1.5181,1.5181,1.5181,1.5181,1.5181,1.5181,1.5181,1.5181,1.5181,1.5181,1.5181,1.5181,1.5181,1.5181,1.5181,1.5181,1.5181,1.5181,1.5181,1.5181,1.5181,1.5181,1.5181,1.5181,1.5181,1.5181,1.5181,1.5181,1.5181,1.5181,1.5181,1.5181,1.5181,1.5181,1.5181,1.5181,1.5181,1.5181,1.5181,1.5181,1.5181,1.5181,1.5181,1.5181,1.5181,1.5181,1.5181,1.5181,1.5181,1.5181,1.5181,1.5181,1.5181,1.5181,1.5181,1.5181,1.5181,1.5181,1.5181,1.5181,1.5181,1.5181,1.5181,1.5181,1.5181,1.5181,1.5181,1.5181,1.5181,1.5181,1.5181,1.5181,1.5181,1.5181,1.5181,1.5181,1.5181,1.5181,1.5181,1.5181,1.5181,1.5181,1.5181,1.5181,1.5181,1.5181,1.5181,1.5181,1.5181,1.5181,1.5181,1.5181,1.5181,1.5181,1.5181,1.5181,1.5181,1.5181,1.5181,1.5181,1.5181,1.5181,1.5181,1.5181,1.5181,1.5181,1.5181,1.5181,1.5181,1.5181,1.5181,1.5181,1.5181,1.5181,1.5181,1.5181,1.5181,1.5181,1.5181,1.5181,1.5181,1.5181,1.5181,1.5181,1.5181,1.5181,1.5181,1.5181,1.5181,1.5181,1.5181,1.5181,1.5181,1.5181,1.5181,1.5181,1.5181,1.5181,1.5181,1.5181,1.5181,1.5181,1.5181,1.5181,1.5181,1.5181,1.5181,1.5181,1.5181,1.5181,1.5181,1.5181,1.5181,1.5181,1.5181,1.5181,1.5181,1.5181,1.5181,1.5181,1.5181,1.5181,1.5181,1.5181,1.5181,1.5181,1.5181,1.5181,1.5181,1.5181,1.5181,1.5181,1.5181,1.5181,1.5181,1.5181,1.5181,1.5181,1.5181,1.5181,1.5181,1.5181,1.5181,1.5181,1.5181,1.5181,1.5181,1.5181,1.5181,1.5181,1.5181,1.5181,1.5181,1.5181,1.5181,1.5181,1.5181,1.5181,1.5181,1.5181,1.5181,1.5181,1.5181,1.5181,1.5181,1.5181,1.5181,1.5181,1.5181,1.5181,1.5181,1.5181,1.5181,1.5181,1.5181,1.5181,1.5181,1.5181,1.5181,1.5181,1.5181,1.5181,1.5181,1.5181,1.5181,1.5181,1.5181,1.5181,1.5181,1.5181,1.5181,1.5181,1.5181,1.5181,1.5181,1.5181,1.5181,1.5181,1.5181,1.5181,1.5181,1.5181,1.5181,1.5181,1.5181,1.5181,1.5181,1.5181,1.5181,1.5181,1.5181,1.5181,1.5181,1.5181,1.5181,1.5181,1.5181,1.5181,1.5181,1.5181,1.5181,1.5181,1.5181,1.5181,1.5181,1.5181,1.5181,1.5181,1.5181,1.5181,1.5181,1.5181,1.5181,1.5181,1.5181,1.5181,1.5181,1.5181,1.5181,1.5181,1.5181,1.5181,1.5181,1.5181,1.5181,1.5181,1.5181,1.5181,1.5181,1.5181,1.5181,1.5181,1.5181,1.5181,1.5181,1.5181,1.5181,1.5181,1.5181,1.5181,1.5181,1.5181,1.5181,1.5181,1.5181,1.5181,1.5181,1.5181,1.5181,1.5181,1.5181,1.5181,1.5181,1.5181,1.5181,1.5181,1.5181,1.5181,1.5181,1.5181,1.5181,1.5181,1.5181,1.5181,1.5181,1.5181,1.5181,1.5181,1.5181,1.5181,1.5181,1.5181,1.5181,1.5181,1.5181,1.5181,1.5181,1.5181,1.5181,1.5181,1.5181,1.5181,1.5181,1.5181,1.5181,1.5181,1.5181,1.5181,1.5181,1.5181,1.5181,1.5181,1.5181,1.5181,1.5181,1.5181,1.5181,1.5181,1.5181,1.5181,1.5181,1.5181,1.5181,1.5181,1.5181,1.5181,1.5181,1.5181,1.5181,1.5181,1.5181,1.5181,1.5181,1.5181,1.5181,1.5181,1.5181,1.5181,1.5181,1.5181,1.5181,1.5181,1.5181,1.5181,1.5181,1.5181,1.5181,1.5181,1.5181,1.5181,1.5181,1.5181,1.5181,1.5181,1.5181,1.5181,1.5181,1.5181,1.5181,1.5181,1.5181,1.5181,1.5181,1.5181,1.5181,1.5181,1.5181,1.5181,1.5181,1.5181,1.5181,1.5181,1.5201,1.5194,1.5181,1.5181,1.5181,1.5181,1.5181,1.5181,1.5181,1.5181,1.5181,1.5181,1.5181,1.5181,1.5181,1.5181,1.5181,1.5181,1.5181,1.5181,1.5181,1.5181,1.5181,1.5181,1.5181,1.5181,1.5181,1.5181,1.5181,1.5181,1.5181,1.5181,1.5181,1.5181,1.5181,1.5181,1.5181,1.5181,1.5181,1.5181,1.5181,1.5181,1.5181,1.5181,1.5181,1.5181,1.5181,1.5181,1.5181,1.5181,1.5181,1.5181,1.5181,1.5181,1.5181,1.5181,1.5181,1.5181,1.5181,1.5181,1.5181,1.5181,1.5181,1.5181,1.5181,1.5181,1.5181,1.5181,1.5181,1.5181,1.5181,1.5181,1.5181,1.5181,1.5181,1.5181,1.5181,1.5181,1.5181,1.5181,1.5181,1.5181,1.5181,1.5181,1.5181,1.5181,1.5181,1.5181,1.5181,1.5181,1.5181,1.5181,1.5181,1.5181,1.5181,1.5181,1.5181,1.5181,1.5181,1.5181,1.5181,1.5181,1.5181,1.5181,1.5181,1.5181,1.5181,1.5181,1.5181,1.5181,1.5181,1.5181,1.5181,1.5181,1.5181,1.5181,1.5364,1.5262,1.5181,1.5181,1.5181,1.5181,1.5181,1.5181,1.5181,1.5181,1.5181,1.5181,1.5181,1.5181,1.5181,1.5181,1.5181,1.5181,1.5181,1.5181,1.5181,1.5181,1.5181,1.5181,1.5181,1.5181,1.5181,1.5181,1.5181,1.5181,1.5181,1.5181,1.5181,1.5181,1.5181,1.5181,1.5181,1.5181,1.5181,1.5181,1.5181,1.5181,1.5181,1.5181,1.5181,1.5181,1.5181,1.5181,1.5181,1.5181,1.5181,1.5181,1.5181,1.5181,1.5181,1.5181,1.5181,1.5181,1.5181,1.5181,1.5181,1.5181,1.5181,1.5181,1.5181,1.5181,1.5181,1.5181,1.5181,1.5181,1.5181,1.5181,1.5181,1.5181,1.5181,1.5181,1.5181,1.5181,1.5181,1.5181,1.5181,1.5181,1.5181,1.5181,1.5181,1.5181,1.5181,1.5181,1.5181,1.5181,1.5181,1.5181,1.5181,1.5181,1.5181,1.5181,1.5181,1.5181,1.5181,1.5181,1.5181,1.5181,1.5181,1.5181,1.5181,1.5181,1.5181,1.5181,1.5181,1.5181,1.5181,1.5181,1.5181,1.5181,1.5181,1.5181,1.552,1.5452,1.5398,1.5398,1.5398,1.5377,1.5303,1.5289,1.5262,1.5194,1.5181,1.5181,1.5181,1.5181,1.5181,1.5181,1.5181,1.5181,1.5181,1.5181,1.5181,1.5181,1.5181,1.5181,1.5181,1.5181,1.5181,1.5181,1.5181,1.5181,1.5181,1.5181,1.5181,1.5181,1.5181,1.5181,1.5181,1.5181,1.5181,1.5181,1.5181,1.5181,1.5181,1.5181,1.5181,1.5181,1.5181,1.5181,1.5181,1.5181,1.5181,1.5181,1.5181,1.5181,1.5181,1.5181,1.5181,1.5181,1.5181,1.5181,1.5181,1.5181,1.5181,1.5181,1.5181,1.5181,1.5181,1.5181,1.5181,1.5181,1.5181,1.5181,1.5181,1.5181,1.5181,1.5181,1.5181,1.5181,1.5181,1.5181,1.5181,1.5181,1.5181,1.5181,1.5181,1.5181,1.5181,1.5181,1.5181,1.5181,1.5181,1.5181,1.5181,1.5181,1.5181,1.5181,1.5181,1.5181,1.5181,1.5181,1.5181,1.5181,1.5181,1.5181,1.5181,1.5181,1.5181,1.5181,1.5181,1.5181,1.5181,1.5181,1.5181,1.5181,1.5181,1.5181,1.5627,1.5607,1.5593,1.5593,1.5593,1.5546,1.5466,1.5452,1.5398,1.5242,1.5221,1.5215,1.5187,1.5181,1.5181,1.5181,1.5181,1.5181,1.5181,1.5181,1.5181,1.5181,1.5181,1.5181,1.5181,1.5181,1.5181,1.5181,1.5181,1.5181,1.5181,1.5181,1.5181,1.5181,1.5181,1.5181,1.5181,1.5181,1.5181,1.5181,1.5181,1.5181,1.5181,1.5181,1.5181,1.5181,1.5181,1.5181,1.5181,1.5181,1.5181,1.5181,1.5181,1.5181,1.5181,1.5181,1.5181,1.5181,1.5181,1.5181,1.5181,1.5181,1.5181,1.5181,1.5181,1.5181,1.5181,1.5181,1.5181,1.5181,1.5181,1.5181,1.5181,1.5181,1.5181,1.5181,1.5181,1.5181,1.5181,1.5181,1.5181,1.5181,1.5181,1.5181,1.5181,1.5181,1.5181,1.5181,1.5181,1.5181,1.5181,1.5181,1.5181,1.5181,1.5181,1.5181,1.5181,1.5181,1.5181,1.5181,1.5181,1.5181,1.5181,1.5181,1.5181,1.5181,1.5181,1.5181,1.5181,1.5181,1.5181,1.5181,1.5181,1.5181,1.5181,1.5181,1.5874,1.5723,1.5593,1.5593,1.5593,1.5587,1.556,1.556,1.5506,1.5398,1.5377,1.533,1.5194,1.5181,1.5181,1.5181,1.5181,1.5181,1.5181,1.5181,1.5181,1.5181,1.5181,1.5181,1.5181,1.5181,1.5181,1.5181,1.5181,1.5181,1.5181,1.5181,1.5181,1.5181,1.5181,1.5181,1.5181,1.5181,1.5181,1.5181,1.5181,1.5181,1.5181,1.5181,1.5181,1.5181,1.5181,1.5181,1.5181,1.5181,1.5181,1.5181,1.5181,1.5181,1.5181,1.5181,1.5181,1.5181,1.5181,1.5181,1.5181,1.5181,1.5181,1.5181,1.5181,1.5181,1.5181,1.5181,1.5181,1.5181,1.5181,1.5181,1.5181,1.5181,1.5181,1.5181,1.5181,1.5181,1.5181,1.5181,1.5181,1.5181,1.5181,1.5181,1.5181,1.5181,1.5181,1.5181,1.5181,1.5181,1.5181,1.5181,1.5181,1.5181,1.5181,1.5181,1.5181,1.5181,1.5181,1.5181,1.5181,1.5181,1.5181,1.5181,1.5181,1.5181,1.5181,1.5181,1.5181,1.5181,1.5181,1.5181,1.5181,1.5181,1.5181,1.5181,1.603,1.5927,1.5886,1.5886,1.5886,1.5859,1.5771,1.5757,1.5676,1.5438,1.5411,1.535,1.5201,1.5181,1.5181,1.5181,1.5181,1.5181,1.5181,1.5181,1.5181,1.5181,1.5181,1.5181,1.5181,1.5181,1.5181,1.5181,1.5181,1.5181,1.5181,1.5181,1.5181,1.5181,1.5181,1.5181,1.5181,1.5181,1.5181,1.5181,1.5181,1.5181,1.5181,1.5181,1.5181,1.5181,1.5181,1.5181,1.5181,1.5181,1.5181,1.5181,1.5181,1.5181,1.5181,1.5181,1.5181,1.5181,1.5181,1.5181,1.5181,1.5181,1.5181,1.5181,1.5181,1.5181,1.5181,1.5181,1.5181,1.5181,1.5181,1.5181,1.5181,1.5181,1.5181,1.5181,1.5181,1.5181,1.5181,1.5181,1.5181,1.5181,1.5181,1.5181,1.5181,1.5181,1.5181,1.5181,1.5181,1.5181,1.5181,1.5181,1.5181,1.5181,1.5181,1.5181,1.5181,1.5181,1.5181,1.5181,1.5181,1.5181,1.5181,1.5181,1.5181,1.5181,1.5181,1.5181,1.5181,1.5181,1.5181,1.5181,1.5181,1.5181,1.5181,1.5181]},{"header":{"parameterUnit":"m.s-1","parameterCategory":1,"la1":30.6,"la2":28.766,"lo1":-90.7593,"lo2":-88.6598,"dy":0.0162,"dx":0.0183,"nx":116,"ny":114,"refTime":"2023-09-26T12:00:00:Z","depth":0,"parameterNumber":3,"parameterNumberName":"V-component_of_WINDS"},"data":[0.0,0.0,0.0,0.0,0.0,0.0,0.0,0.0,0.0,0.0,0.0,0.0,0.0,0.0,0.0,0.0,0.0,0.0,0.0,0.0,0.0,0.0,0.0,0.0,0.0,0.0,0.0,0.0,0.0,0.0,0.0,0.0,0.0,0.0,0.0,0.0,0.0,0.0,0.0,0.0,0.0,0.0,0.0,0.0,0.0,0.0,0.0,0.0,0.0,0.0,0.0,0.0,0.0,0.0,0.0,0.0,0.0,0.0,0.0,0.0,0.0,0.0,0.0,0.0,0.0,0.0,0.0,0.0,0.0,0.0,0.0,0.0,0.0,0.0,0.0,0.0,0.0,0.0,0.0,0.0,0.0,0.0,0.0,0.0,0.0,0.0,0.0,0.0,0.0,0.0,0.0,0.0,0.0,0.0,0.0,0.0,0.0,0.0,0.0,0.0,0.0,0.0,0.0,0.0,0.0,0.0,0.0,0.0,0.0,0.0,0.0,0.0,0.0,0.0,0.0,0.0,0.0,0.0,0.0,0.0,0.0,0.0,0.0,0.0,0.0,0.0,0.0,0.0,0.0,0.0,0.0,0.0,0.0,0.0,0.0,0.0,0.0,0.0,0.0,0.0,0.0,0.0,0.0,0.0,0.0,0.0,0.0,0.0,0.0,0.0,0.0,0.0,0.0,0.0,0.0,0.0,0.0,0.0,0.0,0.0,0.0,0.0,0.0,0.0,0.0,0.0,0.0,0.0,0.0,0.0,0.0,0.0,0.0,0.0,0.0,0.0,0.0,0.0,0.0,0.0,0.0,0.0,0.0,0.0,0.0,0.0,0.0,0.0,0.0,0.0,0.0,0.0,0.0,0.0,0.0,0.0,0.0,0.0,0.0,0.0,0.0,0.0,0.0,0.0,0.0,0.0,0.0,0.0,0.0,0.0,0.0,0.0,0.0,0.0,0.0,0.0,0.0,0.0,0.0,0.0,0.0,0.0,0.0,0.0,0.0,0.0,0.0,0.0,0.0,0.0,0.0,0.0,0.0,0.0,0.0,0.0,0.0,0.0,0.0,0.0,0.0,0.0,0.0,0.0,0.0,0.0,0.0,0.0,0.0,0.0,0.0,0.0,0.0,0.0,0.0,0.0,0.0,0.0,0.0,0.0,0.0,0.0,0.0,0.0,0.0,0.0,0.0,0.0,0.0,0.0,0.0,0.0,0.0,0.0,0.0,0.0,0.0,0.0,0.0,0.0,0.0,0.0,0.0,0.0,0.0,0.0,0.0,0.0,0.0,0.0,0.0,0.0,0.0,0.0,0.0,0.0,0.0,0.0,0.0,0.0,0.0,0.0,0.0,0.0,0.0,0.0,0.0,0.0,0.0,0.0,0.0,0.0,0.0,0.0,0.0,0.0,0.0,0.0,0.0,0.0,0.0,0.0,0.0,0.0,0.0,0.0,0.0,0.0,0.0,0.0,0.0,0.0,0.0,0.0,0.0,0.0,0.0,0.0,0.0,0.0,0.0,0.0,0.0,0.0,0.0,0.0,0.0,0.0,0.0,0.0,0.0,0.0,0.0,0.0,0.0,0.0,0.0,0.0,0.0,0.0,0.0,0.0,0.0,0.0,0.0,0.0,0.0,0.0,0.0,0.0,0.0,0.0,0.0,0.0,0.0,0.0,0.0,0.0,0.0,0.0,0.0,0.0,0.0,0.0,0.0,0.0,0.0,0.0,0.0,0.0,0.0,0.0,0.0,0.0,0.0,0.0,0.0,0.0,0.0,0.0,0.0,0.0,0.0,0.0,0.0,0.0,0.0,0.0,0.0,0.0,0.0,0.0,0.0,0.0,0.0,0.0,0.0,0.0,0.0,0.0,0.0,0.0,0.0,0.0,0.0,0.0,0.0,0.0,0.0,0.0,0.0,0.0,0.0,0.0,0.0,0.0,0.0,0.0,0.0,0.0,0.0,0.0,0.0,0.0,0.0,0.0,0.0,0.0,0.0,0.0,0.0,0.0,0.0,0.0,0.0,0.0,0.0,0.0,0.0,0.0,0.0,0.0,0.0,0.0,0.0,0.0,0.0,0.0,0.0,0.0,0.0,0.0,0.0,0.0,0.0,0.0,0.0,0.0,0.0,0.0,0.0,0.0,0.0,0.0,0.0,0.0,0.0,0.0,0.0,0.0,0.0,0.0,0.0,0.0,0.0,0.0,0.0,0.0,0.0,0.0,0.0,0.0,0.0,0.0,0.0,0.0,0.0,0.0,0.0,0.0,0.0,0.0,0.0,0.0,0.0,0.0,0.0,0.0,0.0,0.0,0.0,0.0,0.0,0.0,0.0,0.0,0.0,0.0,0.0,0.0,0.0,0.0,0.0,0.0,0.0,0.0,0.0,0.0,0.0,0.0,0.0,0.0,0.0,0.0,0.0,0.0,0.0,0.0,0.0,0.0,0.0,0.0,0.0,0.0,0.0,0.0,0.0,0.0,0.0,0.0,0.0,0.0,0.0,0.0,0.0,0.0,0.0,0.0,0.0,0.0,0.0,0.0,0.0,0.0,0.0,0.0,0.0,0.0,0.0,0.0,0.0,0.0,0.0,0.0,0.0,0.0,0.0,0.0,0.0,0.0,0.0,0.0,0.0,0.0,0.0,0.0,0.0,0.0,0.0,0.0,0.0,0.0,0.0,0.0,0.0,0.0,0.0,0.0,0.0,0.0,0.0,0.0,0.0,0.0,0.0,0.0,0.0,0.0,0.0,0.0,0.0,0.0,0.0,0.0,0.0,0.0,0.0,0.0,0.0,0.0,0.0,0.0,0.0,0.0,0.0,0.0,0.0,0.0,0.0,0.0,0.0,0.0,0.0,0.0,0.0,0.0,0.0,0.0,0.0,0.0,0.0,0.0,0.0,0.0,0.0,0.0,0.0,0.0,0.0,0.0,0.0,0.0,0.0,0.0,0.0,0.0,0.0,0.0,0.0,0.0,0.0,0.0,0.0,0.0,0.0,0.0,0.0,0.0,0.0,0.0,0.0,0.0,0.0,0.0,0.0,0.0,0.0,0.0,0.0,0.0,0.0,0.0,0.0,0.0,0.0,0.0,0.0,0.0,0.0,0.0,0.0,0.0,0.0,0.0,0.0,0.0,0.0,0.0,0.0,0.0,0.0,0.0,0.0,0.0,0.0,0.0,0.0,0.0,0.0,0.0,0.0,0.0,0.0,0.0,0.0,0.0,0.0,0.0,0.0,0.0,0.0,0.0,0.0,0.0,0.0,0.0,0.0,0.0,0.0,0.0,0.0,0.0,0.0,0.0,0.0,0.0,0.0,0.0,0.0,0.0,0.0,0.0,0.0,0.0,0.0,0.0,0.0,0.0,0.0,0.0,0.0,0.0,0.0,0.0,0.0,0.0,0.0,0.0,0.0,0.0,0.0,0.0,0.0,0.0,0.0,0.0,0.0,0.0,0.0,0.0,0.0,0.0,0.0,0.0,0.0,0.0,0.0,0.0,0.0,0.0,0.0,0.0,0.0,0.0,0.0,0.0,0.0,0.0,0.0,0.0,0.0,0.0,0.0,0.0,0.0,0.0,0.0,0.0,0.0,0.0,0.0,0.0,0.0,0.0,0.0,0.0,0.0,0.0,0.0,0.0,0.0,0.0,0.0,0.0,0.0,0.0,0.0,0.0,0.0,0.0,0.0,0.0,0.0,0.0,0.0,0.0,0.0,0.0,0.0,0.0,0.0,0.0,0.0,0.0,0.0,0.0,0.0,0.0,0.0,0.0,0.0,0.0,0.0,0.0,0.0,0.0,0.0,0.0,0.0,0.0,0.0,0.0,0.0,0.0,0.0,0.0,0.0,0.0,0.0,0.0,0.0,0.0,0.0,0.0,0.0,0.0,0.0,0.0,0.0,0.0,0.0,0.0,0.0,0.0,0.0,0.0,0.0,0.0,0.0,0.0,0.0,0.0,0.0,0.0,0.0,0.0,0.0,0.0,0.0,0.0,0.0,0.0,0.0,0.0,0.0,0.0,0.0,0.0,0.0,0.0,0.0,0.0,0.0,0.0,0.0,0.0,0.0,0.0,0.0,0.0,0.0,0.0,0.0,0.0,0.0,0.0,0.0,0.0,0.0,0.0,0.0,0.0,0.0,0.0,0.0,0.0,0.0,0.0,0.0,0.0,0.0,0.0,0.0,0.0,0.0,0.0,0.0,0.0,0.0,0.0,0.0,0.0,0.0,0.0,0.0,0.0,0.0,0.0,0.0,0.0,0.0,0.0,0.0,0.0,0.0,0.0,0.0,0.0,0.0,0.0,0.0,0.0,0.0,0.0,0.0,0.0,0.0,0.0,0.0,0.0,0.0,0.0,0.0,0.0,0.0,0.0,0.0,0.0,0.0,0.0,0.0,0.0,0.0,0.0,0.0,0.0,0.0,0.0,0.0,0.0,0.0,0.0,0.0,0.0,0.0,0.0,0.0,0.0,0.0,0.0,0.0,0.0,0.0,0.0,0.0,0.0,0.0,0.0,0.0,0.0,0.0,0.0,0.0,0.0,0.0,0.0,0.0,0.0,0.0,0.0,0.0,0.0,0.0,0.0,0.0,0.0,0.0,0.0,0.0,0.0,0.0,0.0,0.0,0.0,0.0,0.0,0.0,0.0,0.0,0.0,0.0,0.0,0.0,0.0,0.0,0.0,0.0,0.0,0.0,0.0,0.0,0.0,0.0,0.0,0.0,0.0,0.0,0.0,0.0,0.0,0.0,0.0,0.0,0.0,0.0,0.0,0.0,0.0,0.0,0.0,0.0,0.0,0.0,0.0,0.0,0.0,0.0,0.0,0.0,0.0,0.0,0.0,0.0,0.0,0.0,0.0,0.0,0.0,0.0,0.0,0.0,0.0,0.0,0.0,0.0,0.0,0.0,0.0,0.0,0.0,0.0,0.0,0.0,0.0,0.0,0.0,0.0,0.0,0.0,0.0,0.0,0.0,0.0,0.0,0.0,0.0,0.0,0.0,0.0,0.0,0.0,0.0,0.0,0.0,0.0,0.0,0.0,0.0,0.0,0.0,0.0,0.0,0.0,0.0,0.0,0.0,0.0,0.0,0.0,0.0,0.0,0.0,0.0,0.0,0.0,0.0,0.0,0.0,0.0,0.0,0.0,0.0,0.0,0.0,0.0,0.0,0.0,0.0,0.0,0.0,0.0,0.0,0.0,0.0,0.0,0.0,0.0,0.0,0.0,0.0,0.0,0.0,0.0,0.0,0.0,0.0,0.0,0.0,0.0,0.0,0.0,0.0,0.0,0.0,0.0,0.0,0.0,0.0,0.0,0.0,0.0,0.0,0.0,0.0,0.0,0.0,0.0,0.0,0.0,0.0,0.0,0.0,0.0,0.0,0.0,0.0,0.0,0.0,0.0,0.0,0.0,0.0,0.0,0.0,0.0,0.0,0.0,0.0,0.0,0.0,0.0,0.0,0.0,0.0,0.0,0.0,0.0,0.0,0.0,0.0,0.0,0.0,0.0,0.0,0.0,0.0,0.0,0.0,0.0,0.0,0.0,0.0,0.0,0.0,0.0,0.0,0.0,0.0,0.0,0.0,0.0,0.0,0.0,0.0,0.0,0.0,0.0,0.0,0.0,0.0,0.0,0.0,0.0,0.0,0.0,0.0,0.0,0.0,0.0,0.0,0.0,0.0,0.0,0.0,0.0,0.0,0.0,0.0,0.0,0.0,0.0,0.0,0.0,0.0,0.0,0.0,0.0,0.0,0.0,0.0,0.0,0.0,0.0,0.0,0.0,0.0,0.0,0.0,0.0,0.0,0.0,0.0,0.0,0.0,0.0,0.0,0.0,0.0,0.0,0.0,0.0,0.0,0.0,0.0,0.0,0.0,0.0,0.0,0.0,0.0,0.0,0.0,0.0,0.0,0.0,0.0,0.0,0.0,0.0,0.0,0.0,0.0,0.0,0.0,0.0,0.0,0.0,0.0,0.0,0.0,0.0,0.0,0.0,0.0,0.0,0.0,0.0,0.0,0.0,0.0,0.0,0.0,0.0,0.0,0.0,0.0,0.0,0.0,0.0,0.0,0.0,0.0,0.0,0.0,0.0,0.0,0.0,0.0,0.0,0.0,2.9433,2.6123,0.0,0.0,0.0,0.0,0.0,0.0,0.0,0.0,0.0,0.0,0.0,0.0,0.0,0.0,0.0,0.0,0.0,0.0,0.0,0.0,0.0,0.0,0.0,0.0,0.0,0.0,0.0,0.0,0.0,0.0,0.0,0.0,0.0,0.0,0.0,0.0,0.0,2.5601,2.6474,2.7342,2.8203,2.8203,2.7305,2.5703,0.0,0.0,0.0,0.0,0.0,0.0,0.0,0.0,0.0,0.0,0.0,0.0,0.0,0.0,0.0,0.0,0.0,0.0,0.0,0.0,0.0,0.0,0.0,0.0,0.0,0.0,0.0,0.0,0.0,0.0,0.0,0.0,0.0,0.0,0.0,0.0,0.0,0.0,0.0,0.0,0.0,0.0,0.0,0.0,0.0,0.0,0.0,0.0,0.0,0.0,0.0,0.0,0.0,0.0,0.0,0.0,0.0,0.0,0.0,0.0,0.0,0.0,0.0,0.0,0.0,0.0,0.0,0.0,0.0,0.0,3.1352,2.9621,0.0,0.0,0.0,0.0,0.0,0.0,0.0,0.0,0.0,0.0,0.0,0.0,0.0,0.0,0.0,0.0,0.0,0.0,0.0,0.0,0.0,0.0,0.0,2.5305,2.5305,2.5305,2.5367,2.5383,2.5383,0.0,0.0,0.0,0.0,0.0,2.5475,2.5663,2.585,2.6032,2.7952,2.972,3.1328,3.1328,2.9805,2.7031,2.6758,0.0,0.0,0.0,0.0,0.0,0.0,0.0,0.0,0.0,0.0,0.0,0.0,0.0,0.0,0.0,0.0,0.0,0.0,0.0,0.0,0.0,0.0,0.0,0.0,0.0,0.0,0.0,0.0,0.0,0.0,0.0,0.0,0.0,0.0,0.0,0.0,0.0,0.0,0.0,0.0,0.0,0.0,0.0,0.0,0.0,0.0,0.0,0.0,0.0,0.0,0.0,0.0,0.0,0.0,0.0,0.0,0.0,0.0,0.0,0.0,0.0,0.0,0.0,3.2346,3.3003,3.3699,3.4391,3.4661,3.4622,3.4045,3.4202,3.4664,3.1974,0.0,0.0,0.0,0.0,0.0,0.0,0.0,0.0,0.0,0.0,0.0,0.0,0.0,0.0,0.0,0.0,0.0,0.0,0.0,2.5305,2.5305,2.5305,2.5305,2.5305,2.5322,2.5293,2.5293,0.0,0.0,0.0,0.0,2.5464,2.5393,2.6336,2.7143,2.7869,3.0426,3.2148,3.3086,3.3086,3.2812,3.2305,3.0859,2.8945,2.6875,0.0,0.0,0.0,0.0,0.0,0.0,0.0,0.0,0.0,0.0,0.0,0.0,0.0,0.0,0.0,0.0,0.0,0.0,0.0,0.0,0.0,0.0,0.0,0.0,0.0,0.0,0.0,0.0,0.0,0.0,0.0,0.0,0.0,0.0,0.0,0.0,0.0,0.0,0.0,0.0,0.0,2.758,2.9808,0.0,0.0,0.0,0.0,0.0,0.0,0.0,0.0,0.0,0.0,0.0,0.0,0.0,3.1041,3.1041,3.5007,3.7007,3.7046,4.0008,4.1508,4.1585,4.17,4.1777,4.1585,3.8623,0.0,3.7507,3.7819,0.0,0.0,0.0,0.0,0.0,0.0,0.0,0.0,0.0,0.0,0.0,0.0,0.0,0.0,0.0,0.0,0.0,0.0,0.0,0.0,0.0,2.6156,2.6774,2.6774,2.7615,2.7769,2.681,2.7198,0.0,0.0,2.6569,2.6833,2.6823,2.7282,2.8698,3.1074,3.3279,3.5039,3.6328,3.6328,3.6328,3.6289,3.5547,3.3242,2.9922,2.9805,0.0,0.0,0.0,0.0,0.0,0.0,0.0,0.0,0.0,0.0,0.0,0.0,0.0,0.0,0.0,0.0,0.0,0.0,0.0,0.0,0.0,0.0,0.0,0.0,0.0,0.0,0.0,0.0,0.0,0.0,0.0,0.0,0.0,0.0,0.0,0.0,0.0,0.0,0.0,2.775,2.9397,3.0986,3.1182,3.0155,0.0,0.0,0.0,0.0,0.0,0.0,0.0,0.0,0.0,3.2506,3.4776,3.6203,3.6626,3.9892,4.1781,4.2281,4.3782,4.4739,4.5235,4.5235,4.5466,4.5817,4.4316,4.3701,4.3393,3.9969,3.8857,3.9088,0.0,0.0,0.0,0.0,3.4276,3.5933,0.0,0.0,0.0,0.0,0.0,0.0,0.0,0.0,0.0,0.0,0.0,0.0,2.5962,2.7505,2.8544,2.8544,2.9695,2.9772,2.8316,2.8588,2.8124,2.6656,2.7038,2.7364,2.7593,2.8766,3.1087,3.4678,3.6249,3.7773,3.9258,3.9258,3.9258,3.9258,3.9023,3.6641,3.2812,3.2383,3.1094,2.9297,0.0,0.0,0.0,0.0,0.0,0.0,0.0,0.0,0.0,0.0,0.0,0.0,0.0,0.0,0.0,0.0,0.0,0.0,0.0,0.0,0.0,0.0,0.0,0.0,0.0,0.0,0.0,0.0,0.0,0.0,0.0,0.0,0.0,0.0,0.0,0.0,0.0,2.9613,3.1064,3.2625,3.3185,3.2501,0.0,0.0,0.0,0.0,0.0,0.0,3.3757,3.5129,3.622,3.6874,3.9805,4.1618,4.2233,4.4312,4.5696,4.6352,4.6352,4.6665,4.7255,4.7279,4.7622,4.8137,4.8137,4.8137,4.7752,4.2686,4.0969,4.1474,4.0819,3.9777,3.8619,3.8392,3.9281,4.055,0.0,0.0,0.0,0.0,0.0,0.0,0.0,0.0,0.0,0.0,0.0,2.7777,2.7777,2.9272,3.0269,3.0269,3.0346,3.0003,2.9088,2.8354,2.7546,2.6656,2.5925,2.5902,2.6744,3.0899,3.4752,3.832,3.9258,4.0156,4.1055,4.1055,4.1055,4.1016,4.0195,3.7891,3.4648,3.5391,3.4297,3.1914,3.1094,0.0,0.0,0.0,0.0,0.0,0.0,0.0,0.0,0.0,0.0,0.0,0.0,0.0,0.0,0.0,0.0,0.0,0.0,0.0,0.0,0.0,0.0,0.0,0.0,0.0,0.0,0.0,0.0,0.0,0.0,0.0,0.0,0.0,0.0,0.0,0.0,0.0,0.0,3.5124,3.6912,0.0,0.0,0.0,0.0,3.4234,3.5049,3.6635,3.907,4.0081,4.167,4.4102,4.5931,4.6904,4.6943,4.7832,4.8294,4.8333,4.8333,4.83,4.8217,4.8346,4.8372,4.8287,4.8287,4.8287,4.8234,4.7795,4.762,4.7428,4.497,4.397,4.3547,4.0396,4.1281,4.3932,0.0,0.0,0.0,0.0,0.0,0.0,0.0,0.0,2.5305,2.5305,2.6813,2.7893,2.7893,3.0352,3.2003,3.2003,3.3503,3.3849,3.2471,3.1586,3.0737,2.9926,2.8512,2.8693,3.0694,3.4554,3.7171,3.8459,3.9998,4.0898,4.1211,4.1211,4.1211,4.1172,4.0898,4.0039,3.8828,3.8008,3.6484,3.4609,3.4297,3.2851,0.0,0.0,0.0,0.0,0.0,0.0,0.0,0.0,0.0,0.0,0.0,0.0,0.0,0.0,0.0,0.0,0.0,0.0,0.0,0.0,0.0,0.0,0.0,0.0,0.0,0.0,0.0,0.0,0.0,0.0,0.0,0.0,0.0,0.0,0.0,0.0,0.0,3.6952,3.8429,0.0,3.8299,3.9144,3.9477,3.8803,4.1562,4.3658,4.4588,4.536,4.622,4.7107,4.773,4.8353,4.8894,4.9203,4.9863,5.095,5.095,5.1198,5.17,5.175,5.1748,5.1697,5.1697,5.1674,5.1593,5.1525,5.0165,4.8005,4.7086,4.674,4.6663,4.6047,4.6552,4.7625,0.0,0.0,0.0,0.0,0.0,0.0,0.0,2.5305,2.55,2.6118,2.7698,2.8967,2.9547,3.2083,3.3888,3.416,3.5734,3.6003,3.4318,3.3125,3.1852,3.0467,2.9852,3.1045,3.4265,3.6893,3.8571,3.9223,4.0748,4.1503,4.1504,4.1866,4.2026,4.2026,4.2031,4.2031,4.1953,4.0508,3.9062,3.7695,3.7109,3.5,3.2109,0.0,0.0,0.0,0.0,0.0,0.0,0.0,0.0,0.0,0.0,0.0,0.0,0.0,0.0,0.0,0.0,0.0,0.0,0.0,0.0,0.0,0.0,0.0,0.0,0.0,0.0,0.0,0.0,0.0,0.0,0.0,0.0,0.0,0.0,3.3579,3.6477,3.934,4.073,4.1678,4.2222,4.2923,4.3476,4.3705,4.6315,4.7911,4.7911,4.8662,4.9069,4.9069,4.9616,5.0202,5.0784,5.1057,5.1757,5.2885,5.2885,5.3143,5.3662,5.3694,5.3221,5.2446,5.3307,5.3144,5.2302,5.3085,5.2028,4.9869,4.985,4.9813,4.9889,5.0471,5.0664,5.0741,0.0,0.0,0.0,0.0,0.0,0.0,2.5305,2.5305,2.5923,2.7585,2.9311,3.1,3.2622,3.4465,3.5846,3.6619,3.6734,3.6042,3.4356,3.266,3.0621,2.8085,2.9618,3.2554,3.688,3.7851,3.9156,4.0852,4.1705,4.2133,4.2174,4.3124,4.3585,4.3589,4.3667,4.3711,4.3633,4.2812,4.1992,4.1133,3.9375,3.7148,3.4648,0.0,0.0,0.0,0.0,0.0,0.0,0.0,0.0,0.0,0.0,0.0,0.0,0.0,0.0,0.0,0.0,0.0,0.0,0.0,0.0,0.0,0.0,0.0,0.0,0.0,0.0,0.0,0.0,0.0,0.0,0.0,0.0,0.0,3.469,3.7656,4.0485,4.2343,4.4011,4.5724,4.7461,4.7656,4.8047,4.8867,4.8945,4.8984,4.9023,4.9726,5.0156,5.0195,5.1797,5.2617,5.2617,5.3555,5.4023,5.4023,5.4023,5.4018,5.3944,5.4058,5.2729,5.0424,5.2886,5.2572,5.0444,5.2634,5.3541,5.3546,5.3307,5.3197,5.3197,5.3236,5.3274,5.3274,0.0,0.0,0.0,0.0,0.0,0.0,2.5305,2.5305,2.5462,2.5962,2.8577,3.0577,3.1038,3.4231,3.6462,3.6696,3.7853,3.7623,3.5273,3.3545,3.1737,2.9811,3.1929,3.4883,3.8554,4.0143,4.1493,4.2535,4.2864,4.3022,4.3063,4.3327,4.3496,4.3588,4.3603,4.3662,4.3672,4.3437,4.3203,4.2851,4.1172,3.9297,3.7461,0.0,0.0,0.0,0.0,0.0,0.0,0.0,0.0,0.0,0.0,0.0,0.0,0.0,0.0,0.0,0.0,0.0,0.0,0.0,0.0,0.0,0.0,0.0,0.0,0.0,0.0,0.0,0.0,0.0,0.0,0.0,3.7843,3.9718,3.9227,4.0545,4.2675,4.5685,4.7063,4.8006,4.8476,4.9101,4.957,4.9805,5.0391,5.0976,5.1601,5.0117,4.9531,5.0195,5.0664,5.0898,5.0898,5.2969,5.4336,5.4922,5.4922,5.5585,5.6755,5.6796,5.6757,5.6715,5.7419,5.7192,5.6354,5.6986,5.7141,5.6693,5.419,5.3197,5.3274,5.3895,5.4511,5.4664,0.0,0.0,0.0,0.0,0.0,0.0,2.5305,2.5305,2.5577,2.6272,2.8731,3.0654,3.1388,3.458,3.685,3.7196,3.8507,3.8049,3.5161,3.3003,3.2195,3.3,3.4814,3.7203,4.0277,4.1738,4.2676,4.3178,4.3586,4.3785,4.3788,4.4201,4.4457,4.4559,4.4631,4.4709,4.4766,4.4414,4.4258,4.4141,4.2773,4.1016,3.918,3.9531,3.8398,3.6601,3.6953,3.7109,3.6875,3.5425,0.0,0.0,0.0,0.0,0.0,0.0,0.0,0.0,0.0,0.0,0.0,0.0,0.0,0.0,0.0,0.0,0.0,0.0,0.0,0.0,0.0,0.0,0.0,0.0,4.1209,4.4217,4.47,4.4948,4.5931,4.8271,4.91,4.957,4.9922,5.0742,5.125,5.125,5.2031,5.2695,5.3203,5.1836,5.0781,5.0234,5.1601,5.1797,5.0703,5.3984,5.5898,5.6406,5.6758,5.7461,5.8437,5.8437,5.8125,5.7617,5.8711,5.8466,5.7343,5.8357,5.8676,5.8343,0.0,0.0,0.0,0.0,5.6395,5.6511,0.0,0.0,0.0,0.0,0.0,0.0,2.5305,2.5305,2.5923,2.7662,2.9349,3.1077,3.2852,3.5311,3.7196,3.8084,3.8665,3.7588,3.4279,3.1657,3.2231,3.6657,3.7584,3.9277,4.2004,4.2854,4.3278,4.3393,4.4085,4.4436,4.4479,4.5363,4.5813,4.5925,4.6011,4.6151,4.625,4.5469,4.5156,4.5078,4.4297,4.2539,4.0391,4.1172,4.0039,3.8125,3.8906,3.918,3.9023,3.7948,0.0,0.0,0.0,0.0,0.0,0.0,0.0,0.0,0.0,0.0,0.0,0.0,0.0,0.0,0.0,0.0,0.0,0.0,0.0,0.0,0.0,0.0,0.0,0.0,4.4062,4.7578,5.0,4.9766,4.957,5.0273,5.043,5.0742,5.1484,5.2344,5.2851,5.2851,5.3555,5.4023,5.4141,5.3867,0.0,0.0,0.0,5.4101,5.1875,5.5976,5.8047,5.8047,5.8828,5.9258,5.9336,5.9336,5.8125,5.6133,5.8476,5.8164,5.617,5.8328,5.9237,5.9244,5.8609,5.8396,5.8407,5.8022,5.8193,5.8544,0.0,0.0,0.0,0.0,0.0,0.0,2.5305,2.5305,2.5923,2.7662,2.9349,3.1311,3.3702,3.6238,3.8084,3.8973,3.793,3.6042,3.3314,3.0778,3.1855,3.7507,3.7892,3.9815,4.3739,4.397,4.4397,4.5128,4.5282,4.5359,4.5364,4.556,4.5736,4.5882,4.5942,4.6077,4.6289,4.6133,4.6055,4.6016,4.5859,4.4648,4.2969,4.3164,4.2891,4.2461,4.2656,4.2695,4.2461,4.0937,4.0454,4.0457,4.0288,3.9187,0.0,0.0,0.0,0.0,0.0,0.0,0.0,0.0,0.0,0.0,0.0,0.0,0.0,0.0,0.0,0.0,0.0,0.0,0.0,4.4922,4.7539,4.9844,5.1016,5.1641,5.1758,5.1211,5.1797,5.2266,5.2422,5.3242,5.375,5.375,5.3906,5.4297,5.5,5.3047,5.2305,5.3242,5.3906,5.4336,5.4531,5.7461,5.8945,5.8945,5.9101,0.0,6.0156,6.0156,6.0273,6.0508,6.1015,6.0854,6.035,6.0807,6.1344,6.1679,5.9497,5.8971,5.9197,5.6424,5.7487,5.9935,0.0,0.0,0.0,0.0,0.0,0.0,2.5305,2.5305,2.5615,2.6464,2.808,3.0121,3.266,3.4083,3.5545,3.7238,3.5811,3.4811,3.4811,3.4007,3.543,3.9735,4.07,4.2124,4.4239,4.4744,4.5167,4.5594,4.5594,4.5594,4.5594,4.5594,4.5688,4.5864,4.5893,4.6003,4.6201,4.6288,4.6289,4.6289,4.6289,4.5781,4.5,4.5,4.5,4.5,4.5,4.5,4.4804,4.3471,4.3259,4.3464,4.3001,4.2206,4.1042,0.0,0.0,0.0,0.0,0.0,0.0,0.0,0.0,0.0,0.0,0.0,0.0,0.0,0.0,4.0921,4.0501,0.0,4.4766,4.6094,4.8125,5.0117,5.1797,5.2812,5.3047,5.2148,5.2812,5.3359,5.3359,5.4141,5.4648,5.4648,5.5039,5.5664,5.6562,5.5351,5.4648,5.4648,5.5937,5.6172,5.5312,5.8281,5.9805,5.9805,6.0234,6.0664,6.1055,6.1484,6.1953,6.2383,6.2812,6.2966,6.2915,6.2915,6.3135,6.3299,6.1927,6.1544,6.1496,5.9664,6.0294,6.182,0.0,0.0,0.0,0.0,0.0,0.0,2.5305,2.5305,2.5421,2.5769,2.7044,2.8931,3.166,3.1772,3.2388,3.4119,3.3426,3.3776,3.5811,3.7238,3.92,4.1927,4.3508,4.4397,4.4551,4.5244,4.5594,4.5594,4.5594,4.5594,4.5594,4.5594,4.5692,4.5834,4.5874,4.5988,4.6146,4.6248,4.6289,4.6289,4.6289,4.6289,4.6289,4.6289,4.6289,4.6289,4.6289,4.6289,4.6172,4.5416,4.5594,4.5965,4.5204,4.4964,4.4296,4.1141,4.0693,0.0,0.0,0.0,0.0,0.0,0.0,0.0,0.0,4.0611,4.1449,4.1659,4.2823,4.362,4.2917,4.4255,4.5898,4.7305,4.8867,5.0625,5.2656,5.3711,5.3984,5.3281,5.3828,5.4258,5.4258,5.5039,5.5625,5.5781,5.6445,5.7226,5.8125,5.8164,5.7578,5.6328,5.832,5.8515,5.6562,5.9297,6.0664,6.0664,6.1523,6.1953,6.1992,6.2851,6.3242,6.3281,6.3984,6.4297,6.4297,6.4297,6.4414,6.4531,6.4363,6.4315,6.43,6.3599,6.3324,6.3314,0.0,0.0,0.0,0.0,0.0,0.0,0.0,0.0,2.5846,2.7393,2.7777,2.9124,3.2391,3.2122,3.1198,2.9932,3.1701,3.3006,3.3314,3.6276,3.9469,4.2816,4.3816,4.4667,4.5436,4.5556,4.5594,4.5594,4.5594,4.5594,4.5594,4.5594,4.569,4.59,4.5914,4.6021,4.6289,4.6289,4.6289,4.6289,4.6289,4.6289,4.6289,4.6289,4.6289,4.6289,4.6289,4.6289,4.6289,4.6172,4.6122,4.6089,4.5965,4.5876,4.5276,4.2745,4.2062,4.1254,3.7107,3.5539,3.5393,3.6908,3.9487,4.1536,0.0,4.4374,4.7077,4.4997,4.7109,4.9297,4.9179,5.0547,5.1758,5.1953,5.2812,5.3516,5.3828,5.4609,5.5117,5.5039,5.5117,5.5156,5.5156,5.5937,5.6797,5.7539,5.7695,5.8125,5.9023,5.9062,5.9297,5.9805,6.0117,6.0508,6.0976,6.1367,6.1562,6.1562,6.2422,6.2851,6.289,6.375,6.414,6.414,6.4258,6.4297,6.4297,6.4297,6.4765,6.5429,6.5108,6.5878,6.6875,6.4446,6.346,6.3314,0.0,0.0,0.0,0.0,0.0,0.0,0.0,0.0,2.5577,2.6272,2.6387,2.7695,3.108,3.1157,3.0041,2.7852,2.9964,3.1849,3.2852,3.7011,4.055,4.3008,4.4359,4.5244,4.5594,4.5594,4.5594,4.5594,4.5594,4.5594,4.5594,4.5684,4.575,4.585,4.5957,4.608,4.6198,4.6288,4.6289,4.6289,4.6289,4.6289,4.6289,4.6289,4.6289,4.6094,4.457,4.4023,0.0,4.4023,4.3983,4.4211,4.5734,4.5435,4.4379,4.3381,4.236,4.1286,4.0018,4.0147,4.0927,4.1997,4.4168,4.6071,4.622,4.7952,4.9409,4.8828,5.0273,5.1641,5.1641,5.1445,5.1719,5.3203,5.2891,5.3008,5.4531,5.5508,5.6055,5.6055,5.5156,5.4336,5.3828,5.5937,5.6875,5.5703,5.75,5.9023,5.9844,5.9883,6.0273,6.1133,6.1172,6.1562,6.2461,6.2461,6.2695,6.3203,6.3594,6.375,6.3789,6.4648,6.5312,6.5859,6.6367,6.6562,6.6601,6.707,6.7461,6.7772,6.7436,6.7746,6.814,6.6301,6.5893,6.6276,0.0,0.0,0.0,0.0,0.0,0.0,0.0,0.0,0.0,0.0,2.5305,2.6344,2.9077,2.9769,2.9118,2.681,2.8923,3.1115,3.2776,3.7472,4.105,4.3008,4.4705,4.5594,4.5594,4.5594,4.5594,4.5594,4.5654,4.5648,4.5653,4.577,4.5833,4.588,4.6044,4.6137,4.6151,4.6248,4.6445,4.6641,4.6641,4.6797,4.7031,4.7031,4.6562,4.5625,4.3242,4.2383,4.2344,4.1875,4.2187,4.3008,4.4453,4.4292,4.3536,4.3124,4.1752,4.0638,4.1967,4.3119,4.4333,4.5952,4.7635,4.9179,5.0141,5.0464,5.0703,5.1289,5.2109,5.2695,5.2695,5.2109,5.2226,5.4062,5.3516,5.3516,5.539,5.6406,5.668,5.5976,5.4961,5.3476,5.1172,5.4726,5.6797,5.5859,5.8086,5.9883,6.0703,6.0742,6.1172,6.2031,6.207,6.2461,6.3359,6.3359,6.3672,6.4297,6.4531,6.4648,6.4687,6.582,6.6797,6.7617,6.8242,6.8555,6.8594,6.918,6.9374,6.9325,6.9024,6.9003,6.9065,6.8147,6.8052,6.8391,0.0,0.0,0.0,0.0,0.0,0.0,0.0,0.0,0.0,0.0,0.0,2.5654,2.6618,2.8162,2.8431,2.6736,2.8923,3.1115,3.2776,3.6934,4.0473,4.3008,4.4705,4.5594,4.5594,4.5594,4.5594,4.5594,4.5722,4.5773,4.5815,4.5854,4.5971,4.6084,4.6088,4.6154,4.6289,4.6289,4.6797,4.7578,4.7578,4.8086,4.8828,4.8828,4.7266,4.4805,4.3047,4.2383,4.2148,4.0508,4.1601,4.3398,4.1836,4.2422,4.3398,4.1758,4.0039,3.9219,4.1719,4.1875,4.2305,4.6484,4.8242,4.9336,5.0976,5.1367,5.1367,5.1406,5.2109,5.2695,5.2695,5.4023,5.5156,5.5234,5.5937,5.6484,5.6562,5.7305,5.6914,5.4375,5.4765,5.2969,4.707,5.1875,5.6719,5.9961,6.0312,6.0742,6.1601,6.164,6.207,6.293,6.2969,6.3398,6.4258,6.4258,6.4258,6.4297,6.5156,6.5547,6.5625,6.7344,6.8555,6.9336,6.9336,6.9414,6.9453,6.9492,6.9365,6.9183,6.8984,6.9298,6.9858,6.9675,6.9084,6.8391,0.0,0.0,0.0,0.0,0.0,0.0,0.0,0.0,0.0,0.0,0.0,0.0,0.0,0.0,0.0,0.0,2.8544,2.9698,3.1968,3.5602,3.8831,4.1413,4.4262,4.577,4.5729,4.5767,4.577,4.5725,4.5825,4.5857,4.5859,4.5976,4.6068,4.6091,4.6199,4.656,4.7148,4.7148,4.7656,4.8476,4.8476,4.8633,4.8711,4.6953,4.5781,4.4453,0.0,3.9023,3.8828,3.7695,3.7891,3.8672,3.9297,3.9062,3.8359,3.7226,3.9297,4.1914,4.168,4.3476,4.5937,4.7969,4.9961,5.1562,5.2148,5.2695,5.2969,5.2383,5.1601,5.1055,5.1055,5.0586,5.0937,5.3203,5.2383,5.2891,5.6914,5.4765,5.3945,5.707,5.5156,5.4101,5.5508,5.5976,5.5664,5.4531,5.8672,6.164,6.2539,6.2578,6.2969,6.3828,6.3867,6.4297,6.5156,6.5156,6.5742,6.6914,6.7734,6.8125,6.8203,6.875,6.918,6.9492,7.0039,7.0273,7.0351,7.0937,7.1044,7.082,7.0695,7.0696,7.0754,7.0562,7.0321,7.0052,0.0,0.0,0.0,0.0,0.0,0.0,0.0,0.0,0.0,0.0,0.0,0.0,0.0,0.0,0.0,0.0,0.0,2.8852,3.108,3.3633,3.6168,3.8712,4.1554,4.3066,4.3027,4.3946,4.4411,4.4369,4.5409,4.5882,4.5884,4.6083,4.6154,4.6194,4.66,4.707,4.7617,4.793,4.8555,4.9297,4.8359,4.8164,4.8164,4.5547,4.3984,0.0,3.9414,3.7617,3.6719,3.582,3.6172,3.7031,3.75,3.6914,3.6172,3.7187,3.9766,4.25,4.3281,4.5742,4.8437,4.9883,5.1719,5.3164,5.3164,5.3594,5.3828,5.3281,5.2578,5.1641,5.043,4.9766,5.0039,5.1914,5.1367,5.2383,5.7226,5.5547,5.4961,5.793,5.6055,5.5351,5.7461,5.7578,5.6484,5.3906,5.7812,6.0703,6.1601,6.164,6.2617,6.4687,6.4765,6.5312,6.6523,6.6523,6.7226,6.8633,6.914,6.9609,6.9922,6.9883,6.9219,6.8203,7.0273,7.0273,6.9023,7.1133,7.1855,7.1624,7.1527,7.1348,7.108,7.0947,7.0898,7.0898,0.0,0.0,0.0,0.0,0.0,0.0,0.0,0.0,0.0,0.0,0.0,0.0,0.0,0.0,0.0,0.0,0.0,0.0,3.0292,3.1266,3.289,3.5351,3.7094,3.8022,3.8012,4.0396,4.1624,4.162,4.4256,4.5503,4.5511,4.5805,4.5937,4.6016,4.6836,4.7266,4.7383,4.8203,4.9062,4.9648,4.7187,4.6641,4.7109,4.4492,4.1992,3.9883,3.9766,3.8125,3.5859,3.5,3.6406,3.8281,3.6758,3.6289,3.7109,4.1055,4.1289,4.1328,4.6172,4.8242,4.9687,5.2148,5.3437,5.4062,5.4062,5.4101,5.4062,5.3867,5.4375,5.3789,5.0351,5.0976,5.1797,5.1289,5.2578,5.457,5.7383,5.9062,5.918,5.6914,5.7422,5.6719,5.3555,5.6992,5.9062,5.8086,5.8164,5.8594,5.9492,5.9531,6.1445,6.5586,6.5742,6.6562,6.8242,6.832,6.8711,6.9453,6.9492,6.9961,7.0781,7.0781,6.8984,6.6133,7.0234,6.9687,6.625,7.0312,7.1795,7.1495,7.1495,7.1276,7.0914,7.0914,7.09,7.0925,0.0,0.0,0.0,0.0,0.0,0.0,0.0,0.0,0.0,0.0,0.0,0.0,0.0,0.0,0.0,0.0,0.0,0.0,3.0473,3.2036,3.3473,3.4788,3.7133,3.8415,3.8305,3.8988,3.9336,3.927,4.0003,4.0396,4.0456,4.0546,4.0898,4.1523,4.1758,4.2578,4.375,4.3945,4.457,4.5312,4.4648,4.4492,4.4414,4.1836,4.0469,3.9648,3.7695,3.6562,3.5859,3.5,3.6016,3.7891,3.9414,4.0273,4.0625,3.9805,4.2461,4.5625,4.5664,4.8633,5.2031,5.3359,5.4336,5.4961,5.4961,5.5469,5.5039,5.1836,4.9805,4.7539,4.4141,4.2773,4.3594,4.7851,4.8398,5.0078,5.5234,5.5195,5.539,5.7344,5.8359,5.9258,6.0273,6.1953,6.2109,5.9922,6.1562,6.3047,6.3906,6.3984,6.5078,6.7461,6.7539,6.8047,6.9062,6.9726,7.0156,7.039,7.1015,7.1445,7.168,7.168,7.1172,7.043,7.1523,7.1367,7.0469,7.1562,7.1859,7.1651,7.1651,7.1543,7.1361,7.1361,7.1247,7.1109,0.0,0.0,0.0,0.0,0.0,0.0,0.0,0.0,0.0,0.0,0.0,0.0,0.0,0.0,0.0,0.0,0.0,0.0,0.0,3.1026,3.1984,3.284,3.4306,3.524,3.5551,3.6689,3.7075,3.6629,3.8233,3.8843,3.8506,3.8554,3.9062,3.9922,4.0664,4.1719,4.3008,4.3398,4.3828,0.0,0.0,4.2031,4.1758,3.918,3.8203,3.8008,3.6523,3.6016,3.6289,3.8047,3.8555,3.9101,4.2812,4.3516,4.3125,4.3984,4.6094,4.8203,4.8359,5.1055,5.3945,5.4453,5.5234,5.5469,5.3945,5.3984,5.3203,4.9297,4.7305,4.5351,4.2305,4.125,4.2461,4.7383,4.8398,5.0234,5.5195,5.5039,5.543,5.8164,5.8555,5.9922,6.3242,6.4375,6.4414,6.332,6.2851,6.3125,6.4375,6.4453,6.5781,6.8672,6.875,6.914,6.9961,7.0859,7.1289,7.1289,7.1758,7.1992,7.1992,7.1992,7.0976,6.9297,7.1172,7.0937,6.9336,7.1211,7.1865,7.1691,7.1691,7.1621,7.1471,7.1385,7.1304,7.1201,0.0,0.0,0.0,0.0,0.0,0.0,0.0,0.0,0.0,0.0,0.0,0.0,0.0,0.0,0.0,0.0,0.0,0.0,0.0,0.0,3.0,3.0861,3.0854,3.1202,3.2063,3.4257,3.5024,3.4255,3.7356,3.8471,3.7735,3.7848,3.8359,3.9297,4.0859,4.2031,4.2891,4.3789,4.4141,4.3906,4.0937,3.9648,3.9297,0.0,3.6094,3.6016,3.6016,3.6016,3.6797,4.1953,4.2226,4.1328,4.6484,4.6562,4.5547,4.9687,5.0195,4.9844,5.1836,5.3789,5.5312,5.543,5.6055,5.582,5.2773,5.1719,5.0469,4.7148,4.6094,4.5117,4.2969,4.3281,4.4961,4.8359,5.0312,5.2305,5.4883,5.6133,5.7187,5.8359,5.8359,5.9922,6.4219,6.5,6.5781,6.7148,6.375,6.2265,6.3789,6.3867,6.5625,6.9531,6.9726,7.0117,7.0859,7.1601,7.1992,7.1992,7.1992,7.1992,7.1992,7.1992,6.9961,6.664,7.039,6.9883,6.6758,7.0469,7.1906,7.1746,7.1746,7.1647,7.1498,7.1323,7.1242,7.1185,0.0,0.0,0.0,0.0,0.0,0.0,0.0,0.0,0.0,0.0,2.6993,2.8116,0.0,0.0,0.0,0.0,0.0,0.0,0.0,0.0,0.0,3.1911,3.1911,3.2301,3.3122,3.3531,3.3686,3.3589,3.4122,3.4359,3.4256,3.4297,3.4766,3.5664,3.6641,3.7578,3.8476,3.9336,3.9726,3.9648,3.9062,3.8398,3.7695,3.7266,0.0,0.0,3.6016,3.6016,3.6797,4.1953,4.3398,4.3945,4.9101,5.043,4.9844,4.8594,5.0039,5.1836,5.0898,5.293,5.5469,5.6172,5.6484,5.6445,5.5859,5.3476,5.0625,4.793,4.5078,4.3164,4.3437,4.418,4.5664,4.8437,5.0312,5.0625,4.8398,5.3633,5.6992,5.5117,5.789,6.168,6.6015,6.4648,6.4961,6.8672,6.832,6.8047,6.8281,6.8281,6.8984,7.0469,7.1172,7.1601,7.1758,7.1914,7.1992,7.1992,7.1992,7.1992,7.1992,7.1992,7.1601,7.0937,7.168,7.1562,7.0937,7.168,7.1992,7.1951,7.1951,7.1813,7.1661,7.1642,7.1432,7.1211,0.0,0.0,0.0,0.0,0.0,0.0,0.0,2.5491,2.5698,2.6158,2.7334,2.8164,2.8219,2.9754,3.0817,0.0,0.0,0.0,0.0,0.0,0.0,3.2773,3.2422,3.2773,3.4062,3.406,3.3825,3.3398,0.0,3.3826,3.3398,3.3398,3.3867,3.4766,3.6094,3.7148,3.8047,3.8906,3.9297,3.9258,3.8789,3.8359,3.793,3.7461,0.0,0.0,3.6016,3.6016,3.6601,4.043,4.1719,4.2851,4.9336,5.1406,5.0898,4.8359,5.0351,5.2891,5.0781,5.3047,5.6094,5.6484,5.6601,5.5664,5.207,5.0312,4.8047,4.3242,4.1289,4.0703,4.1562,4.207,4.4062,4.9336,5.0898,5.1601,5.2266,5.5547,5.7773,5.7383,5.9531,6.207,6.4609,6.414,6.4726,6.7226,6.7461,6.8242,6.9961,7.0508,7.0937,7.1367,7.1797,7.1992,7.1992,7.1992,7.1992,7.1992,7.1992,7.1992,7.1992,7.1992,7.1992,7.1992,7.1992,7.0742,6.8828,7.1094,7.0664,6.8867,7.1005,7.1762,7.1679,7.1504,7.162,7.1854,0.0,0.0,0.0,0.0,0.0,0.0,0.0,2.5684,2.6088,2.682,2.7838,2.8502,2.8502,2.9959,3.0898,0.0,0.0,0.0,0.0,0.0,0.0,0.0,0.0,0.0,3.4687,0.0,0.0,3.3945,3.4648,0.0,0.0,0.0,0.0,0.0,3.6797,3.7969,3.8672,3.9726,4.0195,0.0,0.0,3.9062,3.875,0.0,0.0,0.0,0.0,3.6016,3.6406,3.9023,3.9883,4.1016,4.7461,4.9609,4.9453,4.8008,5.0234,5.2851,5.1406,5.375,5.6601,5.6601,5.6601,5.5039,4.9023,4.7617,4.5937,4.0156,3.8906,3.9375,4.0976,4.1289,4.3476,5.0312,5.0781,5.1758,5.5937,5.6836,5.7812,5.9883,6.1211,6.2617,6.4258,6.4492,6.5234,6.6836,6.6953,6.8125,7.0859,7.164,7.1992,7.1992,7.1992,7.1992,7.1992,7.1992,7.1992,7.1992,7.1992,7.1992,7.1992,7.1992,7.1992,7.1992,7.1992,6.957,6.5937,7.0234,6.9453,6.6015,7.0133,7.1811,7.1867,7.1632,7.204,7.2672,0.0,0.0,0.0,0.0,0.0,0.0,0.0,2.6366,2.6874,2.6992,2.8437,2.9453,2.9453,3.0312,3.0898,0.0,0.0,0.0,0.0,0.0,0.0,0.0,0.0,0.0,0.0,0.0,0.0,3.5742,3.5859,0.0,0.0,0.0,0.0,0.0,0.0,3.8516,3.8711,4.0351,0.0,0.0,0.0,0.0,0.0,0.0,0.0,0.0,0.0,3.6016,3.6406,3.9023,3.9883,4.0273,4.2539,4.3789,4.4844,4.6953,4.8984,5.1016,5.3086,5.5078,5.6601,5.6601,5.6601,5.582,5.2812,4.9766,4.6953,4.4766,4.1875,4.1016,4.4961,4.5703,4.6953,5.0781,4.8789,4.8008,5.1484,5.3359,5.5586,5.8906,6.1406,6.4453,6.8515,6.6836,6.7148,7.1094,7.1406,7.1562,7.1875,7.1953,7.1992,7.1992,7.1992,7.1992,7.1992,7.1992,7.1992,7.1992,7.1992,7.1992,7.1992,7.1992,7.1992,7.1992,7.1992,6.957,6.5937,7.0234,6.9453,6.6015,7.0312,7.2214,7.2584,7.2588,7.2928,7.3402,0.0,0.0,0.0,0.0,0.0,0.0,2.7461,2.7578,2.7969,2.8516,2.918,2.9805,3.0312,3.0703,3.0898,3.0898,0.0,0.0,0.0,0.0,0.0,0.0,0.0,0.0,0.0,0.0,3.6016,3.6016,3.6016,0.0,0.0,0.0,0.0,0.0,0.0,3.8125,3.8672,3.9883,0.0,0.0,0.0,0.0,0.0,0.0,0.0,0.0,0.0,0.0,3.6172,3.7187,3.7539,3.7578,3.7734,3.8359,3.957,4.2187,4.6016,4.9531,5.0,5.332,5.6601,5.6601,5.6992,5.6015,5.082,4.9375,4.7773,4.293,4.125,4.1211,4.293,4.3242,4.4336,4.7773,4.7617,4.9023,5.4531,5.6797,5.914,6.2656,6.5312,6.6719,6.6406,6.6367,6.7109,6.8789,6.8945,6.9844,7.1875,7.1992,7.1992,7.1992,7.1992,7.1992,7.1992,7.1992,7.1992,7.1992,7.1992,7.1992,7.1992,7.1992,7.1992,7.1992,7.1992,6.8086,6.2265,6.918,6.7969,6.246,6.9627,7.2526,7.2729,7.3062,7.3626,7.4199,0.0,0.0,0.0,0.0,0.0,2.9375,2.8789,2.8672,2.8984,2.9883,2.9961,3.0234,3.082,3.0898,3.0898,3.0898,3.0898,0.0,0.0,0.0,0.0,0.0,0.0,0.0,0.0,0.0,3.6016,3.6016,3.6016,3.6016,0.0,0.0,3.6016,3.6055,0.0,0.0,0.0,0.0,0.0,0.0,0.0,0.0,0.0,0.0,0.0,0.0,0.0,0.0,0.0,0.0,0.0,3.5781,3.4687,3.4922,3.6133,3.875,4.3594,4.8164,4.832,5.2383,5.6601,5.6601,5.6484,5.4883,4.9258,4.8359,4.707,4.1445,4.0781,4.1211,4.1211,4.1211,4.2383,4.6094,4.7187,4.9726,5.5898,5.7969,6.0273,6.3984,6.6484,6.7422,6.6289,6.7539,6.8398,6.8398,6.8398,6.9453,7.1875,7.1992,7.1992,7.1992,7.1992,7.1992,7.1992,7.1992,7.1992,7.1992,7.1992,7.1328,7.0156,7.1406,7.1328,7.0195,7.1445,6.7851,6.164,6.8984,6.7811,6.2135,6.9787,7.3045,7.3441,7.3796,7.4445,7.5084,0.0,0.0,0.0,0.0,0.0,0.0,2.9609,2.9609,2.9883,3.0781,3.0898,3.0898,3.0898,3.0898,3.0898,3.0898,3.0898,0.0,0.0,0.0,0.0,0.0,0.0,0.0,0.0,0.0,3.6016,3.6016,3.6016,3.6016,3.6016,3.6016,3.6016,3.6055,0.0,0.0,0.0,0.0,0.0,0.0,0.0,0.0,0.0,0.0,0.0,0.0,0.0,0.0,0.0,0.0,0.0,0.0,0.0,3.4023,3.5234,3.7851,4.2266,4.6875,4.9453,5.332,5.6601,5.6601,5.4648,5.207,4.9492,4.6914,4.4336,4.1719,4.1172,4.1211,4.1211,4.1211,4.2617,4.6875,4.7578,4.9101,5.3437,5.4805,5.6953,6.1211,6.3281,6.6015,7.0234,7.1445,7.1953,7.1953,7.1953,7.1953,7.1992,7.1992,7.1992,7.1992,7.1992,7.1992,7.1992,7.1992,7.1992,7.1992,7.1992,6.9765,6.582,7.0078,6.9687,6.5898,7.0156,6.9531,6.5859,7.0195,6.9832,6.6952,7.129,7.3815,7.4962,7.4989,7.5414,7.5976,0.0,0.0,0.0,0.0,0.0,0.0,0.0,3.2187,3.2109,3.1836,3.1797,3.1562,3.0976,3.0898,3.0898,3.0898,3.0898,0.0,0.0,0.0,0.0,0.0,0.0,0.0,0.0,0.0,3.6016,3.6016,3.6016,3.6016,3.6016,3.6016,3.6016,3.6016,3.6242,3.7131,0.0,0.0,0.0,0.0,0.0,0.0,3.869,0.0,0.0,0.0,0.0,0.0,0.0,0.0,0.0,0.0,0.0,0.0,0.0,3.5703,3.8789,4.2344,4.4336,4.7187,4.9687,5.0312,5.0273,4.9414,4.6836,4.6055,4.5,4.1836,4.1211,4.1211,4.1211,4.1641,4.3242,4.6992,4.8594,5.1484,5.7539,5.9101,6.1289,6.5625,6.7656,6.9453,7.1406,6.9726,6.9492,7.1836,6.9844,6.9531,7.1875,7.1992,7.1992,7.1992,7.1992,7.1992,7.1992,7.1992,7.1992,7.1992,7.1992,6.9765,6.5742,7.0039,6.9648,6.5859,7.0156,6.957,6.5976,7.0722,7.0299,6.7128,7.2344,7.4635,7.5045,7.5491,7.58,7.6015,0.0,0.0,0.0,0.0,0.0,0.0,0.0,3.3594,3.3359,3.3164,3.2851,3.2344,3.1484,3.1641,3.1601,3.0976,3.1211,0.0,0.0,0.0,0.0,0.0,0.0,0.0,0.0,3.5117,3.6016,3.6016,3.6016,3.5976,3.5971,3.5971,3.5928,3.5878,3.585,3.6767,0.0,0.0,0.0,0.0,0.0,0.0,3.824,0.0,0.0,0.0,0.0,0.0,0.0,0.0,0.0,0.0,0.0,0.0,0.0,0.0,3.644,3.8903,4.1289,4.4336,4.6914,4.7461,4.75,4.6992,4.5351,4.4687,4.3789,4.1641,4.2226,4.2812,4.1836,4.3125,4.4844,4.6367,4.9726,5.3281,5.6523,5.8594,6.1015,6.4414,6.7461,7.0,7.1836,7.0078,6.9726,7.1836,7.0039,6.9765,7.1875,7.1992,7.1992,7.1992,7.1992,7.1992,7.1992,7.1992,7.1992,7.1992,7.1992,6.9765,6.5742,7.0039,6.9648,6.5859,7.0469,7.0936,0.0,7.2094,7.2018,7.0126,7.3632,7.5154,7.5414,7.5863,7.6015,7.6015,0.0,0.0,0.0,0.0,0.0,0.0,0.0,3.4101,3.3867,3.4609,3.3984,3.3164,3.2383,3.2891,3.2695,3.1133,0.0,0.0,0.0,0.0,0.0,0.0,0.0,0.0,3.3398,3.5117,3.5976,3.5976,3.5976,3.593,3.5819,3.5819,3.5714,3.5608,3.5601,3.6607,0.0,0.0,0.0,0.0,0.0,0.0,0.0,0.0,0.0,0.0,0.0,0.0,0.0,0.0,0.0,0.0,0.0,0.0,0.0,0.0,0.0,0.0,0.0,4.3828,4.6914,4.7031,4.582,4.4648,4.4726,4.2891,0.0,4.1523,4.4141,4.5664,4.3203,4.5703,4.7539,4.5664,5.1055,5.4648,5.2187,5.4961,5.7734,5.9101,6.4023,6.8398,7.1367,7.1875,7.1992,7.1992,7.1992,7.1992,7.1992,7.1992,7.1992,7.1992,7.1992,7.1992,7.1992,7.1992,7.1875,7.164,7.1875,6.9609,6.539,6.9922,6.9687,6.5976,7.1054,7.3228,7.3161,7.401,7.4622,7.4995,7.5045,7.5446,7.6015,7.6015,7.6015,7.6015,0.0,0.0,0.0,0.0,0.0,0.0,0.0,0.0,0.0,0.0,3.4531,3.4062,3.3203,3.2734,3.2305,0.0,0.0,0.0,0.0,0.0,0.0,0.0,0.0,0.0,3.3398,3.5069,3.5917,3.5917,3.5804,3.5463,3.4826,3.4826,3.4816,3.4794,3.4675,3.5929,0.0,0.0,0.0,0.0,0.0,0.0,0.0,0.0,0.0,0.0,3.5589,3.5635,0.0,0.0,0.0,0.0,0.0,0.0,0.0,0.0,3.5745,3.6224,3.7772,0.0,4.0039,4.1367,4.1406,4.1289,0.0,4.1641,4.1953,4.457,4.6289,4.7109,4.6484,5.0273,5.25,4.9453,5.3633,5.707,5.6445,6.0469,6.2656,6.039,6.6445,7.0078,6.8281,7.0469,7.1992,7.1992,7.1992,7.1992,7.1992,7.1992,7.1992,7.1992,7.1992,7.1992,7.1992,7.1992,7.0703,6.8125,7.0742,6.8359,6.1875,6.8828,7.0039,6.6836,7.1187,7.3418,7.4049,7.4592,7.4882,7.5045,7.5543,7.5856,7.6015,7.6015,7.6015,7.6092,0.0,0.0,0.0,0.0,0.0,0.0,0.0,0.0,0.0,0.0,0.0,0.0,0.0,0.0,0.0,0.0,0.0,0.0,0.0,0.0,0.0,0.0,0.0,3.3554,3.3938,3.5249,3.5852,3.5825,3.5747,3.5277,3.4418,3.4804,3.4777,3.4412,3.5527,3.6746,0.0,0.0,0.0,0.0,3.8857,0.0,0.0,0.0,0.0,0.0,3.5564,3.5579,0.0,3.5606,3.533,3.5015,0.0,0.0,0.0,0.0,3.6099,3.6627,3.7615,3.7891,3.8594,4.1523,4.1367,4.1016,4.3086,4.2344,4.2187,4.5586,4.6992,4.7734,4.8125,5.082,5.2461,5.0976,5.3437,5.6211,5.8203,6.1211,6.25,6.0625,6.4453,6.7187,6.6914,7.0,7.1992,7.1992,7.1992,7.1992,7.1992,7.1992,7.1992,7.1992,7.1992,7.1992,7.1992,7.1992,7.0273,6.6953,7.0351,6.918,6.418,6.9961,7.1755,7.0333,7.1011,7.2574,7.4513,7.3243,7.3773,7.5498,7.5856,7.6015,7.6015,7.6015,7.6245,7.6669,0.0,0.0,0.0,0.0,0.0,0.0,0.0,0.0,0.0,0.0,0.0,0.0,0.0,0.0,0.0,0.0,0.0,0.0,0.0,0.0,0.0,0.0,0.0,3.3894,3.4562,3.5413,3.5812,3.5665,3.5533,3.5014,3.4092,3.4825,3.4913,3.451,3.693,3.8084,0.0,0.0,0.0,0.0,3.8315,0.0,0.0,0.0,0.0,0.0,0.0,0.0,0.0,3.5538,3.5577,3.5654,3.5538,0.0,0.0,0.0,0.0,0.0,3.8468,3.8789,3.9844,4.4141,4.3164,4.2109,4.5508,4.3633,4.2344,4.6445,4.7969,4.8828,4.9726,5.1445,5.2461,5.1562,5.2695,5.5039,5.8867,6.0547,6.1172,6.0664,6.2187,6.4219,6.664,7.0,7.1992,7.1992,7.1992,7.1992,7.1992,7.1992,7.1992,7.1992,7.1992,7.207,7.2187,7.2187,7.0469,6.7148,7.0703,7.0976,6.8515,7.1913,7.385,7.4336,7.1443,7.2063,7.4962,7.2086,7.291,7.6015,7.6015,7.6015,7.6015,7.613,7.6669,7.733,0.0,0.0,0.0,0.0,0.0,0.0,0.0,0.0,0.0,0.0,0.0,0.0,0.0,0.0,0.0,0.0,0.0,0.0,0.0,0.0,0.0,3.4118,3.4275,3.4386,3.449,3.5268,3.564,3.5621,3.4811,3.3999,3.3124,3.3239,3.4032,3.5388,3.7199,3.8392,3.9165,0.0,0.0,0.0,3.8046,0.0,0.0,0.0,0.0,0.0,0.0,0.0,0.0,3.5731,3.5962,3.6388,3.5692,0.0,0.0,0.0,0.0,0.0,3.9059,3.9602,4.0742,4.5039,4.3633,4.2109,4.5508,4.3633,4.3203,5.0273,5.2422,5.3281,5.4141,5.9805,6.1484,5.2812,5.5234,5.8672,6.0039,6.3515,6.4805,6.1836,6.6797,6.9492,6.7148,7.0,7.1992,7.1992,7.1992,7.1992,7.1992,7.1992,7.1992,7.1992,7.1992,7.2344,7.3086,7.3086,7.1367,6.8047,7.2226,7.2461,6.9336,7.2629,7.4625,7.5343,7.4487,7.4886,7.6035,7.5343,7.5456,7.6015,7.6015,7.6015,7.6092,7.6823,7.7176,7.7484,0.0,0.0,0.0,0.0,0.0,0.0,0.0,0.0,0.0,0.0,0.0,0.0,0.0,0.0,0.0,0.0,0.0,0.0,0.0,0.0,3.4155,3.4985,3.5059,3.5057,3.5088,3.5425,3.5361,3.4857,3.4398,3.3741,3.2929,3.3849,3.4965,3.6231,3.793,3.8665,3.8665,3.9473,0.0,0.0,0.0,0.0,0.0,0.0,0.0,0.0,0.0,0.0,0.0,0.0,3.6115,3.6,3.5615,0.0,0.0,0.0,0.0,0.0,3.9478,4.0146,4.1953,4.7656,4.5117,4.3086,5.0234,4.7031,4.5039,5.3711,5.2851,5.1523,5.4726,5.7461,5.8437,5.6015,6.0742,6.4531,6.3984,6.5625,6.6328,6.4687,6.7305,6.8633,6.7031,7.0,7.1992,7.1992,7.1992,7.1992,7.1992,7.1992,7.2226,7.2695,7.2695,7.3125,7.3984,7.4453,7.2734,6.8945,7.2773,7.3008,7.0195,7.3518,7.54,7.5983,7.341,7.3767,7.5941,7.3584,7.3937,7.6053,7.6515,7.6707,7.6861,7.8169,7.8669,7.8823,0.0,0.0,0.0,0.0,0.0,0.0,0.0,0.0,0.0,0.0,0.0,0.0,0.0,0.0,0.0,0.0,0.0,0.0,0.0,0.0,3.4851,3.5468,3.55,3.5525,3.5574,3.5577,3.5136,3.4205,3.4205,3.3971,3.3545,3.4885,3.6038,3.7042,3.8392,3.8627,3.8046,3.8703,3.8123,0.0,0.0,0.0,0.0,0.0,0.0,0.0,0.0,0.0,0.0,0.0,0.0,0.0,0.0,0.0,0.0,3.7317,3.8438,3.9605,3.986,4.0517,4.2654,4.8904,4.5781,4.3945,5.4492,5.0078,4.6523,5.6445,5.3789,5.1172,5.5937,5.539,5.5586,5.9726,6.5117,6.8555,6.789,6.7969,6.8086,6.8086,6.8086,6.8086,6.8086,7.0469,7.1992,7.1992,7.1992,7.1992,7.1992,7.2187,7.2617,7.3281,7.3515,7.4023,7.4883,7.5586,7.4258,7.1015,7.3867,7.414,7.2221,7.4701,7.6103,7.6345,7.2894,7.3162,7.5745,7.2514,7.3206,7.6361,7.7061,7.7561,7.8054,7.9323,7.9931,8.0208,0.0,0.0,0.0,0.0,0.0,0.0,0.0,0.0,0.0,0.0,0.0,0.0,0.0,0.0,0.0,0.0,0.0,0.0,0.0,0.0,3.5437,3.55,3.55,3.5507,3.552,3.552,3.5094,3.4205,3.4205,3.4584,3.5308,3.5423,3.635,3.7892,3.8046,3.8046,3.8007,3.8084,3.7546,3.6696,0.0,0.0,0.0,0.0,0.0,0.0,0.0,0.0,0.0,0.0,0.0,0.0,0.0,0.0,3.7007,3.8641,3.9245,3.9608,4.0419,4.0832,4.2076,4.6571,4.4406,4.4101,5.5273,5.0508,4.6836,5.793,5.793,5.7031,6.0586,5.9883,5.9883,6.3359,6.5703,6.7851,7.0117,7.1133,7.164,7.164,7.164,7.164,7.164,7.1875,7.1992,7.1992,7.1992,7.1992,7.1992,7.2773,7.3242,7.3281,7.4062,7.4922,7.5781,7.5859,7.5742,7.5469,7.6523,7.6828,7.6456,7.6526,7.6453,7.6278,7.5793,7.5736,7.5976,7.5668,7.6207,7.7215,7.7292,7.8246,7.9623,7.9738,8.0323,8.1016,0.0,0.0,0.0,0.0,0.0,0.0,0.0,0.0,0.0,0.0,0.0,0.0,0.0,0.0,0.0,0.0,0.0,0.0,0.0,3.55,3.55,3.55,3.55,3.5731,3.6231,3.5769,3.508,3.4205,3.4737,3.5427,3.6269,3.6811,3.7392,3.8007,3.8007,3.77,3.7196,3.7196,3.6696,3.5962,3.5962,0.0,0.0,0.0,0.0,0.0,0.0,0.0,0.0,0.0,3.6462,3.6696,3.6696,3.7427,3.843,3.9127,3.9724,4.0277,4.0623,4.1638,4.3908,4.9303,4.7492,4.6875,5.6523,5.3398,5.1367,6.1523,5.9453,5.6367,5.8203,6.0195,6.2539,6.543,6.7812,6.9805,7.1289,7.1797,7.1992,7.1992,7.1992,7.1992,7.1992,7.1992,7.1992,7.1992,7.1992,7.1992,7.1992,7.2812,7.3555,7.4101,7.4961,7.582,7.6719,7.6719,7.6719,7.6719,7.6901,7.6951,7.6872,7.6545,7.6361,7.6284,7.6106,7.6322,7.683,7.683,7.7292,7.8099,7.8631,7.9554,8.0592,8.0592,8.0823,8.1093,0.0,0.0,0.0,0.0,0.0,0.0,0.0,0.0,0.0,0.0,0.0,0.0,0.0,0.0,0.0,0.0,0.0,0.0,3.5538,3.55,3.5615,3.5885,3.5885,3.6269,3.7081,3.658,3.585,3.501,3.558,3.6308,3.7119,3.7738,3.7853,3.7584,3.7584,3.7119,3.6308,3.6308,3.6,3.5538,3.5769,3.5731,0.0,0.0,0.0,0.0,0.0,0.0,0.0,0.0,3.6696,3.6811,3.735,3.8354,3.9358,3.9588,4.0145,4.0778,4.1052,4.2082,4.4509,5.0316,4.9009,4.8669,5.789,5.5742,5.4297,6.3008,6.1914,5.9297,5.9062,6.1875,6.4805,6.6601,6.8594,7.039,7.1797,7.1992,7.1992,7.1992,7.1992,7.1992,7.1992,7.1992,7.1992,7.1992,7.1992,7.2109,7.2383,7.3242,7.4101,7.4961,7.5859,7.6601,7.7187,7.7187,7.7187,7.7102,7.6882,7.6827,7.6778,7.6466,7.6289,7.6216,7.636,7.6746,7.733,7.7561,7.8176,7.9015,7.9862,8.0554,8.1093,8.1093,8.1093,8.1131,0.0,0.0,0.0,0.0,0.0,0.0,0.0,0.0,0.0,0.0,0.0,0.0,0.0,0.0,0.0,0.0,0.0,0.0,3.55,3.55,3.5885,3.6696,3.6696,3.7119,3.8007,3.8007,3.7584,3.6696,3.6696,3.7157,3.8007,3.8007,3.7546,3.6696,3.6734,3.6269,3.55,3.5538,3.5538,3.5577,3.6385,3.6192,0.0,0.0,0.0,0.0,0.0,0.0,0.0,0.0,3.6734,3.7042,3.8742,3.9319,3.9473,4.0323,4.0647,4.0891,4.1797,4.2089,4.3415,4.8702,4.8088,4.8879,5.9296,5.7031,5.4687,6.1601,6.5781,6.7383,6.4765,6.5742,6.6914,6.6914,6.7656,6.9101,7.164,7.1992,7.1992,7.1992,7.1992,7.1992,7.1992,7.1992,7.1992,7.1992,7.1992,7.2383,7.3242,7.414,7.5,7.5859,7.6758,7.7187,7.7187,7.7187,7.7101,7.6882,7.6709,7.6618,7.6571,7.6381,7.6203,7.6053,7.6945,7.733,7.7407,7.8176,7.9015,7.9892,8.0746,8.1093,8.1093,8.1093,8.1093,8.1246,0.0,0.0,0.0,0.0,0.0,0.0,0.0,0.0,0.0,0.0,0.0,0.0,0.0,0.0,0.0,0.0,0.0,0.0,3.6308,3.6346,3.6734,3.7584,3.7623,3.8007,3.8896,3.8896,3.8473,3.7623,3.7623,3.7738,3.8007,3.735,3.6965,3.6734,3.7969,3.7392,3.5615,3.7392,3.7123,3.5538,3.5769,3.5692,3.5577,0.0,0.0,0.0,0.0,0.0,0.0,0.0,0.0,0.0,3.9127,3.9704,4.0669,4.3324,4.286,4.2055,4.4715,4.5153,4.5788,4.9772,5.1215,5.2615,5.6367,5.6758,5.7812,6.2851,6.5234,6.5742,6.375,6.6797,6.918,6.8008,6.9531,7.1133,7.1875,7.1992,7.1992,7.1992,7.1992,7.1992,7.1992,7.1992,7.1992,7.1992,7.2578,7.3047,7.3281,7.4726,7.5625,7.5898,7.6758,7.7187,7.7187,7.7054,7.6945,7.6917,7.6533,7.6376,7.6405,7.6803,7.6976,7.6938,7.7792,7.8477,7.9131,7.9977,8.0477,8.0746,8.1016,8.1093,8.1093,8.1093,8.1477,8.1977,0.0,0.0,0.0,0.0,0.0,0.0,0.0,0.0,0.0,0.0,3.9281,3.8857,0.0,0.0,0.0,0.0,0.0,0.0,0.0,3.7234,3.7623,3.8473,3.8511,3.8896,3.9746,3.9473,3.8857,3.8007,3.8007,3.7815,3.7465,3.6965,3.6542,3.6269,3.7315,3.7119,3.6077,3.7276,3.7081,3.5962,3.5962,3.5808,3.5577,0.0,0.0,0.0,0.0,0.0,0.0,0.0,0.0,0.0,3.9669,4.1054,4.2725,4.3848,4.4073,4.4576,4.7378,4.7882,4.8817,5.4008,5.4626,5.4527,5.6797,5.8125,6.0312,6.5312,6.7031,6.7305,6.625,6.8867,7.0898,6.9883,7.1015,7.1992,7.1992,7.1992,7.1992,7.1992,7.1992,7.1992,7.1992,7.1992,7.1992,7.1992,7.2812,7.3437,7.3789,7.5156,7.6055,7.6406,7.6914,7.7147,7.7097,7.6947,7.6836,7.6673,7.6754,7.6763,7.6713,7.7123,7.7484,7.783,7.8669,7.9515,8.0362,8.09,8.1093,8.1093,8.1093,8.1093,8.1131,8.1477,8.1862,8.2401,0.0,0.0,0.0,0.0,0.0,0.0,0.0,0.0,0.0,0.0,3.9165,3.8473,0.0,0.0,0.0,0.0,0.0,0.0,0.0,0.0,3.8507,3.9358,3.9396,3.9708,4.0362,3.9588,3.8742,3.7892,3.7892,3.7427,3.658,3.658,3.6231,3.5615,3.5769,3.6154,3.6657,3.6077,3.6115,3.658,3.658,3.6192,3.5692,3.6423,0.0,0.0,0.0,0.0,0.0,0.0,0.0,0.0,4.0285,4.2709,4.4863,4.3005,4.4819,4.7857,4.9889,5.0346,5.1964,5.9178,5.7491,5.5331,6.0234,6.1172,6.2617,6.8437,7.0078,7.0547,7.0781,7.1484,7.1992,7.1992,7.1992,7.1992,7.1992,7.1992,7.1992,7.1992,7.1992,7.1992,7.1992,7.1992,7.2031,7.2109,7.293,7.3789,7.4687,7.5547,7.6367,7.7187,7.7187,7.7098,7.6917,7.6862,7.6719,7.6444,7.7185,7.7563,7.7515,7.7515,7.7984,7.8792,7.9554,8.0362,8.1093,8.1093,8.1093,8.1093,8.117,8.1208,8.1323,8.2131,8.2477,8.2747,0.0,0.0,0.0,0.0,0.0,0.0,0.0,0.0,0.0,0.0,0.0,0.0,0.0,0.0,0.0,0.0,0.0,0.0,0.0,0.0,3.9396,4.0208,4.0246,4.0015,3.955,3.8703,3.7853,3.6965,3.6965,3.6542,3.5769,3.5769,3.6,3.6504,3.7853,3.7815,3.6773,3.7969,3.743,3.5769,3.5769,3.6038,3.6462,3.6619,3.7119,0.0,0.0,0.0,0.0,0.0,0.0,0.0,4.0439,4.1474,4.3055,4.5218,4.7386,4.9771,5.2867,5.2866,5.2582,5.4936,5.5733,5.8202,6.6562,6.6953,6.6445,6.9765,6.9531,6.9336,7.1367,7.1875,7.1992,7.1992,7.1992,7.1992,7.1992,7.1992,7.1992,7.1992,7.1992,7.1992,7.1992,7.1992,7.2265,7.2969,7.3828,7.4687,7.5586,7.6445,7.6992,7.7187,7.7052,7.6939,7.6917,7.6571,7.6725,7.7329,7.735,7.8019,7.9246,7.9246,7.9746,8.0554,8.0746,8.0939,8.1093,8.1093,8.1093,8.117,8.1785,8.2054,8.2131,8.2986,8.3747,8.4401,0.0,0.0,0.0,0.0,0.0,0.0,0.0,0.0,0.0,0.0,0.0,0.0,0.0,0.0,0.0,0.0,0.0,0.0,0.0,0.0,4.0054,4.0477,4.0131,3.9742,3.9319,3.8046,3.735,3.7311,3.6888,3.6504,3.6077,3.6077,3.6504,3.735,3.7853,3.7777,3.7311,3.743,3.7199,3.6657,3.6231,3.658,3.7311,3.7311,3.7853,3.8665,3.9127,0.0,0.0,0.0,0.0,0.0,0.0,0.0,4.4449,4.5441,4.7579,5.0116,5.244,5.3729,5.5126,5.8073,6.1091,6.4336,6.8047,6.9101,6.9726,7.1055,7.0625,7.043,7.1758,7.1992,7.1992,7.1992,7.1992,7.1992,7.1992,7.1992,7.1992,7.1992,7.1992,7.1992,7.1992,7.1992,7.2344,7.3242,7.4101,7.4961,7.5859,7.6719,7.7147,7.7054,7.6944,7.6829,7.6597,7.6827,7.7106,7.7454,7.8149,7.9169,8.0439,8.0439,8.0669,8.1093,8.1093,8.1093,8.1093,8.1093,8.1323,8.1708,8.2131,8.2554,8.3016,8.3901,8.4516,8.497,0.0,0.0,0.0,0.0,0.0,0.0,0.0,0.0,0.0,0.0,0.0,0.0,0.0,0.0,0.0,0.0,0.0,0.0,0.0,0.0,0.0,4.0285,3.9669,3.9242,3.9088,3.7661,3.7273,3.8007,3.7273,3.7234,3.7811,3.7657,3.8042,3.8854,3.7811,3.77,3.8123,3.6427,3.658,3.793,3.7196,3.7465,3.8238,3.8238,3.8742,3.9511,3.9511,3.9938,4.0516,4.0516,0.0,0.0,0.0,0.0,4.6198,4.4875,4.6996,5.007,5.1174,5.4205,5.8295,6.3475,6.707,6.9101,6.8008,6.9648,7.1484,7.1914,7.1992,7.1992,7.1992,7.1992,7.1992,7.1992,7.1992,7.1992,7.1992,7.1992,7.1992,7.1992,7.1992,7.1992,7.1992,7.2148,7.2578,7.3476,7.4296,7.5154,7.6013,7.6713,7.7005,7.6858,7.6793,7.6692,7.6532,7.7206,7.7621,7.7746,7.9285,8.04,8.1093,8.1093,8.1093,8.1093,8.1093,8.1093,8.1093,8.1246,8.1708,8.2324,8.2631,8.317,8.3947,8.4786,8.5132,8.5201,0.0,0.0,0.0,0.0,0.0,0.0,0.0,0.0,0.0,0.0,3.8473,3.8277,0.0,0.0,0.0,0.0,0.0,0.0,4.0477,0.0,0.0,3.9473,3.9358,3.8934,3.82,3.7969,3.7892,3.8007,3.7892,3.9354,4.2239,4.1466,4.1581,4.2354,4.0704,3.9665,3.9011,3.7273,3.7081,3.8007,3.7853,3.8354,3.9127,3.9127,3.9627,4.0323,4.0323,4.04,4.0516,4.0516,4.1012,0.0,0.0,0.0,4.4594,4.4393,4.736,5.0933,5.1826,5.5834,6.0871,6.5429,6.5273,6.5312,7.0195,6.9961,6.9336,7.1523,7.1992,7.1992,7.1992,7.1992,7.1992,7.1992,7.1992,7.1992,7.1992,7.1992,7.1992,7.1992,7.1992,7.1992,7.1992,7.2695,7.3476,7.4375,7.5057,7.5845,7.6705,7.6729,7.6683,7.6621,7.6479,7.6713,7.7412,7.7363,7.8067,7.9469,8.0477,8.0977,8.1093,8.1093,8.1093,8.1093,8.1093,8.1093,8.1131,8.1862,8.2208,8.2439,8.3978,8.4632,8.4816,8.5632,8.594,8.5978,0.0,0.0,0.0,0.0,0.0,0.0,0.0,0.0,0.0,0.0,0.0,3.905,0.0,0.0,0.0,4.0477,4.0516,4.0516,4.0516,4.0092,3.9861,3.9977,3.9088,3.8627,3.8742,3.8238,3.8238,3.8742,3.8742,4.1435,4.6624,4.624,4.5509,4.4513,4.4662,4.2974,3.9977,4.02,3.9662,3.8742,3.8742,3.9242,3.9977,3.9977,4.0208,4.0516,4.0516,4.0819,4.1239,4.1239,4.1816,4.2624,4.3047,0.0,0.0,0.0,4.6767,4.9672,5.4436,5.6475,5.9116,6.682,6.5778,6.4478,7.0449,6.9956,6.8906,7.1484,7.1992,7.1992,7.1992,7.1992,7.1992,7.1992,7.1992,7.1992,7.1992,7.1992,7.1992,7.1992,7.1992,7.2187,7.2695,7.3086,7.3867,7.5234,7.5519,7.5982,7.6841,7.6718,7.6529,7.6443,7.6819,7.7171,7.7414,7.8289,7.9323,8.0516,8.0939,8.1093,8.1093,8.1093,8.1093,8.1093,8.1093,8.1362,8.1785,8.2131,8.2862,8.3824,8.4593,8.5162,8.5632,8.5978,8.6094,8.6094,0.0,0.0,0.0,0.0,0.0,0.0,0.0,0.0,0.0,0.0,0.0,0.0,0.0,0.0,0.0,0.0,4.0516,4.0516,4.0516,4.0165,4.0012,4.0208,3.9011,3.8627,3.9281,3.8665,3.8854,3.9935,3.9935,4.297,4.8779,4.9433,4.8822,4.7244,4.8048,4.6432,4.3132,4.3551,4.2628,4.0896,4.0896,4.0746,4.0516,4.0743,4.0819,4.0858,4.1089,4.1585,4.2119,4.2119,4.2543,4.3239,4.4047,4.4316,0.0,0.0,0.0,4.9001,5.5722,5.6385,5.7225,6.5806,6.4856,6.3133,6.8236,6.8199,6.7801,7.0426,7.1481,7.195,7.1992,7.1992,7.1992,7.1992,7.1992,7.1992,7.1992,7.1992,7.1992,7.1992,7.1992,7.2344,7.3203,7.3435,7.4175,7.5698,7.5781,7.6042,7.6705,7.6576,7.6366,7.6231,7.7064,7.7563,7.7599,7.9285,8.0477,8.1093,8.1093,8.1093,8.1093,8.1093,8.1208,8.14,8.14,8.1747,8.2324,8.2785,8.3747,8.4931,8.5124,8.5555,8.6094,8.6094,8.6094,8.6094,0.0,0.0,0.0,0.0,0.0,0.0,0.0,0.0,0.0,0.0,0.0,0.0,4.0516,4.0516,4.0516,4.0516,4.0516,4.0516,4.0516,4.1239,4.0969,3.9434,3.9281,0.0,3.9281,3.9242,4.0046,4.1658,4.1658,4.3504,4.7081,4.9514,5.0971,5.1505,5.001,4.963,4.9976,4.6821,4.5402,4.5287,4.5287,4.3363,4.0593,4.1431,4.1735,4.185,4.2662,4.3008,4.3047,4.3047,4.3047,4.3239,4.4047,4.4316,4.4624,0.0,0.0,0.0,5.3851,5.5394,5.6883,6.0778,6.0373,5.9708,6.2447,6.3556,6.4826,6.756,7.0027,7.1758,7.1952,7.1992,7.1992,7.1992,7.1992,7.1992,7.1992,7.1992,7.1992,7.1992,7.1992,7.2344,7.3203,7.3882,7.4621,7.556,7.6023,7.6294,7.6332,7.6154,7.6027,7.6005,7.6852,7.7699,7.8446,8.0169,8.1054,8.1093,8.1093,8.1093,8.1093,8.1093,8.1516,8.2247,8.2247,8.2247,8.2439,8.4093,8.4816,8.497,8.5747,8.6055,8.6094,8.6094,8.6094,8.6094,0.0,0.0,0.0,0.0,0.0,0.0,0.0,0.0,0.0,0.0,0.0,0.0,0.0,4.1012,4.1316,4.1316,4.1316,4.1316,4.1316,4.0623,4.0165,4.0054,4.0054,4.0319,4.0893,4.1431,4.2047,4.2624,4.2624,4.4081,4.6928,4.7817,4.9279,5.1279,5.4472,5.3049,4.8471,5.1592,4.913,4.3585,4.8509,4.7124,4.2435,4.4893,4.5851,4.5581,4.3778,4.4855,4.6817,4.4624,4.4244,4.4667,4.4397,4.5086,4.6312,4.8009,4.8933,5.0269,5.4279,5.4003,5.3953,5.9566,5.8137,5.6572,6.1324,6.3234,6.4285,6.5259,6.8883,7.14,6.9843,7.0898,7.1992,7.1992,7.1992,7.1992,7.1992,7.1992,7.1992,7.1992,7.2372,7.2977,7.3875,7.4533,7.5309,7.6169,7.4257,7.3976,7.6173,7.4019,7.3976,7.6753,7.7638,7.8754,8.0131,8.0785,8.1093,8.1093,8.1093,8.1093,8.1131,8.1631,8.2016,8.2362,8.3478,8.3978,8.4016,8.4624,8.5201,8.5709,8.5978,8.6094,8.6094,8.6094,8.6094,8.6094,0.0,0.0,0.0,0.0,0.0,0.0,0.0,0.0,0.0,4.0896,0.0,0.0,0.0,0.0,4.1696,4.1393,4.1619,4.1812,4.1812,4.1046,4.0819,4.1358,4.1358,4.1627,4.2235,4.2239,4.2662,4.3508,4.2662,4.3547,4.6043,4.6889,4.8202,5.0053,5.5126,5.4741,5.0625,5.5708,5.378,4.7697,5.162,5.051,4.6624,4.8009,4.8548,4.8432,4.7625,4.8394,4.9707,4.886,4.7822,4.6937,4.7201,4.7509,4.7971,4.9086,4.963,5.0438,5.3246,5.24,5.1784,5.6285,5.5109,5.3932,5.7903,6.1193,6.3425,6.3478,6.7909,7.1228,6.9612,7.0671,7.1856,7.1992,7.1992,7.1992,7.1992,7.1951,7.1906,7.1906,7.2477,7.323,7.4129,7.4799,7.5573,7.6436,7.4191,7.3787,7.6094,7.3921,7.4168,7.7599,7.8523,7.9631,8.1093,8.1093,8.1093,8.1093,8.1093,8.1246,8.1516,8.2054,8.2631,8.3247,8.4401,8.4893,8.4931,8.5201,8.5632,8.6094,8.6094,8.6094,8.6094,8.6094,8.6094,8.6094,0.0,0.0,0.0,0.0,0.0,0.0,0.0,0.0,4.0781,4.1658,0.0,0.0,0.0,0.0,0.0,4.0669,4.1393,4.1889,4.1889,4.2624,4.3085,4.3085,4.3124,4.3124,4.3124,4.1474,4.182,4.4355,4.182,4.1897,4.4355,4.6817,4.7966,4.8082,5.1543,5.4472,5.6907,5.8704,5.8896,5.7621,5.4736,5.3313,5.2736,5.0587,4.9663,5.001,5.4246,5.3708,5.1553,5.567,5.3708,4.9933,5.2318,5.1356,4.9356,4.9433,5.0053,5.0707,0.0,0.0,0.0,5.0707,5.1318,5.1885,5.1885,5.7137,6.2018,6.2154,6.6912,7.1116,7.1329,7.1442,7.1625,7.1948,7.1992,7.1992,7.1992,7.181,7.1686,7.1686,7.2312,7.3062,7.3925,7.4601,7.5371,7.6245,7.6031,7.5899,7.5976,7.6053,7.6823,7.8446,7.9361,8.0246,8.1093,8.1093,8.1093,8.1093,8.1093,8.1516,8.2285,8.2324,8.3285,8.4893,8.4931,8.4931,8.5008,8.5778,8.6094,8.6094,8.6094,8.6094,8.6094,8.6094,8.6094,8.6094,0.0,0.0,0.0,0.0,0.0,0.0,4.0516,4.0516,4.0593,0.0,0.0,0.0,4.0858,4.2008,4.2893,4.3205,4.347,4.3624,4.3624,4.3278,4.3085,4.3085,4.3662,4.397,4.397,4.3513,4.3897,4.5244,4.3897,4.3628,4.4316,4.5009,4.5047,4.4662,4.8663,5.0856,5.1861,5.7203,5.5126,4.9009,5.855,5.6472,4.8514,5.5824,5.5511,5.1774,5.6049,5.6973,5.6395,5.755,5.5357,5.1933,5.0818,4.9548,4.8702,4.9976,5.0515,5.0707,5.0707,0.0,0.0,0.0,0.0,0.0,5.1885,5.5393,5.8798,5.9409,6.3903,6.7935,6.8575,7.0226,7.1514,7.1601,7.1653,7.1653,7.1653,7.158,7.1554,7.1554,7.2663,7.3525,7.3762,7.4967,7.5816,7.6054,7.3731,7.3399,7.5861,7.7138,7.8023,7.8484,7.9977,8.0862,8.1093,8.1093,8.1093,8.1093,8.1093,8.1516,8.2324,8.2947,8.3862,8.4931,8.5517,8.5786,8.5786,8.6017,8.6094,8.6094,8.6094,8.6094,8.6094,8.6094,8.6094,8.6094,0.0,0.0,0.0,0.0,0.0,4.0516,4.0516,4.0516,4.0627,0.0,0.0,0.0,4.2051,4.2701,4.3278,4.3778,4.3816,4.3932,4.4278,4.3855,4.3778,4.4128,4.4244,4.4474,4.4821,4.3816,4.4047,4.5594,4.4047,4.3624,4.4316,4.4316,4.4244,4.4282,4.7086,4.8548,4.9202,5.4587,5.4895,5.2361,5.9742,5.9665,5.5665,6.0704,6.0127,5.7159,6.1083,6.1583,6.066,6.2429,6.0089,5.6049,5.4203,5.1587,4.9663,5.2092,5.1784,5.0707,5.0707,5.0707,5.0707,5.0707,0.0,0.0,5.1395,5.5205,5.891,5.937,6.4145,6.8,6.7042,6.8141,6.9163,6.9163,6.9163,6.9701,7.1266,7.1412,7.1356,7.1356,7.2716,7.3617,7.3617,7.5057,7.6015,7.6015,7.4168,7.4053,7.6399,7.7792,7.8677,7.9015,8.0362,8.1093,8.1093,8.1093,8.1093,8.1093,8.1439,8.2054,8.2862,8.3747,8.4593,8.5431,8.5901,8.6094,8.6094,8.6094,8.6094,8.6094,8.6094,8.6094,8.6094,8.6094,8.6094,8.6094,0.0,0.0,4.0477,4.0362,4.0516,4.0627,4.0627,4.0746,4.1089,0.0,4.2624,4.3355,4.4085,4.3624,4.3239,4.3239,4.3316,4.3662,4.4397,4.4436,4.4782,4.5556,4.4859,4.4821,4.5594,4.3278,4.3239,4.5594,4.3239,4.2927,4.4586,4.4586,4.5051,4.5898,4.6701,4.7428,4.8312,5.1467,5.6049,6.1133,5.9511,6.2237,6.7045,6.4852,6.3545,6.3391,6.7276,6.6468,6.416,6.7975,6.5743,6.1089,5.955,5.5472,5.1784,5.4362,5.3015,5.0707,5.0707,5.0707,5.0707,5.0707,5.0707,0.0,5.0707,5.5362,5.9787,6.0171,6.5013,6.8436,6.582,6.5327,6.5327,6.5327,6.5327,6.6647,7.0479,7.1091,7.1058,7.0787,7.2277,7.3392,7.3507,7.4938,7.5899,7.5976,7.6015,7.6361,7.7253,7.8061,7.8907,7.9777,8.0669,8.1093,8.1093,8.1093,8.1093,8.1093,8.19,8.2747,8.364,8.4516,8.5363,8.6094,8.6094,8.6094,8.6094,8.6094,8.6094,8.6094,8.6094,8.6094,8.6094,8.6094,8.6094,8.6094,0.0,4.0054,4.0285,3.9665,4.0662,4.1542,4.1542,4.2124,4.2662,4.2816,4.3008,4.3162,4.3316,4.3778,4.4085,4.4085,4.4705,4.5167,4.5321,4.5359,4.5436,4.5594,4.5436,4.5436,4.5594,4.4436,4.4397,4.5594,4.4397,4.4701,4.6389,4.6389,4.6812,4.7625,4.7774,4.7966,4.8197,4.9548,5.2395,5.6357,6.0621,6.1506,6.0852,6.6353,6.5051,6.1127,6.7975,6.8244,6.5513,6.6359,6.5859,6.3903,5.8248,5.567,5.4323,5.2284,5.1207,5.0707,5.0707,5.0707,5.0707,5.0707,5.0707,0.0,5.0707,5.1707,5.3439,5.6132,5.7747,5.9325,6.1402,6.1781,6.1781,6.1781,6.1781,6.3258,6.739,6.97,7.0196,6.816,7.0599,7.2745,7.343,7.4392,7.5245,7.5938,7.6015,7.6361,7.7253,7.8061,7.8907,7.9777,8.0669,8.1093,8.1093,8.1093,8.1093,8.1093,8.19,8.2747,8.364,8.4516,8.5363,8.6094,8.6094,8.6094,8.6094,8.6094,8.6094,8.6094,8.6094,8.6094,8.6094,8.6094,8.6094,8.6094,4.0546,4.12,4.1666,4.1281,4.1893,4.2466,4.2466,4.2816,4.3085,4.3085,4.382,4.4509,4.497,4.5355,4.5586,4.5586,4.559,0.0,0.0,4.5594,4.5594,4.5594,4.5167,4.5359,4.624,4.5398,4.5552,4.6855,4.6394,4.6624,4.7505,4.7505,4.7697,4.812,4.8548,4.874,4.8817,4.9668,5.2015,5.5511,6.0165,6.2089,6.2704,6.8205,6.8167,6.5705,6.9513,6.9821,6.8129,6.6481,6.5904,6.5288,6.1864,5.844,5.5362,5.3708,5.2015,5.0707,5.0707,5.0707,5.0707,5.0707,5.0707,0.0,0.0,5.1977,5.3669,5.5362,5.7055,5.8248,5.8248,5.8248,5.8248,5.8248,5.8248,5.9132,6.171,6.5705,6.8552,6.8936,7.0898,7.2552,7.343,7.4238,7.5046,7.5938,7.6015,7.6553,7.783,7.8292,7.91,8.04,8.0862,8.1093,8.1093,8.1093,8.1285,8.1708,8.2554,8.3401,8.4286,8.5132,8.5701,8.6094,8.6094,8.6094,8.6094,8.6094,8.6094,8.6094,8.6094,8.6094,8.6094,8.6094,8.6094,8.6094,4.1927,4.2624,4.3085,4.3085,4.3239,4.3316,4.3316,4.347,4.3624,4.3816,4.5013,4.6355,4.7735,4.7274,4.7081,4.7582,4.6975,0.0,4.5898,4.6436,4.659,4.609,4.5398,4.5701,4.7081,4.6432,4.674,4.8082,4.8082,4.8197,4.8355,4.8355,4.8432,4.8625,4.9163,4.9856,5.0664,5.1207,5.3477,5.6978,6.0402,6.3051,6.5359,6.936,7.0514,7.0014,7.0667,7.0898,7.0398,6.7019,6.5904,6.5788,6.5134,6.0671,5.5708,5.5708,5.3323,5.0707,5.0707,5.0707,5.0707,5.0707,5.0707,5.0707,0.0,0.0,0.0,5.4747,5.694,5.8017,5.5247,5.4747,5.4631,5.428,5.4516,5.5093,5.6132,6.0671,6.5019,6.7859,6.9289,7.036,7.1199,7.2776,7.4361,7.5899,7.6015,7.6746,7.8407,7.8484,7.9292,8.1054,8.1093,8.1093,8.1093,8.1093,8.1516,8.2324,8.3178,8.4055,8.4931,8.5747,8.6094,8.6094,8.6094,8.6094,8.6094,8.6094,8.6094,8.6094,8.6094,8.6094,8.6094,8.6094,8.6094,8.6094,4.2931,4.3047,4.3085,4.3085,4.3701,4.4162,4.4162,4.4821,4.559,4.6351,4.662,4.7928,5.1,4.8697,4.7812,5.0053,5.0168,4.9168,4.6889,4.9543,5.0197,4.7894,4.7735,4.7774,4.7966,4.7851,4.7889,4.8082,4.8082,4.8509,4.924,4.924,4.9668,5.0361,4.9707,5.1471,5.4939,5.4323,5.6439,6.0517,6.3942,6.3749,6.2089,6.8475,6.9052,6.6865,6.9821,7.0898,7.0398,6.7019,6.5904,6.5359,6.2326,5.8786,5.5708,5.5708,5.3323,5.0707,5.0707,5.0707,5.0707,5.0707,5.0707,5.0707,5.0707,0.0,5.1284,5.1284,0.0,5.1746,5.1323,0.0,0.0,4.9202,5.0245,5.1823,5.3395,5.5472,5.7286,5.844,6.0671,6.2441,6.3326,6.7552,7.186,7.5707,7.6015,7.6746,7.8407,7.8484,7.9292,8.1054,8.1093,8.1093,8.1093,8.1093,8.1516,8.2324,8.3178,8.4055,8.4931,8.5747,8.6094,8.6094,8.6094,8.6094,8.6094,8.6094,8.6094,8.6094,8.6094,8.6094,8.6094,8.6094,8.6094,8.6094,4.2624,4.3124,4.3816,4.3816,4.4085,4.4474,4.4975,4.5778,4.6317,4.6163,4.7432,4.9471,5.2351,5.1851,5.251,5.5549,5.5395,5.4664,5.3582,5.2967,5.2197,5.112,4.9159,4.8355,4.8856,4.8856,4.9086,4.963,4.963,4.9784,5.0168,5.0168,5.0091,4.9938,4.9548,5.1471,5.4972,5.4626,5.6934,6.0941,6.2358,6.2089,6.1556,6.8321,7.0014,6.8744,6.8205,6.9244,7.009,6.4743,6.5551,6.7859,6.248,5.9819,5.8671,5.8671,5.4862,5.113,5.3054,5.3592,5.3592,5.3592,5.3592,5.3592,5.3592,5.2092,5.0707,5.0707,0.0,0.0,0.0,0.0,0.0,0.0,5.0207,5.0938,5.1669,5.2361,5.44,5.8709,6.0133,6.2089,6.5436,6.6359,6.8475,7.2706,7.3053,7.3783,7.5515,7.7445,7.9292,8.1054,8.1093,8.1093,8.1093,8.1554,8.2208,8.3062,8.3939,8.4786,8.5624,8.594,8.6094,8.6094,8.6094,8.6094,8.6094,8.6094,8.6094,8.6094,8.6094,8.6094,8.6094,8.6094,8.6094,8.6094,4.2543,4.3508,4.4667,4.4667,4.4667,4.4936,4.5821,4.7278,4.8197,4.8052,4.9668,5.1933,5.4972,5.3972,5.4818,5.9127,5.8775,5.839,5.8627,5.6313,5.5049,5.528,5.1125,4.9548,5.1087,5.0245,5.0053,5.0707,5.0707,5.0707,5.0707,5.0707,5.0361,4.9745,4.9514,5.1279,5.4549,5.5472,5.8165,6.1935,6.3089,6.3557,6.4012,6.8013,7.009,7.0591,6.8129,6.8821,7.0014,6.4166,6.5474,6.8667,6.3749,6.1556,6.0979,6.1941,5.8055,5.4016,5.6439,5.7093,5.6863,5.5939,5.5708,5.5478,5.4554,5.2438,5.0707,5.0707,5.0707,0.0,0.0,0.0,5.0553,5.0053,0.0,5.0515,5.0053,5.0399,5.2515,5.744,5.8825,6.105,6.5237,6.4775,6.5705,6.9244,7.0398,7.1668,7.3392,7.6669,7.9292,8.1054,8.1093,8.1093,8.1093,8.19,8.2747,8.3601,8.4478,8.5316,8.6094,8.6094,8.6094,8.6094,8.6094,8.6094,8.6094,8.6094,8.6094,8.6094,8.6094,8.6094,8.6094,8.6094,8.6094,8.6094,4.3239,4.4397,4.5556,4.5556,4.5556,4.5859,4.6735,4.9659,5.2351,5.401,5.428,5.5934,6.0094,5.3972,5.2241,5.8934,5.8775,5.8621,5.9396,5.9358,5.9665,6.0517,5.417,5.213,5.5439,5.2323,5.0668,5.0707,5.0707,5.0707,5.0707,5.0707,5.0707,5.063,4.9784,5.1279,5.4703,5.7973,6.132,6.4859,6.8936,7.0591,7.0244,6.7205,6.8052,7.0898,7.0783,7.0821,7.036,6.6898,6.5859,6.6019,6.5788,6.348,6.1441,6.4788,6.3249,6.0517,6.0594,6.0633,5.9825,5.6516,5.5708,5.4862,5.1592,5.0784,5.0707,5.0707,5.0707,5.0707,5.0707,0.0,0.0,0.0,0.0,0.0,0.0,4.963,5.0784,5.1015,5.39,5.6588,5.8434,6.1506,6.4089,6.5936,6.9052,7.1668,7.3392,7.6669,7.9292,8.1054,8.1093,8.1093,8.1093,8.19,8.2747,8.3601,8.4478,8.5316,8.6094,8.6094,8.6094,8.6094,8.6094,8.6094,8.6094,8.6094,8.6094,8.6094,8.6094,8.6094,8.6094,8.6094,8.6094,8.6094,4.6894,4.6855,4.6894,4.5782,4.609,4.674,4.7582,4.9159,5.1048,5.3356,5.4626,5.7357,6.2743,6.1512,6.1248,6.3551,6.5513,6.582,6.3858,6.3743,6.3858,6.4172,5.9825,5.6863,5.5708,5.4593,5.2938,5.0707,5.0707,5.0707,5.0707,5.0707,5.0707,5.0668,4.9784,5.1587,5.5478,5.8319,6.182,6.559,6.7013,6.7898,6.8443,6.9013,6.9898,7.0898,7.0898,7.0898,7.0398,6.7019,6.7359,6.8821,6.659,6.5096,6.4826,6.8205,6.5205,6.1281,6.3551,6.4166,6.3897,6.2749,6.0748,5.8786,5.7632,5.39,5.0707,5.0707,5.0707,5.0707,5.0707,0.0,0.0,0.0,0.0,0.0,0.0,5.0322,5.0707,5.0707,5.1707,5.3703,5.7121,5.6929,5.8006,6.1396,6.3243,6.4974,6.666,7.2122,7.5976,7.7669,7.9939,8.1093,8.1093,8.2477,8.3332,8.3601,8.5016,8.5863,8.6094,8.6094,8.6094,8.6094,8.6094,8.6094,8.6094,8.6094,8.6094,8.6094,8.6094,8.6094,8.6094,8.6094,8.6094,8.6094,4.8774,4.8355,4.8125,4.6744,4.6932,4.8005,5.0048,5.0856,5.2779,5.7165,5.7588,5.9556,6.4897,6.4666,6.4705,6.6211,6.6936,6.7398,6.7667,6.4282,6.3897,6.7513,6.2095,5.9094,5.9325,5.694,5.5247,5.4285,5.1861,5.1323,5.2438,5.1246,5.0707,5.0668,5.0091,5.1207,5.3746,5.8127,6.1396,6.3782,6.559,6.7558,6.9436,6.986,7.0783,7.1822,7.1822,7.1822,7.1475,6.9321,7.0052,7.1437,6.9283,6.859,6.9013,7.1206,6.8744,6.5782,6.8013,6.859,6.8244,6.6712,6.4673,6.2749,6.1518,5.7632,5.4362,5.467,5.4516,5.3823,5.2323,0.0,0.0,0.0,0.0,0.0,0.0,5.0707,5.0822,5.1087,5.1938,5.3318,5.5428,5.5275,5.5895,5.7973,5.9781,6.1512,6.3198,6.9776,7.4276,7.5938,7.9323,8.1093,8.1093,8.2747,8.3601,8.3601,8.5286,8.6094,8.6094,8.6094,8.6094,8.6094,8.6094,8.6094,8.6094,8.6094,8.6094,8.6094,8.6094,8.6094,8.6094,8.6094,8.6094,8.6094,4.8851,4.8817,4.9125,4.8312,4.8351,4.9856,5.3933,5.4703,5.7434,6.4711,6.298,6.2595,6.6596,6.3595,6.2787,6.6481,6.3288,6.3705,6.9975,6.1473,6.0589,7.0475,6.1627,5.944,6.5743,5.9517,5.7703,6.0787,5.417,5.2592,5.5631,5.2284,5.0707,5.0745,5.0745,5.0322,5.0087,5.7703,6.055,6.0358,6.5013,6.9475,7.2969,6.9699,7.0622,7.3623,7.3546,7.3507,7.3507,7.3507,7.3507,7.3507,7.3507,7.3507,7.3507,7.3507,7.3507,7.3507,7.3507,7.3507,7.2507,6.8436,6.7289,6.6327,6.3134,6.1633,6.1172,6.1979,6.1518,5.9704,5.5665,5.5434,0.0,0.0,0.0,0.0,0.0,5.0822,5.113,5.189,5.4087,5.4934,5.3351,5.6159,5.7434,5.5785,5.8709,6.1358,6.3198,6.9468,7.393,7.5938,7.8977,8.0785,8.117,8.2601,8.3447,8.3678,8.5324,8.6094,8.6094,8.6094,8.6094,8.6094,8.6094,8.6094,8.6094,8.6094,8.6094,8.6094,8.6094,8.6094,8.6094,8.6094,8.6094,8.6094,4.9856,4.924,4.9317,4.9125,5.1664,5.4126,5.5208,5.7555,5.9902,6.1858,6.3551,6.5019,6.6096,6.7475,6.6705,6.2749,6.3749,6.4249,6.3441,6.332,6.5551,7.0667,6.8398,6.6667,6.5904,6.4166,6.248,6.0787,5.6516,5.4862,5.5631,5.2284,5.1015,5.1582,5.1582,5.1813,5.2664,5.9704,6.4006,6.6006,6.4775,6.6853,7.0591,6.9699,7.186,7.5207,7.393,7.3507,7.3507,7.3507,7.3507,7.3507,7.3507,7.3507,7.3507,7.3507,7.3507,7.3507,7.3507,7.3507,7.3238,7.2122,6.9937,6.7859,6.6968,6.4622,6.2698,6.2929,6.2814,6.2314,6.1237,5.916,5.728,0.0,0.0,0.0,0.0,5.2549,5.2626,5.2851,5.3428,5.3664,5.3236,5.4587,5.528,5.4857,5.617,5.8858,6.3083,6.4968,6.9007,7.5784,7.4399,7.6245,8.1939,8.0523,8.1408,8.4593,8.5593,8.6094,8.6094,8.6094,8.6094,8.6094,8.6094,8.6094,8.6094,8.6094,8.6094,8.6094,8.6094,8.6094,8.6094,8.6094,8.6094,8.6094,4.9586,4.9125,4.9394,4.9394,5.4131,5.794,5.794,5.9556,6.1864,6.482,6.5904,6.6981,6.8481,7.0667,7.0514,6.6667,6.5397,6.5205,6.6282,6.3974,6.5243,7.1206,7.0059,6.8205,6.5942,6.5904,6.5134,6.3557,5.8665,5.7203,5.8934,5.4049,5.2049,5.2467,5.2467,5.2736,5.3621,6.0429,6.5506,6.8814,6.6853,6.8898,0.0,7.136,7.3399,7.6976,7.6015,7.5207,7.4591,7.4591,7.4591,7.4591,7.4591,7.4591,7.4591,7.4591,7.4591,7.4591,7.4591,7.4591,7.4507,7.4123,7.2584,7.1161,7.1161,6.9391,6.7853,6.8199,6.8007,6.7199,6.532,6.2506,5.9506,0.0,0.0,0.0,0.0,5.4505,5.5005,5.3895,5.5049,5.5511,5.4395,5.4434,5.4664,5.5011,5.5439,5.728,6.0929,6.3929,6.7391,7.1475,7.2976,7.5053,7.7861,7.7207,7.8784,8.2662,8.3516,8.467,8.6094,8.6094,8.6094,8.6094,8.6094,8.6094,8.6094,8.6094,8.6094,8.6094,8.6094,8.6094,8.6094,8.6094,8.6094,8.6094,4.8659,4.8625,4.9356,4.9817,5.5549,6.0479,6.1479,6.2018,6.4243,6.9706,6.8981,6.8898,7.1444,7.2783,7.3315,7.2853,6.7391,6.6506,7.243,6.4545,6.3435,7.2021,6.9513,6.7596,6.6898,6.6898,6.7244,6.7943,6.116,5.9698,6.316,5.6352,5.3274,5.3351,5.3351,5.3933,5.5241,6.066,6.5699,7.0014,7.0014,7.2745,7.6522,7.3983,7.5291,7.8484,7.8484,7.7561,7.6322,7.6322,7.6322,7.6322,7.6322,7.6322,7.6322,7.6322,7.6322,7.6322,7.6322,7.6322,7.613,7.5399,7.5123,7.5053,7.5053,7.4392,7.4046,7.4738,7.4315,7.2699,6.8936,6.5628,6.1391,5.5044,5.3659,5.3313,5.3236,5.6313,5.7588,5.4818,5.755,0.0,5.5978,5.5049,5.4934,5.567,5.5708,5.6665,5.8852,6.4122,6.693,6.6551,7.2559,7.4906,7.306,7.4014,7.6584,8.0623,8.0939,8.2862,8.6094,8.6094,8.6094,8.6094,8.6094,8.6094,8.6094,8.6094,8.6094,8.6094,8.6094,8.6094,8.6094,8.6094,8.6094,8.6094,4.8043,4.7774,4.924,5.2043,5.478,5.8709,6.5019,6.8404,6.9636,6.7981,7.0475,7.1545,6.9314,7.1738,7.2353,6.9545,6.8199,6.8007,6.9199,6.7622,6.8622,7.3084,7.2699,7.2315,7.2161,7.2161,7.2238,7.2392,6.5545,6.2583,6.316,5.6352,5.3587,5.428,5.428,5.778,6.3551,6.1935,6.532,7.1752,7.1752,7.2745,7.4392,7.6553,7.7869,7.8484,7.8484,7.8292,7.8061,7.8061,7.8061,7.8061,7.8061,7.8061,7.8061,7.8061,7.8061,7.8061,7.8061,7.8061,7.8023,7.7869,7.733,7.6823,7.6823,7.6169,7.5592,7.5745,7.5668,7.5322,7.4591,6.8936,6.3051,5.905,5.6088,5.401,5.3313,5.7319,5.8896,5.4972,5.8088,5.9281,5.6016,5.5555,5.5555,5.5708,5.5708,5.7665,6.2198,6.0929,6.3121,6.9821,6.8629,7.0944,7.733,7.4938,7.7507,8.4978,8.2362,8.2862,8.6094,8.6094,8.6094,8.6094,8.6094,8.6094,8.6094,8.6094,8.6094,8.6094,8.6094,8.6094,8.6094,8.6094,8.6094,8.6094,5.1164,4.974,4.9586,5.2082,5.6467,6.0896,6.4589,7.0283,7.3283,7.0744,7.2976,7.4161,7.2507,7.4591,7.5438,7.3783,7.2045,7.1622,7.2937,7.136,7.1475,7.4007,7.4123,7.3084,7.0891,7.2584,7.2853,7.1545,6.6468,6.4205,6.4512,5.7665,5.4703,5.5208,5.6978,6.0056,6.4057,6.5904,6.909,7.3014,7.4791,7.5976,7.6931,7.8554,7.9438,7.9862,7.9862,7.9862,7.9715,7.8792,7.8484,7.8484,7.8484,7.8484,7.8484,7.8484,7.8484,7.8484,7.8484,7.8484,7.8484,7.8484,7.8215,7.7907,7.7907,7.7599,7.7284,7.7284,7.7284,7.6638,7.4437,7.0667,6.6744,6.3358,5.9588,5.6934,5.6549,5.8204,5.8896,5.728,6.0435,6.1589,5.8632,5.8363,5.7594,5.5824,5.6132,5.7627,6.0544,6.1237,6.3628,6.8167,6.9321,7.1783,7.5861,7.5168,7.7746,8.3478,8.1862,8.2862,8.6094,8.6094,8.6094,8.6094,8.6094,8.6094,8.6094,8.6094,8.6094,8.6094,8.6094,8.6094,8.6094,8.6094,8.6094,8.6094,5.5626,5.3823,5.2818,5.5005,5.9929,6.4199,6.6006,7.1514,7.513,7.4161,7.5476,7.6515,7.6515,7.7715,7.8215,7.7484,7.5668,7.4784,7.5361,7.4252,7.3822,7.443,7.5123,7.3937,7.0629,7.3007,7.3315,7.1321,6.7705,6.582,6.5474,5.9556,5.6901,5.7209,6.0633,6.3018,6.4865,7.0213,7.3399,7.5084,7.7707,7.9285,8.0092,8.0092,8.0631,8.1362,8.1362,8.1477,8.14,8.0062,7.9369,7.9061,7.9061,7.9061,7.9061,7.9061,7.9061,7.9061,7.9061,7.9061,7.9061,7.9061,7.8907,7.8792,7.8792,7.8638,7.8484,7.8484,7.8484,7.7484,7.4137,7.2245,7.0052,6.6712,6.2551,5.9473,5.855,5.8819,5.9204,5.9473,6.2358,6.3397,6.1018,6.0473,5.9094,5.6209,5.6593,5.7786,5.955,6.2281,6.4436,6.5865,7.0122,7.2776,7.3507,7.4976,7.79,8.217,8.1439,8.2862,8.6094,8.6094,8.6094,8.6094,8.6094,8.6094,8.6094,8.6094,8.6094,8.6094,8.6094,8.6094,8.6094,8.6094,8.6094,8.6094,6.0325,6.0594,6.2172,6.616,6.5545,6.709,7.4822,7.4707,7.4199,7.5592,7.7246,7.8253,7.8253,7.8407,7.7292,7.4238,7.6476,7.5515,6.9622,7.4668,7.663,7.3738,7.6515,7.7946,7.7561,7.7138,7.683,7.6599,7.236,6.8398,6.4666,6.1704,6.0748,6.1633,6.5019,6.8706,7.2469,7.3122,7.5623,7.9238,7.9546,8.0208,8.0977,8.0977,8.1477,8.217,8.217,8.2708,8.3332,8.3178,8.2101,8.0862,8.0862,8.0862,8.0862,8.0862,8.0862,8.0862,8.0862,8.0862,8.0862,8.0862,8.0246,7.9669,7.9669,7.9054,7.8484,7.8484,7.8484,7.8369,7.7984,7.4714,7.0944,6.7558,6.3441,5.9319,5.5511,5.8863,6.1172,5.9665,0.0,0.0,6.0979,5.9435,5.8088,5.694,5.6945,5.9056,6.3743,6.2204,6.2595,6.5788,6.7859,7.0353,7.3469,7.4392,7.8469,8.5593,8.2554,8.2862,8.6094,8.6094,8.6094,8.6094,8.6094,8.6094,8.6094,8.6094,8.6094,8.6094,8.6094,8.6094,8.6094,8.6094,8.6094,8.6094,6.6744,6.5519,6.5243,6.793,6.9237,7.1084,7.4514,7.6746,7.8284,7.8977,7.9208,7.9285,7.9285,7.9746,7.9515,7.8169,7.9285,7.8707,7.543,7.7784,7.8438,7.6592,7.7792,7.8484,7.8484,7.8176,7.8023,7.8023,7.2245,6.8545,6.6814,6.3737,6.3589,6.6013,6.9436,7.2168,7.4353,7.6392,7.8546,8.0631,8.1093,8.1516,8.1862,8.2401,8.2793,8.3101,8.3101,8.3293,8.3601,8.3601,8.3139,8.2601,8.2601,8.2247,8.1823,8.1823,8.1477,8.1093,8.1093,8.1093,8.1093,8.1093,8.0823,8.0592,8.0592,8.0323,8.0054,8.0054,7.9631,7.9285,7.9285,7.7476,7.4714,7.079,6.8751,6.6173,6.1941,6.3095,0.0,6.6898,0.0,6.582,6.8205,6.3666,6.0864,6.1512,5.9671,5.9627,6.2166,6.3281,6.5897,7.0321,7.1122,7.4315,8.0277,7.9131,8.1093,8.6094,8.4747,8.4786,8.6094,8.6094,8.6094,8.6094,8.6094,8.6094,8.6094,8.6094,8.6094,8.6094,8.6094,8.6094,8.6094,8.6094,8.6094,8.6094,7.2899,7.1245,7.0129,7.1853,7.4123,7.5546,7.5053,7.8861,8.1477,8.0477,8.0669,8.0939,8.0939,8.1477,8.1439,8.04,8.1246,8.0631,7.7746,7.9438,7.9708,7.7869,7.8715,7.9254,7.9254,7.9015,7.8861,7.8861,7.3822,7.0744,6.9468,6.7051,6.7468,7.0391,7.3815,7.593,7.7092,7.9515,8.1054,8.1862,8.2439,8.267,8.2747,8.337,8.3755,8.3978,8.3978,8.414,8.4324,8.4324,8.4324,8.4255,8.3755,8.3178,8.267,8.267,8.2285,8.1823,8.1823,8.1823,8.1823,8.1823,8.1823,8.1785,8.1516,8.1439,8.14,8.1131,8.0592,8.0169,8.0169,7.9669,7.7946,7.3983,7.3091,7.1552,6.759,6.7013,0.0,7.1091,6.8359,6.7859,7.1968,6.7051,6.3749,6.4205,6.2474,6.1666,6.2287,6.4089,6.7128,7.1475,7.1392,7.4707,8.1816,8.0362,8.1785,8.6094,8.6094,8.6094,8.6094,8.6094,8.6094,8.6094,8.6094,8.6094,8.6094,8.6094,8.6094,8.6094,8.6094,8.6094,8.6094,8.6094,8.6094,8.6094,7.8407,7.8369,7.8907,8.0631,8.0977,8.0439,7.8715,8.137,8.237,7.8984,8.1447,8.3563,8.3563,8.3563,8.2216,7.883,8.1639,8.0369,7.279,7.8554,8.04,7.6207,7.9285,8.1054,8.1054,8.0208,7.9777,7.9777,7.8823,7.6253,7.2136,7.2098,7.3014,7.4776,7.82,8.0669,8.2208,8.2247,8.2755,8.3563,8.3563,8.3563,8.3601,8.3601,8.4132,8.4893,8.4893,8.5401,8.6055,8.6055,8.6055,8.5786,8.414,8.3601,8.3563,8.3563,8.3563,8.3563,8.3563,8.3563,8.3563,8.3563,8.3563,8.3332,8.2477,8.2285,8.2054,8.1246,8.1093,8.1093,8.1093,8.1093,7.9939,7.6515,7.5245,7.3514,7.0129,6.9667,0.0,6.9706,6.8167,6.7789,6.959,6.809,6.6013,6.3506,6.4859,6.582,6.5827,6.4243,6.4512,6.7096,6.6404,6.8821,7.4776,7.5668,7.9438,8.6094,8.6094,8.6094,8.6094,8.6094,8.6094,8.6094,8.6094,8.6094,8.6094,8.6094,8.6094,8.6094,8.6094,8.6094,8.6094,8.6094,8.6094,8.6094,7.456,7.8407,8.1408,7.9638,8.1254,8.2639,8.2062,8.3401,8.4093,8.3016,8.4286,8.5286,8.5286,8.4286,8.3178,8.2062,8.0831,8.0062,7.9985,7.9831,8.0139,8.1139,7.9985,7.9331,7.9331,7.9054,7.8631,7.8092,7.7823,7.6676,7.4784,7.5406,7.7169,7.9939,8.1631,8.267,8.3178,8.3178,8.337,8.364,8.4247,8.4478,8.4555,8.5093,8.5478,8.5701,8.5701,8.5901,8.6094,8.6094,8.6094,8.6017,8.5478,8.4939,8.4478,8.4478,8.4055,8.3601,8.3601,8.3601,8.3601,8.3601,8.3601,8.3524,8.3255,8.3178,8.3101,8.287,8.2793,8.2639,8.2016,8.19,8.0439,7.5861,7.7361,7.7669,7.3668,7.3129,7.3322,7.3937,7.0437,6.959,7.3591,7.0898,6.9244,7.0161,6.8622,6.7359,6.675,6.8398,7.1591,7.6476,7.5822,7.7669,8.2431,8.0477,8.1708,8.6094,8.6094,8.6094,8.6094,8.6094,8.6094,8.6094,8.6094,8.6094,8.6094,8.6094,8.6094,8.6094,8.6094,8.6094,8.6094,8.6094,8.6094,8.6094,7.6791,8.0331,8.3024,8.1208,8.267,8.3785,8.2824,8.4209,8.4901,8.3632,8.5016,8.6094,8.6094,8.517,8.4555,8.4555,8.2593,8.2131,8.3978,8.2093,8.1708,8.3524,8.1562,8.0408,8.0408,8.0408,8.0177,7.9677,7.9677,7.9408,7.8861,7.9408,8.0793,8.2824,8.337,8.3793,8.4093,8.4093,8.4247,8.4593,8.5132,8.5354,8.5401,8.5901,8.6094,8.6094,8.6094,8.6094,8.6094,8.6094,8.6094,8.6094,8.6094,8.5747,8.5354,8.5354,8.4978,8.4555,8.4555,8.4555,8.4555,8.4555,8.4555,8.4439,8.417,8.3832,8.3601,8.3601,8.3601,8.3447,8.2909,8.2785,8.1747,7.8554,8.0285,8.1093,7.8438,7.6938,7.6438,7.7323,7.3469,7.2507,7.6976,7.5053,7.3892,7.4861,7.2045,7.0629,7.1328,7.1598,7.386,7.8554,7.8477,8.0246,8.417,8.217,8.2785,8.6094,8.6094,8.6094,8.6094,8.6094,8.6094,8.6094,8.6094,8.6094,8.6094,8.6094,8.6094,8.6094,8.6094,8.6094,8.6094,8.6094,8.6094,8.6094,8.3101,8.3447,8.3947,8.4555,8.4816,8.4162,8.1823,8.4093,8.4978,8.1862,8.417,8.6094,8.6094,8.6094,8.6094,8.6094,8.5901,8.5517,8.5008,8.4786,8.4401,8.3793,8.3563,8.3447,8.3447,8.3447,8.3524,8.3678,8.364,8.3601,8.3601,8.3678,8.3678,8.3678,8.3755,8.4209,8.497,8.497,8.5431,8.6094,8.6094,8.6094,8.6094,8.6094,8.6094,8.6094,8.6094,8.6094,8.6094,8.6094,8.6094,8.6094,8.6094,8.6094,8.6094,8.6094,8.6094,8.6094,8.6094,8.6094,8.6094,8.6094,8.6094,8.5901,8.5162,8.4362,8.3755,8.3755,8.3755,8.3755,8.3717,8.3678,8.3678,8.3601,8.3601,8.3524,8.3293,8.0446,7.8631,7.9285,7.67,7.6161,7.94,7.9931,7.9361,7.7676,7.5361,7.5399,7.86,7.4284,7.286,7.5392,7.6284,7.8246,8.1439,8.1439,8.3016,8.6094,8.6094,8.6094,8.6094,8.6094,8.6094,8.6094,8.6094,8.6094,8.6094,8.6094,8.6094,8.6094,8.6094,8.6094,8.6094,8.6094,8.6094,8.6094,7.8169,8.1977,8.4786,8.2401,8.4132,8.5624,8.5016,8.5593,8.5824,8.5016,8.5593,8.6094,8.6094,8.6094,8.6094,8.6094,8.3747,8.3285,8.567,8.3439,8.3054,8.5401,8.3054,8.167,8.167,8.167,8.2631,8.4593,8.3939,8.3601,8.3601,8.4286,8.4593,8.4632,8.5247,8.5632,8.5824,8.5824,8.594,8.6094,8.6094,8.6094,8.6094,8.6094,8.6094,8.6094,8.6094,8.6094,8.6094,8.6094,8.6094,8.6094,8.6094,8.6094,8.6094,8.6094,8.6094,8.6094,8.6094,8.6094,8.6094,8.6094,8.6094,8.6055,8.5863,8.567,8.5517,8.5517,8.5517,8.5324,8.4709,8.4593,8.4362,8.3717,8.3601,8.2678,8.0062,7.8484,7.6938,7.52,7.5976,7.7246,7.8669,8.117,8.2016,8.0323,7.9631,7.9939,8.1323,8.0246,8.0785,8.3324,8.3593,8.4093,8.4901,8.4939,8.5324,8.6094,8.6094,8.6094,8.6094,8.6094,8.6094,8.6094,8.6094,8.6094,8.6094,8.6094,8.6094,8.6094,8.6094,8.6094,8.6094,8.6094,8.6094,8.6094,8.09,8.3593,8.5517,8.3708,8.4901,8.6094,8.6094,8.6094,8.6094,8.6094,8.6094,8.6094,8.6094,8.6094,8.6094,8.6094,8.4439,8.417,8.5978,8.4401,8.4209,8.6017,8.4362,8.3401,8.3401,8.3401,8.4055,8.544,8.4978,8.4747,8.4747,8.5247,8.544,8.5478,8.5901,8.6094,8.6094,8.6094,8.6094,8.6094,8.6094,8.6094,8.6094,8.6094,8.6094,8.6094,8.6094,8.6094,8.6094,8.6094,8.6094,8.6094,8.6094,8.6094,8.6094,8.6094,8.6094,8.6094,8.6094,8.6094,8.6094,8.6094,8.6094,8.6094,8.6094,8.6094,8.6094,8.6094,8.6094,8.5978,8.5517,8.544,8.5286,8.4824,8.3131,8.1208,7.9361,7.7361,7.6169,7.6354,7.7938,7.9823,8.1785,8.3632,8.4362,8.3439,8.1977,8.1977,8.3939,8.2593,8.3093,8.6017,8.6094,8.6094,8.6094,8.6094,8.6094,8.6094,8.6094,8.6094,8.6094,8.6094,8.6094,8.6094,8.6094,8.6094,8.6094,8.6094,8.6094,8.6094,8.6094,8.6094,8.6094,8.6094,8.6094,8.6094,8.6094,8.6094,8.6094,8.6094,8.6094,8.6094,8.6094,8.6094,8.6094,8.6094,8.6094,8.6094,8.6094,8.6094,8.6094,8.6094,8.6094,8.6094,8.6094,8.6094,8.6094,8.6094,8.6094,8.6094,8.6094,8.6094,8.6094,8.6094,8.6094,8.6094,8.6094,8.6094,8.6094,8.6094,8.6094,8.6094,8.6094,8.6094,8.6094,8.6094,8.6094,8.6094,8.6094,8.6094,8.6094,8.6094,8.6094,8.6094,8.6094,8.6094,8.6094,8.6094,8.6094,8.6094,8.6094,8.6094,8.6094,8.6094,8.6094,8.6094,8.6094,8.6094,8.6094,8.6094,8.6094,8.6094,8.6094,8.6094,8.6094,8.6094,8.6094,8.6094,8.594,8.544,8.2247,7.9662,7.9285,7.7046,7.6584,7.9623,8.1093,8.2978,8.5824,8.6094,8.6094,8.6094,8.3478,8.3093,8.594,8.3401,8.317,8.6017,8.6094,8.6094,8.6094,8.6094,8.6094,8.6094,8.6094,8.6094,8.6094,8.6094,8.6094,8.6094,8.6094,8.6094,8.6094,8.6094,8.6094,8.6094,8.6094,8.6094,8.6094,8.6094,8.6094,8.6094,8.6094,8.6094,8.6094,8.6094,8.6094,8.6094,8.6094,8.6094,8.6094,8.6094,8.6094,8.6094,8.6094,8.6094,8.6094,8.6094,8.6094,8.6094,8.6094,8.6094,8.6094,8.6094,8.6094,8.6094,8.6094,8.6094,8.6094,8.6094,8.6094,8.6094,8.6094,8.6094,8.6094,8.6094,8.6094,8.6094,8.6094,8.6094,8.6094,8.6094,8.6094,8.6094,8.6094,8.6094,8.6094,8.6094,8.6094,8.6094,8.6094,8.6094,8.6094,8.6094,8.6094,8.6094,8.6094,8.6094,8.6094,8.6094,8.6094,8.6094,8.6094,8.6094,8.6094,8.6094,8.6094,8.6094,8.6094,8.6094,8.6094,8.6094,8.6094,8.6094,8.517,8.2324,8.0708,7.9054,7.6899,7.7977,7.9469,8.0746,8.3516,8.5517,8.6055,8.6094,8.6094,8.6094,8.5632,8.5555,8.6055,8.5593,8.5555,8.6094,8.6094,8.6094,8.6094,8.6094,8.6094,8.6094,8.6094,8.6094,8.6094,8.6094,8.6094,8.6094,8.6094,8.6094,8.6094,8.6094,8.6094,8.6094,8.6094,8.6094,8.6094,8.6094,8.6094,8.6094,8.6094,8.6094,8.6094,8.6094,8.6094,8.6094,8.6094,8.6094,8.6094,8.6094,8.6094,8.6094,8.6094,8.6094,8.6094,8.6094,8.6094,8.6094,8.6094,8.6094,8.6094,8.6094,8.6094,8.6094,8.6094,8.6094,8.6094,8.6094,8.6094,8.6094,8.6094,8.6094,8.6094,8.6094,8.6094,8.6094,8.6094,8.6094,8.6094,8.6094,8.6094,8.6094,8.6094,8.6094,8.6094,8.6094,8.6094,8.6094,8.6094,8.6094,8.6094,8.6094,8.6094,8.6094,8.6094,8.6094,8.6094,8.6094,8.6094,8.6094,8.6094,8.6094,8.6094,8.6094,8.6094,8.6094,8.6094,8.6094,8.6094,8.6094,8.6094,8.6094,8.5593,8.4055,8.1554,7.94,7.8207,7.9054,7.9931,8.0362,8.3785,8.6094,8.6094,8.6094,8.6094,8.6094,8.6094,8.6094,8.6094,8.6094,8.6094,8.6094,8.6094,8.6094,8.6094,8.6094,8.6094,8.6094,8.6094,8.6094,8.6094,8.6094,8.6094,8.6094,8.6094,8.6094,8.6094,8.6094,8.6094,8.6094,8.6094,8.6094,8.6094,8.6094,8.6094,8.6094,8.6094,8.6094,8.6094,8.6094,8.6094,8.6094,8.6094,8.6094,8.6094,8.6094,8.6094,8.6094,8.6094,8.6094,8.6094,8.6094,8.6094,8.6094,8.6094,8.6094,8.6094,8.6094,8.6094,8.6094,8.6094,8.6094,8.6094,8.6094,8.6094,8.6094,8.6094,8.6094,8.6094,8.6094,8.6094,8.6094,8.6094,8.6094,8.6094,8.6094,8.6094,8.6094,8.6094,8.6094,8.6094,8.6094,8.6094,8.6094,8.6094,8.6094,8.6094,8.6094,8.6094,8.6094,8.6094,8.6094,8.6094,8.6094,8.6094,8.6094,8.6094,8.6094,8.6094,8.6094,8.6094,8.6094,8.6094,8.6094,8.6094,8.6094,8.6094,8.6094,8.5824,8.5055,8.2054,7.9854,8.0092,7.9931,8.0162,8.1162,8.4124,8.6094,8.6094,8.6094,8.6094,8.6094,8.6094,8.6094,8.6094,8.6094,8.6094,8.6094,8.6094,8.6094,8.6094,8.6094,8.6094,8.6094,8.6094,8.6094,8.6094,8.6094,8.6094,8.6094,8.6094,8.6094,8.6094,8.6094,8.6094,8.6094,8.6094,8.6094,8.6094,8.6094,8.6094,8.6094,8.6094,8.6094,8.6094,8.6094,8.6094,8.6094,8.6094,8.6094,8.6094,8.6094,8.6094,8.6094,8.6094,8.6094,8.6094,8.6094,8.6094,8.6094,8.6094,8.6094,8.6094,8.6094,8.6094,8.6094,8.6094,8.6094,8.6094,8.6094,8.6094,8.6094,8.6094,8.6094,8.6094,8.6094,8.6094,8.6094,8.6094,8.6094,8.6094,8.6094,8.6094,8.6094,8.6094,8.6094,8.6094,8.6094,8.6094,8.6094,8.6094,8.6094,8.6094,8.6094,8.6094,8.6094,8.6094,8.6094,8.6094,8.6094,8.6094,8.6094,8.6094,8.6094,8.6094,8.6094,8.6094,8.6094,8.6094,8.6094,8.6094,8.6094,8.6094,8.6094,8.5093,8.1977,8.0516,8.0092,8.09,8.0323,8.1239,8.517,8.5901,8.6094,8.6094,8.6094,8.6094,8.6094,8.6094,8.6094,8.6094,8.6094,8.6094,8.6094,8.6094,8.6094,8.6094,8.6094,8.6094,8.6094,8.6094,8.6094,8.6094,8.6094,8.6094,8.6094,8.6094,8.6094,8.6094,8.6094,8.6094,8.6094,8.6094,8.6094,8.6094,8.6094,8.6094,8.6094,8.6094,8.6094,8.6094,8.6094,8.6094,8.6094,8.6094,8.6094,8.6094,8.6094,8.6094,8.6094,8.6094,8.6094,8.6094,8.6094,8.6094,8.6094,8.6094,8.6094,8.6094,8.6094,8.6094,8.6094,8.6094,8.6094,8.6094,8.6094,8.6094,8.6094,8.6094,8.6094,8.6094,8.6094,8.6094,8.6094,8.6094,8.6094,8.6094,8.6094,8.6094,8.6094,8.6094,8.6094,8.6094,8.6094,8.6094,8.6094,8.6094,8.6094,8.6094,8.6094,8.6094,8.6094,8.6094,8.6094,8.6094,8.6094,8.6094,8.6094,8.6094,8.6094,8.6094,8.6094,8.6094,8.6094,8.6094,8.6094,8.6094,8.6094,8.6094,8.6094,8.567,8.4401,8.3939,8.3824,8.417,8.3939,8.4277,8.5901,8.6094,8.6094,8.6094,8.6094,8.6094,8.6094,8.6094,8.6094,8.6094,8.6094,8.6094,8.6094,8.6094,8.6094,8.6094,8.6094,8.6094,8.6094,8.6094,8.6094,8.6094,8.6094,8.6094,8.6094,8.6094,8.6094,8.6094,8.6094,8.6094,8.6094,8.6094,8.6094,8.6094,8.6094,8.6094,8.6094,8.6094,8.6094,8.6094,8.6094,8.6094,8.6094,8.6094,8.6094,8.6094,8.6094,8.6094,8.6094,8.6094,8.6094,8.6094,8.6094,8.6094,8.6094,8.6094,8.6094,8.6094,8.6094,8.6094,8.6094,8.6094,8.6094,8.6094,8.6094,8.6094,8.6094,8.6094,8.6094,8.6094,8.6094,8.6094,8.6094,8.6094,8.6094,8.6094,8.6094,8.6094,8.6094,8.6094,8.6094,8.6094,8.6094,8.6094,8.6094,8.6094,8.6094,8.6094,8.6094,8.6094,8.6094,8.6094,8.6094,8.6094,8.6094,8.6094,8.6094,8.6094,8.6094,8.6094,8.6094,8.6094,8.6094,8.6094,8.6094,8.6094,8.6094,8.6094,8.6094,8.6094,8.6094,8.6094,8.6094,8.6094,8.6094,8.6094,8.6094,8.6094,8.6094,8.6094,8.6094,8.6094,8.6094,8.6094,8.6094,8.6094,8.6094,8.6094,8.6094,8.6094,8.6094,8.6094,8.6094,8.6094,8.6094,8.6094,8.6094,8.6094,8.6094,8.6094,8.6094,8.6094,8.6094,8.6094,8.6094,8.6094,8.6094,8.6094,8.6094,8.6094,8.6094,8.6094,8.6094,8.6094,8.6094,8.6094,8.6094,8.6094,8.6094,8.6094,8.6094,8.6094,8.6094,8.6094,8.6094,8.6094,8.6094,8.6094,8.6094,8.6094,8.6094,8.6094,8.6094,8.6094,8.6094,8.6094,8.6094,8.6094,8.6094,8.6094,8.6094,8.6094,8.6094,8.6094,8.6094,8.6094,8.6094,8.6094,8.6094,8.6094,8.6094,8.6094,8.6094,8.6094,8.6094,8.6094,8.6094,8.6094,8.6094,8.6094,8.6094,8.6094,8.6094,8.6094,8.6094,8.6094,8.6094,8.6094,8.6094,8.6094,8.6094,8.6094,8.6094,8.6094,8.6094,8.6094,8.6094,8.6094,8.6094,8.6094,8.6094,8.6094,8.6094,8.6094,8.6094,8.6094,8.6094,8.6094,8.6094,8.6094,8.6094,8.6094,8.6094,8.6094,8.6094,8.6094,8.6094,8.6094,8.6094,8.6094,8.6094,8.6094,8.6094,8.6094,8.6094,8.6094,8.6094,8.6094,8.6094,8.6094,8.6094,8.6094,8.6094,8.6094,8.6094,8.6094,8.6094,8.6094,8.6094,8.6094,8.6094,8.6094,8.6094,8.6094,8.6094,8.6094,8.6094,8.6094,8.6094,8.6094,8.6094,8.6094,8.6094,8.6094,8.6094,8.6094,8.6094,8.6094,8.6094,8.6094,8.6094,8.6094,8.6094,8.6094,8.6094,8.6094,8.6094,8.6094,8.6094,8.6094,8.6094,8.6094,8.6094,8.6094,8.6094,8.6094,8.6094,8.6094,8.6094,8.6094,8.6094,8.6094,8.6094,8.6094,8.6094,8.6094,8.6094,8.6094,8.6094,8.6094,8.6094,8.6094,8.6094,8.6094,8.6094,8.6094,8.6094,8.6094,8.6094,8.6094,8.6094,8.6094,8.6094,8.6094,8.6094,8.6094,8.6094,8.6094,8.6094,8.6094,8.6094,8.6094,8.6094,8.6094,8.6094,8.6094,8.6094,8.6094,8.6094,8.6094,8.6094,8.6094,8.6094,8.6094,8.6094,8.6094,8.6094,8.6094,8.6094,8.6094,8.6094,8.6094,8.6094,8.6094,8.6094,8.6094,8.6094,8.6094,8.6094,8.6094,8.6094,8.6094,8.6094,8.6094,8.6094,8.6094,8.6094,8.6094,8.6094,8.6094,8.6094,8.6094,8.6094,8.6094,8.6094,8.6094,8.6094,8.6094,8.6094,8.6094,8.6094,8.6094,8.6094,8.6094,8.6094,8.6094,8.6094,8.6094,8.6094,8.6094,8.6094,8.6094,8.6094,8.6094,8.6094,8.6094,8.6094,8.6094,8.6094,8.6094,8.6094,8.6094,8.6094,8.6094,8.6094,8.6094,8.6094,8.6094,8.6094,8.6094,8.6094,8.6094,8.6094,8.6094,8.6094,8.6094,8.6094,8.6094,8.6094,8.6094,8.6094,8.6094,8.6094,8.6094,8.6094,8.6094,8.6094,8.6094,8.6094,8.6094,8.6094,8.6094,8.6094,8.6094,8.6094,8.6094,8.6094,8.6094,8.6094,8.6094,8.6094,8.6094,8.6094,8.6094,8.6094,8.6094,8.6094,8.6094,8.6094,8.6094,8.6094,8.6094,8.6094,8.6094,8.6094,8.6094,8.6094,8.6094,8.6094,8.6094,8.6094,8.6094,8.6094,8.6094,8.6094,8.6094,8.6094,8.6094,8.6094,8.6094,8.6094,8.6094,8.6094,8.6094,8.6094,8.6094,8.6094,8.6094,8.6094,8.6094,8.6094,8.6094,8.6094,8.6094,8.6094,8.6094,8.6094,8.6094,8.6094,8.6094,8.6094,8.6094,8.6094,8.6094,8.6094,8.6094,8.6094,8.6094,8.6094,8.6094,8.6094,8.6209,8.617,8.6094,8.6094,8.6094,8.6094,8.6094,8.6094,8.6094,8.6094,8.6094,8.6094,8.6094,8.6094,8.6094,8.6094,8.6094,8.6094,8.6094,8.6094,8.6094,8.6094,8.6094,8.6094,8.6094,8.6094,8.6094,8.6094,8.6094,8.6094,8.6094,8.6094,8.6094,8.6094,8.6094,8.6094,8.6094,8.6094,8.6094,8.6094,8.6094,8.6094,8.6094,8.6094,8.6094,8.6094,8.6094,8.6094,8.6094,8.6094,8.6094,8.6094,8.6094,8.6094,8.6094,8.6094,8.6094,8.6094,8.6094,8.6094,8.6094,8.6094,8.6094,8.6094,8.6094,8.6094,8.6094,8.6094,8.6094,8.6094,8.6094,8.6094,8.6094,8.6094,8.6094,8.6094,8.6094,8.6094,8.6094,8.6094,8.6094,8.6094,8.6094,8.6094,8.6094,8.6094,8.6094,8.6094,8.6094,8.6094,8.6094,8.6094,8.6094,8.6094,8.6094,8.6094,8.6094,8.6094,8.6094,8.6094,8.6094,8.6094,8.6094,8.6094,8.6094,8.6094,8.6094,8.6094,8.6094,8.6094,8.6094,8.6094,8.6094,8.6094,8.6094,8.6094,8.7132,8.6555,8.6094,8.6094,8.6094,8.6094,8.6094,8.6094,8.6094,8.6094,8.6094,8.6094,8.6094,8.6094,8.6094,8.6094,8.6094,8.6094,8.6094,8.6094,8.6094,8.6094,8.6094,8.6094,8.6094,8.6094,8.6094,8.6094,8.6094,8.6094,8.6094,8.6094,8.6094,8.6094,8.6094,8.6094,8.6094,8.6094,8.6094,8.6094,8.6094,8.6094,8.6094,8.6094,8.6094,8.6094,8.6094,8.6094,8.6094,8.6094,8.6094,8.6094,8.6094,8.6094,8.6094,8.6094,8.6094,8.6094,8.6094,8.6094,8.6094,8.6094,8.6094,8.6094,8.6094,8.6094,8.6094,8.6094,8.6094,8.6094,8.6094,8.6094,8.6094,8.6094,8.6094,8.6094,8.6094,8.6094,8.6094,8.6094,8.6094,8.6094,8.6094,8.6094,8.6094,8.6094,8.6094,8.6094,8.6094,8.6094,8.6094,8.6094,8.6094,8.6094,8.6094,8.6094,8.6094,8.6094,8.6094,8.6094,8.6094,8.6094,8.6094,8.6094,8.6094,8.6094,8.6094,8.6094,8.6094,8.6094,8.6094,8.6094,8.6094,8.6094,8.6094,8.6094,8.8017,8.7632,8.7325,8.7325,8.7325,8.7209,8.6786,8.6709,8.6555,8.617,8.6094,8.6094,8.6094,8.6094,8.6094,8.6094,8.6094,8.6094,8.6094,8.6094,8.6094,8.6094,8.6094,8.6094,8.6094,8.6094,8.6094,8.6094,8.6094,8.6094,8.6094,8.6094,8.6094,8.6094,8.6094,8.6094,8.6094,8.6094,8.6094,8.6094,8.6094,8.6094,8.6094,8.6094,8.6094,8.6094,8.6094,8.6094,8.6094,8.6094,8.6094,8.6094,8.6094,8.6094,8.6094,8.6094,8.6094,8.6094,8.6094,8.6094,8.6094,8.6094,8.6094,8.6094,8.6094,8.6094,8.6094,8.6094,8.6094,8.6094,8.6094,8.6094,8.6094,8.6094,8.6094,8.6094,8.6094,8.6094,8.6094,8.6094,8.6094,8.6094,8.6094,8.6094,8.6094,8.6094,8.6094,8.6094,8.6094,8.6094,8.6094,8.6094,8.6094,8.6094,8.6094,8.6094,8.6094,8.6094,8.6094,8.6094,8.6094,8.6094,8.6094,8.6094,8.6094,8.6094,8.6094,8.6094,8.6094,8.6094,8.6094,8.6094,8.6094,8.6094,8.6094,8.6094,8.891,8.8795,8.8718,8.8718,8.8718,8.8449,8.7709,8.7632,8.7325,8.644,8.6324,8.6286,8.6132,8.6094,8.6094,8.6094,8.6094,8.6094,8.6094,8.6094,8.6094,8.6094,8.6094,8.6094,8.6094,8.6094,8.6094,8.6094,8.6094,8.6094,8.6094,8.6094,8.6094,8.6094,8.6094,8.6094,8.6094,8.6094,8.6094,8.6094,8.6094,8.6094,8.6094,8.6094,8.6094,8.6094,8.6094,8.6094,8.6094,8.6094,8.6094,8.6094,8.6094,8.6094,8.6094,8.6094,8.6094,8.6094,8.6094,8.6094,8.6094,8.6094,8.6094,8.6094,8.6094,8.6094,8.6094,8.6094,8.6094,8.6094,8.6094,8.6094,8.6094,8.6094,8.6094,8.6094,8.6094,8.6094,8.6094,8.6094,8.6094,8.6094,8.6094,8.6094,8.6094,8.6094,8.6094,8.6094,8.6094,8.6094,8.6094,8.6094,8.6094,8.6094,8.6094,8.6094,8.6094,8.6094,8.6094,8.6094,8.6094,8.6094,8.6094,8.6094,8.6094,8.6094,8.6094,8.6094,8.6094,8.6094,8.6094,8.6094,8.6094,8.6094,8.6094,8.6094,8.9739,8.9171,8.8718,8.8718,8.8718,8.8679,8.8526,8.8526,8.8218,8.7325,8.7209,8.694,8.617,8.6094,8.6094,8.6094,8.6094,8.6094,8.6094,8.6094,8.6094,8.6094,8.6094,8.6094,8.6094,8.6094,8.6094,8.6094,8.6094,8.6094,8.6094,8.6094,8.6094,8.6094,8.6094,8.6094,8.6094,8.6094,8.6094,8.6094,8.6094,8.6094,8.6094,8.6094,8.6094,8.6094,8.6094,8.6094,8.6094,8.6094,8.6094,8.6094,8.6094,8.6094,8.6094,8.6094,8.6094,8.6094,8.6094,8.6094,8.6094,8.6094,8.6094,8.6094,8.6094,8.6094,8.6094,8.6094,8.6094,8.6094,8.6094,8.6094,8.6094,8.6094,8.6094,8.6094,8.6094,8.6094,8.6094,8.6094,8.6094,8.6094,8.6094,8.6094,8.6094,8.6094,8.6094,8.6094,8.6094,8.6094,8.6094,8.6094,8.6094,8.6094,8.6094,8.6094,8.6094,8.6094,8.6094,8.6094,8.6094,8.6094,8.6094,8.6094,8.6094,8.6094,8.6094,8.6094,8.6094,8.6094,8.6094,8.6094,8.6094,8.6094,8.6094,8.6094,9.0624,9.0325,9.0094,9.0094,9.0094,8.994,8.944,8.9363,8.8902,8.7555,8.7401,8.7055,8.6209,8.6094,8.6094,8.6094,8.6094,8.6094,8.6094,8.6094,8.6094,8.6094,8.6094,8.6094,8.6094,8.6094,8.6094,8.6094,8.6094,8.6094,8.6094,8.6094,8.6094,8.6094,8.6094,8.6094,8.6094,8.6094,8.6094,8.6094,8.6094,8.6094,8.6094,8.6094,8.6094,8.6094,8.6094,8.6094,8.6094,8.6094,8.6094,8.6094,8.6094,8.6094,8.6094,8.6094,8.6094,8.6094,8.6094,8.6094,8.6094,8.6094,8.6094,8.6094,8.6094,8.6094,8.6094,8.6094,8.6094,8.6094,8.6094,8.6094,8.6094,8.6094,8.6094,8.6094,8.6094,8.6094,8.6094,8.6094,8.6094,8.6094,8.6094,8.6094,8.6094,8.6094,8.6094,8.6094,8.6094,8.6094,8.6094,8.6094,8.6094,8.6094,8.6094,8.6094,8.6094,8.6094,8.6094,8.6094,8.6094,8.6094,8.6094,8.6094,8.6094,8.6094,8.6094,8.6094,8.6094,8.6094,8.6094,8.6094,8.6094,8.6094,8.6094,8.6094]}]]